     2.10           OBSERVATION DATA    G (GPS)             RINEX VERSION / TYPE
teqc 2002Mar14 SOPAC 20050725 21:26:25UTC                   PGM / RUN BY / DATE
Linux 2.0.36|Pentium II|gcc -static|Linux|486/DX+           COMMENT
BIT 2 OF LLI FLAGS DATA COLLECTED UNDER A/S CONDITION       COMMENT
HPGN D CA 01 RD                                             MARKER NAME
01RD                                                        MARKER NUMBER
Dick Roper                                                  OBSERVER / AGENCY
0220158629 TRIMBLE 4700 1.30                                REC # / TYPE / VERS
0220159582 TRM33429.00+GP NONE                              ANT # / TYPE
 -2684285.0000 -4013915.0000  4154269.0000                  APPROX POSITION XYZ
        2.0000        0.0000        0.0000                  ANTENNA: DELTA H/E/N
     1     1                                                WAVELENGTH FACT L1/2
     6    L1    L2    C1    P2    P1    D1                  # / TYPES OF OBSERV
    15.0000                                                 INTERVAL
Northern California Height Modernization 2004               COMMENT
                                                            COMMENT
SOPAC - Scripps Orbit and Permanent Array Center            COMMENT
IGPP - Institute of Geophysics and Planetary Physics        COMMENT
SIO - Scripps Institution of Oceanography                   COMMENT
UCSD - University of California, San Diego                  COMMENT
                                                            COMMENT
email: archive@gpsmail.ucsd.edu                             COMMENT
ftp://garner.ucsd.edu                                       COMMENT
http://sopac.ucsd.edu                                       COMMENT
                                                            COMMENT
                                                            COMMENT
Approximate Lat, Lon : 40.896, -123.772                     COMMENT
                                                            COMMENT
SNR is mapped to RINEX snr flag value [1-9]                 COMMENT
L1: 3 -> 1; 8 -> 5; 40 -> 9                                 COMMENT
L2: 1 -> 1; 5 -> 5; 60 -> 9                                 COMMENT
  2004     9     8    20    45   15.0000000     GPS         TIME OF FIRST OBS
                                                            END OF HEADER
 04  9  8 20 45 15.0000000  0  6G 3G 8G13G16G23G27
     -8108.33259     -6548.11057  23650451.4384   23650448.8984
       516.0634
    -24261.26059    -11081.60357  23469264.2504   23469261.1454
      1552.0944
      9909.87259     -1004.49558  20377370.1884   20377365.6484
      -637.3754
     65530.77259     14090.48957  23526578.0474   23526574.0204
     -4198.1564
     49013.16059      9287.72558  21185704.9304   21185698.7704
     -3101.2814
     -4895.90759     -5616.87558  21803491.9774   21803488.7304
       304.5634
 04  9  8 20 45 30.0000000  0  6G 3G 8G13G16G23G27
    -15832.01349    -12566.52847  23648981.7814   23648979.7384
       513.6414
    -47555.21949    -29232.71047  23464831.9064   23464829.0824
      1553.7034
     19486.85249      6458.09348  20379192.4614   20379187.9264
      -639.6564
    128509.00749     63164.41647  23538562.3754   23538558.6174
     -4198.9694
     95545.56649     45546.71648  21194559.7034   21194553.0164
     -3103.1414
     -9471.27049     -9182.08848  21802621.3284   21802618.0554
       305.4384
 04  9  8 20 45 45.0000000  0  7G 3G 8G13G16G20G23G27
    -23507.16549    -18547.14247  23647521.4064   23647519.3754
       509.4064
    -70860.26649    -47392.47047  23460396.1414   23460394.4384
      1553.2974
     29109.44749     13956.21448  20381023.7664   20381019.4694
      -643.6874
    191510.54149    112256.52447  23550551.4224   23550547.5904
     -4201.5314
    193310.34759    113418.52256  24301836.8134   24301836.1094
     -5030.4374
    142118.05949     81836.96148  21203421.9774   21203415.7814
     -3106.8124
    -14048.23249    -12748.53548  21801750.5234   21801747.5204
       304.5164
 04  9  8 20 46  0.0000000  0  7G 3G 8G13G16G20G23G27
    -31106.95849    -24469.03847  23646074.8204   23646073.5274
       503.9064
    -94149.76949    -65540.06547  23455963.6724   23455962.7704
      1551.9534
     38804.42149     21510.74148  20382868.2734   20382863.9264
      -649.0004
    254561.58349    161387.19847  23562549.9304   23562545.7304
     -4205.2034
    268765.59249    172214.75046  24316196.0784   24316194.7344
     -5030.0314
    188757.23249    118179.15048  21212297.2504   21212290.9024
     -3111.7034
    -18600.33149    -16295.60948  21800884.0704   21800880.6174
       302.5314
 04  9  8 20 46 15.0000000  0  6G 3G 8G13G16G23G27
    -38609.72049    -30315.33947  23644648.3284   23644644.8094
       496.7034
   -117402.42149    -83658.99047  23451539.2734   23451536.5984
      1548.7034
     48593.06949     29138.24848  20384731.4064   20384726.2034
      -655.9224
    317683.16649    210572.80547  23574561.8204   23574557.6564
     -4210.6724
    235484.21049    154589.76248  21221189.2424   21221182.7814
     -3118.2974
    -23106.41449    -19806.84648  21800027.0314   21800023.0354
       298.6414
 04  9  8 20 46 30.0000000  0  6G 3G 8G13G16G23G27
    -45999.21049    -36073.34147  23643241.4224   23643239.3914
       488.3134
   -140602.39649   -101736.84647  23447124.7194   23447121.8204
      1544.4844
     58491.64649     36851.44448  20386615.1724   20386609.5044
      -664.1254
    380890.85149    259825.52047  23586589.0784   23586586.4694
     -4217.1254
    282315.06049    191081.31748  21230100.7504   21230094.4344
     -3126.0004
    -27550.37849    -23269.66248  21799180.9304   21799176.9534
       293.7504
 04  9  8 20 46 45.0000000  0  6G 3G 8G13G16G23G27
    -53254.25949    -41726.64047  23641860.7274   23641858.4964
       478.4534
   -163728.74049   -119757.36647  23442723.8054   23442721.9264
      1538.6414
     68521.01849     44666.52948  20388523.8204   20388518.1414
      -673.6564
    444205.15549    309161.31347  23598637.6254   23598634.3164
     -4225.1564
    329270.50349    227669.95448  21239035.6564   21239029.5704
     -3135.2034
    -31911.55949    -26667.98148  21798350.8674   21798347.6134
       287.2974
 04  9  8 20 47  0.0000000  0  6G 3G 8G13G16G23G27
    -60355.62049    -47260.17047  23640509.6484   23640507.4184
       467.8134
   -186762.24049   -137705.51447  23438340.4224   23438337.6484
      1531.9694
     78700.38349     52598.50548  20390460.5474   20390455.4384
      -684.0944
    507644.79249    358594.75247  23610709.5084   23610706.5944
     -4233.9534
    376369.49249    264370.44148  21247998.6094   21247992.1954
     -3145.1724
    -36170.95749    -29986.97648  21797540.9144   21797537.1564
       280.0784
 04  9  8 20 47 15.0000000  0  6G 3G 8G13G16G23G27
    -67296.44649    -52668.56747  23639188.6334   23639186.8014
       457.4064
   -209696.37049   -155576.24947  23433975.9224   23433974.2464
      1525.7194
     89036.44149     60652.56548  20392427.6484   20392423.0314
      -694.2504
    571215.87049    408130.62747  23622807.1094   23622803.1954
     -4242.3914
    423618.47049    301187.81748  21256990.1414   21256983.6174
     -3154.9064
    -40321.89849    -33221.48448  21796751.1884   21796747.7074
       273.1564
 04  9  8 20 47 30.0000000  0  6G 3G 8G13G16G23G27
    -74082.48449    -57956.37847  23637896.4844   23637895.3014
       447.2344
   -232537.49849   -173374.47547  23429629.4144   23429627.8834
      1519.6724
     99523.29649     68824.15448  20394423.3364   20394418.5864
      -704.1094
    634911.97249    457763.95447  23634927.9844   23634924.2114
     -4250.4534
    471011.21249    338117.21148  21266008.4534   21266002.0354
     -3164.2664
    -44370.73749    -36376.41248  21795980.3204   21795976.6024
       266.5784
 04  9  8 20 47 45.0000000  0  6G 3G 8G13G16G23G27
    -80711.51349    -63121.84647  23636635.8754   23636634.4344
       436.3134
   -255283.50449   -191098.63547  23425300.6414   23425299.6214
      1512.8284
    110163.02249     77114.84448  20396447.9924   20396443.1644
      -714.7034
    698734.73849    507495.94047  23647072.5004   23647068.1644
     -4259.3124
    518549.69949    375160.17748  21275054.7894   21275047.9734
     -3174.4224
    -48315.46949    -39450.23048  21795229.8674   21795226.6914
       259.1884
 04  9  8 20 48  0.0000000  0  6G 3G 8G13G16G23G27
    -87175.60749    -68158.76547  23635405.5164   23635403.9534
       425.5004
   -277926.61749   -208742.59047  23420991.8364   23420990.7034
      1506.1094
    120963.23049     85530.58048  20398503.1564   20398498.1804
      -725.2814
    762691.36549    557332.24747  23659244.3914   23659240.0044
     -4268.1564
    566241.44649    412322.54748  21284130.2504   21284123.5634
     -3184.5624
    -52148.59649    -42437.06848  21794499.7034   21794496.7114
       251.8914
 04  9  8 20 48 15.0000000  0  6G 3G 8G13G16G23G27
    -93480.86249    -73071.92747  23634205.2894   23634204.1604
       414.9224
   -300473.20849   -226311.34047  23416702.7894   23416700.5314
      1499.8284
    131917.68949     94066.51848  20400587.5394   20400582.3554
      -735.5314
    826775.16649    607267.64847  23671439.0234   23671434.8364
     -4276.6254
    614079.93449    449599.28548  21293233.9224   21293227.2624
     -3194.2194
    -55876.47949    -45341.91148  21793790.5234   21793787.0354
       244.9694
 04  9  8 20 48 30.0000000  0  6G 3G 8G13G16G23G27
    -99633.12949    -77865.87647  23633035.2664   23633033.0784
       404.9224
   -322929.30949   -243809.57747  23412428.3204   23412426.9884
      1493.8914
    143020.33849    102717.94048  20402700.2034   20402695.4804
      -745.2814
    890979.59849    657297.03847  23683656.6094   23683652.7624
     -4284.4374
    662059.00349    486985.54748  21302363.7664   21302357.1094
     -3203.4694
    -59505.41649    -48169.63848  21793099.8284   21793096.5204
       238.5004
 04  9  8 20 48 45.0000000  0  6G 3G 8G13G16G23G27
   -105634.31849    -82542.07447  23631892.4614   23631891.5274
       394.9384
   -345297.20849   -261239.09147  23408172.8524   23408170.3244
      1488.2814
    154269.21949    111483.28148  20404840.9384   20404835.4924
      -754.8284
    955302.10549    707418.43847  23695895.9454   23695893.4414
     -4292.0624
    710176.28249    524479.51448  21311520.3284   21311513.7234
     -3212.4534
    -63037.58149    -50921.97148  21792427.7344   21792424.3834
       232.1564
 04  9  8 20 49  0.0000000  0  6G 3G 8G13G16G23G27
   -111485.88849    -87101.73747  23630779.4224   23630777.8484
       385.2974
   -367578.61449   -278601.20247  23403933.0474   23403930.1524
      1482.7034
    165662.68949    120361.32048  20407009.1254   20407003.7584
      -764.2504
   1019740.61849    757630.20547  23708158.1094   23708155.9064
     -4299.5624
    758430.12849    562079.89448  21320702.6644   21320696.2974
     -3221.3594
    -66474.68049    -53600.22148  21791773.4144   21791770.0084
       226.1094
 04  9  8 20 49 15.0000000  0  6G 3G 8G13G16G23G27
   -117188.48349    -91545.29247  23629695.4614   23629692.8444
       375.1094
   -389774.50849   -295896.67547  23399708.4534   23399706.6294
      1476.7664
    177199.92849    129351.37248  20409204.5864   20409199.2194
      -774.0314
   1084293.86949    807931.41047  23720443.6884   23720439.5044
     -4307.4064
    806819.50449    599785.89448  21329910.8984   21329904.6094
     -3230.4844
    -69817.87949    -56205.29848  21791137.5944   21791133.5984
       219.6414
 04  9  8 20 49 30.0000000  0  6G 3G 8G13G16G23G27
   -122747.63249    -95877.04047  23628635.8594   23628634.6294
       366.1724
   -411890.56149   -313129.94147  23395499.4224   23395497.7034
      1472.0164
    188875.46849    138449.20548  20411426.7344   20411421.5984
      -782.6564
   1148955.77149    858317.30047  23732747.8754   23732744.5704
     -4314.1414
    855338.44649    637592.84348  21339143.6484   21339137.4264
     -3238.6094
    -73072.83049    -58741.61048  21790518.1094   21790514.1804
       214.2664
 04  9  8 20 49 45.0000000  0  6G 3G 8G13G16G23G27
   -128167.38449   -100100.22047  23627605.6954   23627602.6484
       356.6724
   -433931.05049   -330304.31447  23391305.7424   23391304.1094
      1466.8444
    200684.80449    147651.28548  20413673.6254   20413668.1724
      -791.7814
   1213721.59249    908784.15647  23745071.7974   23745068.4654
     -4321.1874
    903982.59849    675497.35048  21348400.3134   21348393.7974
     -3247.1414
    -76244.00049    -61212.66048  21789914.1254   21789910.8364
       208.5944
 04  9  8 20 50  0.0000000  0  6G 3G 8G13G16G23G27
   -133444.91249   -104212.54747  23626600.3754   23626598.3014
       347.4384
   -455893.33149   -347417.73147  23387126.1174   23387125.1024
      1461.9224
    212630.45449    156959.58248  20415946.7974   20415941.7384
      -800.5624
   1278593.48849    959333.66747  23757417.3984   23757413.3714
     -4327.8284
    952754.37249    713501.30348  21357681.5314   21357674.9264
     -3255.2814
    -79329.00549    -63616.54348  21789327.5704   21789323.8594
       203.1564
 04  9  8 20 50 15.0010000  0  6G 3G 8G13G16G23G27
   -138588.53149   -108220.49047  23625622.2554   23625619.5484
       338.0944
   -477787.42449   -364478.05147  23382959.7314   23382957.5604
      1456.8284
    224705.31649    166368.55448  20418244.5914   20418239.9664
      -809.5004
   1343567.24549   1009962.56147  23769781.0444   23769777.8494
     -4334.8124
   1001648.68649    751600.75048  21366986.1854   21366979.6304
     -3263.6724
    -82336.07149    -65959.70248  21788755.3804   21788752.0834
       197.5474
 04  9  8 20 50 30.0010000  0  6G 3G 8G13G16G23G27
   -143595.26349   -112121.84747  23624668.9894   23624666.2514
       329.5474
   -499608.26749   -381481.24947  23378807.9354   23378806.5214
      1452.6414
    236910.02549    175878.72048  20420567.1384   20420562.5284
      -817.7034
   1408635.75449   1060665.27247  23782162.3104   23782160.2204
     -4340.8754
   1050660.86149    789792.02448  21376312.4744   21376305.9664
     -3271.2194
    -85263.06749    -68240.47448  21788198.6694   21788194.7944
       192.7194
 04  9  8 20 50 45.0010000  0  6G 3G 8G13G16G23G27
   -148472.99249   -115922.64047  23623740.5444   23623738.0524
       321.2034
   -521365.01249   -398434.54847  23374667.7164   23374665.4234
      1448.6564
    249237.59849    185484.62148  20422912.6774   20422907.8724
      -825.5784
   1473795.30549   1111438.92447  23794562.3414   23794559.6774
     -4346.5784
   1099786.36549    828071.62348  21385660.8334   21385653.7904
     -3278.4844
    -88118.03449    -70465.11448  21787655.3104   21787651.5404
       188.2344
 04  9  8 20 51  0.0010000  0  6G 3G 8G13G16G23G27
   -153218.70149   -119620.58647  23622837.4894   23622835.3214
       311.7664
   -543055.02249   -415335.82847  23370539.3174   23370537.8564
      1443.4694
    261691.00249    195188.57448  20425282.6384   20425278.0954
      -834.7344
   1539048.13849   1162285.24547  23806980.2004   23806976.7594
     -4353.6874
   1149027.85749    866441.60148  21395031.1924   21395024.4034
     -3286.9224
    -90898.22349    -72631.47948  21787126.1144   21787122.0954
       182.5634
 04  9  8 20 51 15.0010000  0  6G 3G 8G13G16G23G27
   -157833.95049   -123216.88347  23621959.4034   23621957.5914
       303.2504
   -564680.00449   -432186.42447  23366424.6384   23366422.8994
      1439.3754
    274268.32049    204989.07048  20427675.9744   20427670.9814
      -842.6414
   1604392.06449   1213202.56747  23819413.3104   23819411.4034
     -4359.3124
   1198383.31749    904900.38848  21404423.1464   21404416.0214
     -3294.2814
    -93605.59749    -74741.11648  21786610.6694   21786607.4314
       177.9844
 04  9  8 20 51 30.0010000  0  6G 3G 8G13G16G23G27
   -162326.51349   -126717.56147  23621104.8494   23621102.5874
       295.3754
   -586247.80549   -448992.44347  23362320.8884   23362318.3134
      1435.8754
    286961.67549    214880.00048  20430091.7164   20430086.5794
      -850.0474
   1669818.74149   1264184.34847  23831864.3724   23831861.0174
     -4364.5314
   1247844.80249    943441.79048  21413835.4744   21413828.1964
     -3300.9694
    -96248.10649    -76800.20948  21786108.0284   21786104.4704
       173.9384
 04  9  8 20 51 45.0010000  0  6G 3G 8G13G16G23G27
   -166692.89549   -130119.92247  23620274.2314   23620270.9504
       286.8914
   -607755.27049   -465751.50947  23358228.2084   23358225.5444
      1431.8444
    299774.52549    224864.03848  20432530.2164   20432524.6344
      -858.1724
   1735331.01549   1315232.83947  23844330.4274   23844327.3924
     -4370.4694
   1297415.40849    982068.22848  21423268.2164   21423261.6884
     -3308.3594
    -98822.79749    -78806.46348  21785617.7554   21785614.4624
       169.3444
 04  9  8 20 52  0.0010000  0  6G 3G 8G13G16G23G27
   -170934.35249   -133424.90747  23619465.8964   23619464.1104
       278.5314
   -629204.14849   -482464.86647  23354145.9814   23354144.1574
      1427.7664
    312705.45649    234940.08548  20434990.7314   20434985.5604
      -866.1414
   1800927.11349   1366346.65847  23856813.1304   23856809.4744
     -4375.9374
   1347093.50849   1020778.40748  21432721.6464   21432715.2044
     -3315.6094
   -101331.15449    -80761.01748  21785140.7634   21785136.9194
       164.8754
 04  9  8 20 52 15.0010000  0  6G 3G 8G13G16G23G27
   -175047.50649   -136629.94547  23618683.3884   23618681.1034
       270.1564
   -650591.23249   -499130.09147  23350077.0834   23350074.5524
      1424.0634
    325757.62249    245110.62148  20437474.2004   20437469.2594
      -873.9374
   1866609.59049   1417527.79447  23869312.5134   23869308.6654
     -4381.5004
   1396882.02949   1059574.64048  21442196.0674   21442189.8764
     -3322.5944
   -103770.07249    -82661.46148  21784676.4354   21784673.0604
       160.5004
 04  9  8 20 52 30.0010000  0  6G 3G 8G13G16G23G27
   -179044.35349   -139744.37047  23617923.8334   23617920.3764
       262.5314
   -671928.80749   -515756.75847  23346016.0054   23346014.3454
      1420.8134
    338918.87749    255366.12048  20439978.6614   20439974.0244
      -881.0164
   1932365.88449   1468766.43447  23881825.5444   23881821.5874
     -4386.2504
   1446768.71649   1098447.36148  21451689.6854   21451683.1064
     -3329.0784
   -106151.97749    -84517.48448  21784223.3884   21784220.0754
       156.9224
 04  9  8 20 52 45.0010000  0  6G 3G 8G13G16G23G27
   -182918.12849   -142762.87547  23617185.7164   23617183.5094
       254.1884
   -693210.23649   -532339.66647  23341965.9424   23341964.2164
      1417.0004
    352195.69449    265711.69948  20442504.9274   20442500.5834
      -888.8284
   1998202.03049   1520067.27547  23894353.1304   23894350.0834
     -4391.6564
   1496759.82549   1137401.46748  21461202.2314   21461195.8684
     -3336.0944
   -108470.41749    -86324.05248  21783782.2004   21783778.5634
       152.6254
 04  9  8 20 53  0.0010000  0  6G 3G 8G13G16G23G27
   -186670.89849   -145687.09947  23616472.5754   23616469.5134
       245.9534
   -714437.85849   -548880.63947  23337926.9894   23337925.0634
      1413.2814
    365586.02349    276145.69948  20445053.3724   20445048.9974
      -896.6564
   2064115.54449   1571428.41647  23906896.3724   23906893.3644
     -4397.0784
   1546853.03949   1176435.12248  21470734.5364   21470728.6964
     -3343.1254
   -110727.67749    -88082.94548  21783352.3334   21783348.9974
       148.2504
 04  9  8 20 53 15.0010000  0  6G 3G 8G13G16G23G27
   -190303.31649   -148517.53447  23615780.8494   23615778.1574
       238.0944
   -735612.69449   -565380.49847  23333897.2864   23333894.4314
      1409.7664
    379088.96549    286667.47548  20447622.4974   20447617.9154
      -904.0944
   2130105.12549   1622848.85147  23919454.1924   23919450.8684
     -4401.8594
   1597047.35849   1215547.55548  21480286.1144   21480280.0714
     -3349.7664
   -112924.70149    -89794.90748  21782934.5364   21782931.1774
       144.4384
 04  9  8 20 53 30.0010000  0  6G 3G 8G13G16G23G27
   -193815.13449   -151254.00047  23615112.0674   23615110.7284
       230.3284
   -756734.56449   -581839.06247  23329877.8564   23329875.8294
      1406.5474
    392704.71949    297277.15148  20450213.3174   20450208.9894
      -911.2344
   2196170.53849   1674328.36347  23932025.8884   23932023.2084
     -4406.7034
   1647342.64349   1254738.66948  21489856.9814   21489851.0634
     -3356.1254
   -115061.53749    -91459.96248  21782527.6384   21782524.4894
       140.6564
 04  9  8 20 53 45.0010000  0  6G 3G 8G13G16G23G27
   -197211.18149   -153900.22047  23614466.5134   23614464.2514
       222.1254
   -777808.55649   -598260.32647  23325868.2784   23325865.7244
      1402.9064
    406428.39249    307970.91348  20452825.1694   20452820.5174
      -918.9374
   2262306.18949   1725862.63547  23944611.1614   23944608.4194
     -4411.8284
   1697733.73849   1294004.44548  21499445.9424   21499439.9074
     -3363.0164
   -117143.45749    -93082.22148  21782131.8804   21782128.1494
       136.5784
 04  9  8 20 54  0.0010000  0  6G 3G 8G13G16G23G27
   -200487.35349   -156453.06147  23613842.6304   23613841.1034
       214.1564
   -798830.78349   -614641.23947  23321866.8494   23321865.0134
      1399.5164
    420263.93649    318751.87348  20455458.0994   20455453.2164
      -926.2974
   2328515.68449   1777454.43847  23957210.3564   23957207.9354
     -4416.6254
   1748224.43649   1333347.82448  21509054.4894   21509048.2434
     -3369.5474
   -119166.49949    -94658.61448  21781746.5674   21781742.7354
       132.6254
 04  9  8 20 54 15.0010000  0  6G 3G 8G13G16G23G27
   -203642.63449   -158911.68647  23613241.8804   23613239.4894
       206.0634
   -819800.38649   -630981.16047  23317876.8104   23317874.2284
      1395.9694
    434212.04649    329620.53048  20458112.3644   20458107.5604
      -933.9064
   2394799.21049   1829103.92347  23969824.5444   23969820.8374
     -4421.6094
   1798815.33949   1372769.28648  21518681.2004   21518675.1494
     -3376.3124
   -121130.08549    -96188.68248  21781373.5834   21781369.3644
       128.6884
 04  9  8 20 54 30.0010000  0  6G 3G 8G13G16G23G27
   -206678.74249   -161277.45347  23612664.1304   23612661.8644
       198.5474
   -840719.59249   -647281.81047  23313896.1464   23313893.6814
      1392.9384
    448270.86649    340575.44848  20460787.8644   20460782.6654
      -940.9374
   2461154.40449   1880809.19847  23982451.0914   23982447.9744
     -4426.0474
   1849504.38349   1412267.20248  21528327.2164   21528321.2634
     -3382.5624
   -123036.27549    -97674.01348  21781010.7714   21781006.8764
       125.1564
 04  9  8 20 54 45.0010000  0  6G 3G 8G13G16G23G27
   -209597.54749   -163551.83247  23612109.2314   23612106.4974
       190.6414
   -861590.52549   -663544.81647  23309924.0214   23309922.2434
      1389.7814
    462438.38249    351615.07848  20463483.6694   20463478.8134
      -948.1254
   2527578.77349   1932568.40146  23995090.9974   23995087.8294
     -4430.6254
   1900289.23749   1451839.81248  21537991.5754   21537985.1964
     -3388.8594
   -124887.30349    -99116.35548  21780658.0604   21780654.3604
       121.5784
 04  9  8 20 55  0.0010000  0  6G 3G 8G13G16G23G27
   -212399.84649   -165735.43047  23611575.4814   23611573.1494
       182.8754
   -882414.24949   -679771.08347  23305961.7164   23305959.3924
      1386.5474
    476713.65449    362738.65748  20466200.0674   20466195.2744
      -955.4844
   2594071.06649   1984380.57447  24007744.7004   24007740.0874
     -4435.2194
   1951168.90349   1491486.28248  21547673.6924   21547667.2864
     -3395.2344
   -126684.31949   -100516.62148  21780315.9584   21780312.1924
       117.8594
 04  9  8 20 55 15.0010000  0  6G 3G 8G13G16G23G27
   -215083.81649   -167826.78047  23611064.4974   23611062.1144
       174.5634
   -903188.81149   -695959.02447  23302008.1304   23302005.8644
      1382.8284
    491098.53449    373947.65348  20468937.2084   20468932.9034
      -963.0474
   2660632.55249   2036246.63346  24020410.1774   24020406.7984
     -4440.2034
   2002144.78449   1531207.73448  21557374.1854   21557367.8994
     -3402.0474
   -128425.54349   -101873.40648  21779984.5444   21779980.9664
       113.8594
 04  9  8 20 55 30.0010000  0  6G 3G 8G13G16G23G27
   -217650.56449   -169826.83947  23610574.7474   23610573.8804
       167.2344
   -923915.84449   -712109.93247  23298063.6224   23298061.6104
      1380.3594
    505591.55749    385240.90948  20471695.7784   20471690.9814
      -969.7974
   2727261.30949   2088165.09646  24033089.9504   24033085.6534
     -4444.2194
   2053215.32049   1571002.93848  21567092.6924   21567086.5634
     -3407.7504
   -130112.64649   -103188.02748  21779663.7944   21779659.7314
       110.7504
 04  9  8 20 55 45.0010000  0  6G 3G 8G13G16G23G27
   -220099.65249   -171735.20447  23610110.0134   23610108.8174
       159.6724
   -944595.40649   -728223.84047  23294128.9114   23294127.2004
      1377.4064
    520193.00649    396618.65448  20474473.6924   20474469.3334
      -976.7344
   2793957.27149   2140135.94647  24045781.4974   24045777.7864
     -4448.3754
   2104380.75049   1610872.08848  21576828.9504   21576822.5404
     -3413.8754
   -131745.35149   -104460.24648  21779353.1854   21779349.0484
       107.3134
 04  9  8 20 56  0.0010000  0  6G 3G 8G13G16G23G27
   -222433.75749   -173553.94947  23609666.7164   23609663.8294
       151.4844
   -965230.04149   -744302.73947  23290202.5524   23290200.0364
      1373.8754
    534900.06349    408078.69848  20477272.5834   20477268.1494
      -984.2344
   2860717.04149   2192156.54046  24058485.8104   24058482.0834
     -4452.9374
   2155637.95149   1650812.75548  21586582.4894   21586576.5754
     -3420.4224
   -133326.79149   -105692.53148  21779052.1304   21779048.0564
       103.4224
 04  9  8 20 56 15.0010000  0  6G 3G 8G13G16G23G27
   -224646.75649   -175278.32647  23609245.6854   23609243.1384
       143.4064
   -985813.92849   -760342.11647  23286285.1304   23286282.9744
      1370.4534
    549718.80549    419625.77248  20480092.8024   20480087.7354
      -991.7974
   2927546.27249   2244231.23946  24071203.3564   24071199.0174
     -4457.6564
   2206992.76849   1690829.46748  21596354.9584   21596348.6104
     -3427.0004
   -134850.90949   -106880.14248  21778762.0754   21778758.5604
        99.5634
 04  9  8 20 56 30.0010000  0  6G 3G 8G13G16G23G27
   -226741.46649   -176910.57447  23608847.1224   23608844.0754
       135.7664
  -1006350.25249   -776344.42447  23282377.1064   23282374.6774
      1367.7034
    564646.13649    431257.45948  20482933.4584   20482928.3724
      -998.6094
   2994441.42649   2296357.25246  24083932.9974   24083929.0174
     -4461.6414
   2258441.84649   1730919.63848  21606145.5214   21606139.4194
     -3432.9224
   -136321.11149   -108025.75848  21778482.7084   21778478.6424
        96.3914
 04  9  8 20 56 45.0010000  0  6G 3G 8G13G16G23G27
   -228721.02849   -178453.06647  23608470.3884   23608466.9424
       128.0004
  -1026842.36049   -792312.29547  23278477.8804   23278475.7514
      1364.5474
    579678.96349    442971.35148  20485793.7474   20485788.7394
     -1005.8594
   3061398.79849   2348531.86946  24096674.1224   24096670.3764
     -4465.9064
   2309981.73849   1771080.58948  21615953.7554   21615947.5794
     -3439.1254
   -137740.72849   -109131.93348  21778212.1534   21778208.4464
        92.7814
 04  9  8 20 57  0.0010000  0  6G 3G 8G13G16G23G27
   -230581.95849   -179903.16547  23608115.5604   23608112.8644
       120.0784
  -1047286.98749   -808243.15647  23274587.3644   23274585.8134
      1361.4384
    594820.53149    454769.97248  20488675.2004   20488670.3604
     -1013.0784
   3128421.32949   2400757.15646  24109428.0524   24109424.5794
     -4470.4224
   2361615.81149   1811314.89948  21625779.6464   21625773.2244
     -3445.3594
   -139106.52949   -110196.19848  21777952.2474   21777948.5994
        89.3284
 04  9  8 20 57 15.0010000  0  6G 3G 8G13G16G23G27
   -232324.62649   -181261.04747  23607784.2314   23607780.9974
       112.4694
  -1067684.51449   -824137.32147  23270706.2394   23270703.1574
      1358.5004
    610070.34149    466652.94348  20491576.8414   20491572.1304
     -1020.1094
   3195507.89149   2453032.36346  24122193.4814   24122190.9274
     -4474.2344
   2413343.15049   1851621.91248  21635622.6854   21635616.1384
     -3451.3594
   -140419.22349   -111219.06448  21777702.4274   21777699.2744
        86.0004
 04  9  8 20 57 30.0010000  0  6G 3G 8G13G16G23G27
   -233952.06149   -182529.17847  23607474.3804   23607471.9234
       104.6094
  -1088038.56649   -839997.61847  23266832.9664   23266829.9194
      1355.5314
    625425.13449    478617.71448  20494499.0214   20494494.1344
     -1027.0944
   3262654.92549   2505354.70246  24134971.3564   24134968.3844
     -4478.4694
   2465160.32449   1891998.92148  21645483.0754   21645476.6884
     -3457.3914
   -141682.21749   -112203.20348  21777461.7554   21777458.7204
        82.5784
 04  9  8 20 57 45.0010000  0  6G 3G 8G13G16G23G27
   -235465.66649   -183708.58647  23607187.0054   23607184.4704
        96.7504
  -1108350.46849   -855825.03447  23262966.8104   23262964.7284
      1352.4384
    640883.53949    490663.22248  20497440.3104   20497435.7204
     -1034.3284
   3329860.51049   2557722.61046  24147760.1854   24147757.3454
     -4482.7034
   2517065.70349   1932444.65848  21655360.3334   21655354.2824
     -3463.5784
   -142897.19849   -113149.92848  21777230.6304   21777227.1494
        79.1254
 04  9  8 20 58  0.0010000  0  6G 3G 8G13G16G23G27
   -236860.67549   -184795.60647  23606921.1924   23606918.6964
        89.0314
  -1128615.58249   -871616.02147  23259111.7864   23259108.0244
      1349.4384
    656450.28449    502793.15548  20500402.9814   20500397.7634
     -1041.4064
   3397128.77148   2610139.50346  24160560.6774   24160557.7514
     -4486.6874
   2569063.66849   1972962.53948  21665255.1774   21665248.8564
     -3469.7194
   -144059.54149   -114055.64648  21777009.5524   21777006.1854
        75.7194
 04  9  8 20 58 15.0010000  0  6G 3G 8G13G16G23G27
   -238138.62449   -185791.38547  23606678.4974   23606675.6654
        81.1094
  -1148835.92549   -887372.13047  23255263.3884   23255260.1574
      1346.3134
    672123.28349    515005.87248  20503385.3024   20503380.4034
     -1048.5164
   3464457.42448   2662603.34746  24173372.7634   24173370.1424
     -4490.9064
   2621152.23249   2013551.03048  21675166.9114   21675160.6184
     -3475.6874
   -145171.29249   -114921.94348  21776798.2864   21776794.9624
        72.3134
 04  9  8 20 58 30.0010000  0  6G 3G 8G13G16G23G27
   -239303.92849   -186699.37347  23606455.3964   23606453.9384
        73.9064
  -1169016.08349   -903096.87647  23251423.3804   23251420.1774
      1343.9224
    687898.20249    527298.01748  20506387.4034   20506382.0754
     -1055.0474
   3531841.66248   2715110.48146  24186195.6854   24186193.3924
     -4494.2034
   2673326.74349   2054206.45748  21685095.9894   21685089.3214
     -3481.2034
   -146236.96849   -115752.34448  21776595.2314   21776591.9194
        69.5004
 04  9  8 20 58 45.0010000  0  6G 3G 8G13G16G23G27
   -240351.16449   -187515.43047  23606255.9814   23606253.8374
        65.8914
  -1189151.11449   -918786.50347  23247591.4194   23247588.7044
      1340.8284
    703780.07949    539673.50848  20509409.4504   20509404.2124
     -1062.2664
   3599286.17748   2767664.57546  24199030.0364   24199027.5324
     -4498.1724
   2725592.18749   2094932.76448  21695041.8724   21695035.6464
     -3487.3284
   -147251.67649   -116542.99748  21776402.3644   21776398.8374
        65.9694
 04  9  8 20 59  0.0010000  0  6G 3G 8G13G16G23G27
   -241278.55449   -188238.02147  23606079.1384   23606078.0994
        57.3444
  -1209239.18649   -934439.51947  23243768.2084   23243765.6494
      1337.1414
    719770.85349    552133.85348  20512452.4814   20512447.4154
     -1070.1724
   3666792.19449   2820266.70346  24211876.5524   24211873.8174
     -4502.8914
   2777950.07849   2135731.12048  21705005.1304   21704998.7354
     -3494.0944
   -148213.73749   -117292.64248  21776219.1774   21776215.2354
        61.8914
 04  9  8 20 59 15.0010000  0  6G 3G 8G13G16G23G27
   -242083.62049   -188865.32647  23605926.5674   23605925.2944
        49.7664
  -1229277.98249   -950054.17147  23239955.8564   23239952.4464
      1334.4384
    735873.02449    564680.98448  20515516.4974   20515512.0794
     -1076.8754
   3734361.72049   2872918.21446  24224735.6384   24224732.1694
     -4506.6414
   2830402.71149   2176603.25448  21714986.6534   21714980.1884
     -3499.6874
   -149120.93649   -117999.55948  21776047.1464   21776043.2084
        58.8444
 04  9  8 20 59 30.0010000  0  6G 3G 8G13G16G23G27
   -242771.25449   -189401.08747  23605795.7474   23605794.6224
        42.1254
  -1249272.86249   -965634.56847  23236151.0994   23236147.7354
      1331.7344
    752081.30049    577310.81548  20518600.7714   20518596.0404
     -1083.8444
   3801989.06849   2925614.82746  24237604.0214   24237601.6924
     -4510.2814
   2882944.66049   2217545.03548  21724985.1464   21724978.2784
     -3505.5314
   -149978.50649   -118667.77748  21775883.7394   21775879.8534
        55.6884
 04  9  8 20 59 45.0010000  0  6G 3G 8G13G16G23G27
   -243343.87249   -189847.27147  23605687.2864   23605685.3414
        34.3134
  -1269226.42249   -981182.79747  23232353.6694   23232350.2864
      1328.7814
    768393.03849    590021.26448  20521705.1064   20521700.0714
     -1090.9844
   3869671.27549   2978354.19646  24250483.7004   24250480.5914
     -4514.0944
   2935573.08549   2258554.20648  21734999.9894   21734993.4354
     -3511.5314
   -150789.27849   -119299.53448  21775729.2634   21775725.3334
        52.4694
 04  9  8 21  0  0.0010000  0  6G 3G 8G13G16G23G27
   -243797.46349   -190200.66247  23605600.6224   23605599.0954
        26.4844
  -1289134.83249   -996695.80047  23228565.4354   23228562.5794
      1325.9224
    784812.23049    602815.43248  20524829.3414   20524824.5244
     -1098.0004
   3937411.75949   3031138.98346  24263373.4814   24263371.8334
     -4517.7814
   2988291.64149   2299633.59348  21745032.0214   21745025.7714
     -3517.4224
   -151549.46849   -119891.87348  21775584.5284   21775581.0914
        49.1094
 04  9  8 21  0 15.0010000  0  6G 3G 8G13G16G23G27
   -244136.28349   -190464.66347  23605536.1694   23605533.9154
        18.8134
  -1309002.62549  -1012177.17247  23224783.9114   23224781.2714
      1323.2664
    801334.44749    615689.88448  20527973.6144   20527968.5954
     -1104.8284
   4005205.73749   3083965.40446  24276276.1614   24276272.4624
     -4521.2504
   3041095.83849   2340779.70048  21755080.3174   21755074.1494
     -3523.0624
   -152263.60249   -120448.34348  21775448.6854   21775444.9814
        46.1564
 04  9  8 21  0 30.0010000  0  6G 3G 8G13G16G23G27
   -244358.40449   -190637.72847  23605494.1064   23605491.7084
        10.7974
  -1328828.02049  -1027625.51047  23221011.3724   23221008.0604
      1320.1724
    817961.56149    628646.07548  20531137.5604   20531132.5794
     -1112.1254
   4073054.53649   3136834.49846  24289186.8964   24289183.4114
     -4525.1874
   3093987.33049   2381993.84648  21765144.9744   21765138.9664
     -3529.0944
   -152930.09449   -120967.68548  21775321.7244   21775318.2634
        42.7034
 04  9  8 21  0 45.0010000  0  6G 3G 8G13G16G23G27
   -244463.77449   -190719.82847  23605474.0054   23605471.2244
         3.0164
  -1348611.22949  -1043040.97947  23217246.9354   23217243.2044
      1317.3444
    834693.30549    641683.79348  20534321.4424   20534316.5674
     -1119.1094
   4140957.39449   3189745.86246  24302107.9354   24302104.3254
     -4528.6724
   3146965.59349   2423275.58048  21775226.3104   21775219.9584
     -3534.8754
   -153549.20149   -121450.10748  21775203.8174   21775200.4114
        39.5784
 04  9  8 21  1  0.0010000  0  6G 3G 8G13G16G23G27
   -244454.89749   -190712.87847  23605475.6854   23605473.2244
        -4.4694
  -1368354.97749  -1058425.68847  23213489.8964   23213486.5444
      1314.9064
    851527.16649    654801.09348  20537524.3644   20537520.0604
     -1125.8124
   4208911.49749   3242697.01646  24315039.3494   24315035.9704
     -4531.9844
   3200027.83149   2464622.76748  21785324.0134   21785317.1494
     -3540.4064
   -154123.62749   -121897.69848  21775094.6694   21775090.7514
        36.7034
 04  9  8 21  1 15.0010000  0  6G 3G 8G13G16G23G27
   -244327.52449   -190613.61047  23605499.4744   23605497.0134
       -12.5314
  -1388055.00649  -1073776.32747  23209740.5604   23209737.3414
      1311.7504
    868467.25249    668001.15648  20540748.5604   20540743.2864
     -1133.0004
   4276920.52049   3295691.01746  24327981.4034   24327977.5174
     -4536.0944
   3253178.02749   2506038.49148  21795438.3724   21795431.3764
     -3546.3754
   -154649.38849   -122307.37448  21774994.7554   21774990.8724
        33.3134
 04  9  8 21  1 30.0010000  0  6G 3G 8G13G16G23G27
   -244078.60649   -190419.63647  23605547.1924   23605544.1494
       -20.2034
  -1407708.84749  -1089090.99047  23206000.9274   23205997.6494
      1309.1884
    885516.42949    681286.22548  20543992.8414   20543987.7474
     -1139.7194
   4344986.70449   3348729.58946  24340933.8884   24340929.5054
     -4539.0474
   3306418.85049   2547524.82948  21805569.6064   21805562.7474
     -3551.8914
   -155123.80949   -122677.04248  21774904.0914   21774900.1264
        30.4694
 04  9  8 21  1 45.0010000  0  6G 3G 8G13G16G23G27
   -243714.56549   -190135.94247  23605615.0214   23605613.8644
       -28.0314
  -1427322.89949  -1104374.63247  23202268.1854   23202266.3024
      1306.4064
    902668.67849    694651.61448  20547256.7944   20547251.4154
     -1146.7664
   4413103.42249   3401807.46446  24353895.9424   24353891.4234
     -4542.6874
   3359743.64149   2589076.58948  21815716.6614   21815710.2864
     -3557.7034
   -155553.48149   -123011.84748  21774822.4814   21774818.6574
        27.2664
 04  9  8 21  2  0.0010000  0  6G 3G 8G13G16G23G27
   -243232.02349   -189759.95047  23605707.5284   23605705.7314
       -36.1724
  -1446894.24949  -1119625.01347  23198544.1774   23198541.5954
      1303.1724
    919926.63749    708099.37248  20550540.9894   20550535.8564
     -1154.2194
   4481273.10549   3454926.70746  24366868.4424   24366863.7514
     -4546.5784
   3413155.23249   2630695.98748  21825881.1064   21825874.2204
     -3563.7664
   -155935.39749   -123309.44148  21774749.4894   21774745.9424
        23.7194
 04  9  8 21  2 15.0010000  0  6G 3G 8G13G16G23G27
   -242624.64249   -189286.63347  23605823.6924   23605821.3604
       -44.5164
  -1466416.71749  -1134837.30447  23194829.0444   23194826.2434
      1300.0314
    937296.46449    721634.30648  20553845.8564   20553841.3564
     -1161.5944
   4549501.60649   3508091.74646  24379851.3564   24379847.7004
     -4550.3914
   3466659.70649   2672387.76748  21836062.3724   21836056.4274
     -3569.8754
   -156263.55349   -123565.14348  21774687.6464   21774683.3924
        20.3134
 04  9  8 21  2 30.0010000  0  6G 3G 8G13G16G23G27
   -241898.34749   -188720.69447  23605961.6774   23605959.9424
       -52.4844
  -1485896.21249  -1150016.09747  23191121.8024   23191118.6144
      1296.9844
    954772.31349    735251.83648  20557171.9274   20557166.9784
     -1168.7974
   4617782.63549   3561297.70746  24392844.3564   24392841.6534
     -4554.0004
   3520250.99449   2714147.19348  21846260.2474   21846254.2474
     -3575.8284
   -156543.93049   -123783.60748  21774634.0284   21774630.2004
        16.8284
 04  9  8 21  2 45.0010000  0  6G 3G 8G13G16G23G27
   -241049.37549   -188059.13447  23606123.5754   23606121.5214
       -60.4694
  -1505329.19549  -1165158.65947  23187424.3334   23187421.3964
      1294.2194
    972357.79449    748954.80648  20560517.9274   20560513.1464
     -1175.8444
   4686119.09849   3614546.81346  24405848.1694   24405846.1574
     -4557.3914
   3573932.44249   2755976.86148  21856475.7864   21856469.3174
     -3581.6874
   -156773.19149   -123962.25148  21774590.4114   21774586.8844
        13.7814
 04  9  8 21  3  0.0010000  0  6G 3G 8G13G16G23G27
   -240082.18049   -187305.45047  23606306.7944   23606304.4704
       -68.7814
  -1524720.50349  -1180268.75147  23183734.1464   23183730.8174
      1290.9844
    990048.30349    762739.61548  20563884.6854   20563879.5444
     -1183.1564
   4754506.09748   3667835.39546  24418862.8414   24418859.9354
     -4561.2194
   3627699.12049   2797872.96448  21866707.3414   21866701.1884
     -3587.5944
   -156956.04849   -124104.72148  21774555.3494   21774551.3134
        10.2814
 04  9  8 21  3 15.0010000  0  6G 3G 8G13G16G23G27
   -238994.08249   -186457.55247  23606514.3174   23606511.6144
       -76.3754
  -1544067.53349  -1195344.34347  23180052.9114   23180049.2634
      1288.6094
   1007846.41449    776608.28148  20567271.5054   20567266.1854
     -1189.9374
   4822945.77558   3721164.95356  24431884.9584   24431884.1184
     -4564.2664
   3681553.39449   2839837.32148  21876955.1064   21876948.9464
     -3592.9534
   -157090.16649   -124209.23548  21774530.0214   21774526.3214
         7.5944
 04  9  8 21  3 30.0010000  0  6G 3G 8G13G16G23G27
   -237786.93449   -185516.89547  23606744.6144   23606741.7674
       -84.3914
  -1563372.36749  -1210387.04347  23176378.6464   23176376.5404
      1285.7344
   1025750.09149    790559.19948  20570678.1614   20570673.3604
     -1197.0164
   4891435.47848   3774533.50445  24444918.5674   24444917.5094
     -4567.5944
   3735492.94649   2881868.12348  21887220.0674   21887213.5094
     -3598.7504
   -157177.65949   -124277.40148  21774513.1614   21774509.2354
         4.3914
 04  9  8 21  3 45.0010000  0  6G 3G 8G13G16G23G27
   -236461.57849   -184484.13447  23606996.2474   23606993.3764
       -92.3124
  -1582636.17549  -1225397.78547  23172713.8884   23172710.5174
      1282.7814
   1043758.31149    804591.56948  20574105.4354   20574099.7904
     -1204.1094
   4959973.86848   3827940.05145  24457961.3884   24457959.7084
     -4570.9694
   3789516.71449   2923964.53048  21897499.5284   21897493.8374
     -3604.4374
   -157219.60249   -124310.07948  21774504.9114   21774501.7514
         1.2034
 04  9  8 21  4  0.0010000  0  6G 3G 8G13G16G23G27
   -235015.30749   -183357.13747  23607271.8884   23607268.5674
      -100.4534
  -1601856.38149  -1240374.53247  23169055.9664   23169052.9894
      1279.9384
   1061873.91349    818707.62948  20577552.4114   20577547.8924
     -1211.2034
   5028563.22248   3881386.28546  24471014.7784   24471012.6144
     -4574.2664
   3843627.11549   2966128.48548  21907796.5524   21907790.4034
     -3610.2194
   -157213.54749   -124305.35548  21774506.6534   21774502.5284
        -1.9694
 04  9  8 21  4 15.0010000  0  6G 3G 8G13G16G23G27
   -233443.91549   -182132.68447  23607571.0444   23607566.9074
      -109.3594
  -1621029.15349  -1255314.32447  23165407.3104   23165404.0794
      1276.1724
   1080100.79449    832910.37748  20581021.0214   20581016.0404
     -1219.2664
   5097207.067 8                  24484077.403
     -4578.516
   3897827.91949   3008362.84748  21918110.7864   21918104.2514
     -3616.7974
   -157155.62649   -124260.20448  21774517.6854   21774513.7244
        -6.0164
 04  9  8 21  4 30.0010000  0  6G 3G 8G13G16G23G27
   -231754.10549   -180815.92347  23607891.8024   23607889.3064
      -116.4224
  -1640161.23249  -1270222.41247  23161766.0444   23161764.0674
      1274.2344
   1098432.24249    847194.62948  20584509.2164   20584504.6614
     -1225.5164
                                  24497147.817
     -4580.875
   3952112.23249   3050662.29548  21928441.0284   21928433.9664
     -3621.7034
   -157052.74649   -124180.03248  21774537.0284   21774533.2514
        -8.2194
 04  9  8 21  4 45.0010000  0  6G 3G 8G13G16G23G27
   -229943.74149   -179405.27347  23608236.6144   23608233.4504
      -124.9694
  -1659250.85849  -1285097.44447  23158133.7554   23158131.2784
      1270.9384
   1116870.27649    861561.92348  20588017.6534   20588013.2594
     -1233.1094
   5234638.314 8                  24510233.325
     -4584.594
   4006481.73449   3093028.12448  21938787.5444   21938780.8414
     -3627.7814
   -156903.06449   -124063.39348  21774565.9974   21774561.6184
       -11.8444
 04  9  8 21  5  0.0010000  0  6G 3G 8G13G16G23G27
   -228012.94149   -177900.72147  23608604.2314   23608601.6884
      -132.6874
  -1678298.27049  -1299939.54347  23154509.1854   23154506.7984
      1268.3914
   1135414.52349    876011.98848  20591546.7554   20591541.7434
     -1239.8284
   5303426.578 8                  24523321.021
     -4587.891
   4060936.08849   3135460.07548  21949149.0994   21949142.9274
     -3633.0944
   -156706.88349   -123910.51648  21774603.1854   21774599.2124
       -14.7034
 04  9  8 21  5 15.0010000  0  6G 3G 8G13G16G23G27
   -225961.65949   -176302.30447  23608993.7714   23608992.4384
      -140.5784
  -1697303.38049  -1314748.68647  23150892.0754   23150890.8994
      1265.7194
   1154064.74449    890544.62448  20595095.6534   20595090.6734
     -1246.7344
                                  24536417.661
     -4590.047
   4115474.93449   3177957.85048  21959527.3334   21959521.5094
     -3638.6094
   -156464.59349   -123721.71148  21774648.6774   21774645.5014
       -17.5474
 04  9  8 21  5 30.0010000  0  5G 3G 8G13G23G27
   -223791.35049   -174611.16047  23609407.3104   23609405.7244
      -148.8284
  -1716267.74649  -1329526.10147  23147283.3254   23147281.6494
      1262.7344
   1172819.62949    905158.80848  20598664.7314   20598660.0794
     -1254.0164
   4170096.56049   3220520.12648  21969921.7714   21969915.0914
     -3644.4534
   -156177.68549   -123498.14148  21774703.3804   21774699.9384
       -20.8754
 04  9  8 21  5 45.0010000  0  5G 3G 8G13G23G27
   -221495.84249   -172822.42247  23609844.1384   23609842.2044
      -157.4374
  -1735185.74249  -1344267.36647  23143683.8254   23143681.3494
      1259.3594
   1191685.18549    919859.25448  20602254.7164   20602249.7674
     -1261.6414
   4224806.59449   3263151.29348  21980332.9354   21980326.6304
     -3650.5004
   -155840.37849   -123235.28848  21774767.5834   21774763.9544
       -24.4224
 04  9  8 21  6  0.0010000  0  5G 3G 8G13G23G27
   -219076.02849   -170936.83447  23610305.0284   23610302.6424
      -165.4374
  -1754058.36849  -1358973.29147  23140092.3414   23140090.3684
      1256.7034
   1210660.35949    934645.09748  20605865.5604   20605860.5604
     -1268.6724
   4279603.94249   3305850.50148  21990760.3494   21990754.0484
     -3656.0474
   -155453.86149   -122934.10248  21774841.0914   21774837.7824
       -27.4064
 04  9  8 21  6 15.0010000  0  5G 3G 8G13G23G27
   -216535.51049   -168957.21147  23610787.4664   23610786.7904
      -173.5474
  -1772889.69749  -1373647.04447  23136508.4744   23136506.2554
      1254.0164
   1229741.24049    949513.31548  20609496.6384   20609491.6104
     -1275.6564
   4334484.52549   3348614.55848  22001204.4974   22001197.7864
     -3661.5164
   -155022.14349   -122597.70048  21774923.3884   21774919.7204
       -30.3444
 04  9  8 21  6 30.0010000  0  5G 3G 8G13G23G27
   -213870.09649   -166880.26847  23611294.6304   23611293.5244
      -181.5314
  -1791675.88249  -1388285.60447  23132934.0444   23132932.2904
      1251.2814
   1248932.04049    964467.17948  20613148.4894   20613143.1384
     -1282.7194
   4389452.29649   3391446.56248  22011664.5214   22011657.8534
     -3667.1254
   -154541.04949   -122222.81848  21775015.0604   21775011.3374
       -33.3754
 04  9  8 21  6 45.0010000  0  5G 3G 8G13G23G27
   -211084.02149   -164709.27847  23611825.8104   23611823.5444
      -189.7344
  -1810420.91549  -1402892.09747  23129366.6534   23129364.8064
      1248.3444
   1268228.48949    979503.37148  20616820.2784   20616815.5674
     -1289.8914
   4444502.76949   3434343.01448  22022139.6774   22022133.7714
     -3672.7194
   -154015.10849   -121812.98748  21775114.8494   21775111.2674
       -36.5314
 04  9  8 21  7  0.0010000  0  5G 3G 8G13G23G27
   -208173.56949   -162441.37947  23612379.3564   23612376.9234
      -198.2344
  -1829121.12949  -1417463.67347  23125808.2714   23125806.5834
      1245.1094
   1287634.04249    994624.56848  20620513.1384   20620508.7004
     -1297.4374
   4499639.24949   3477306.49248  22032631.7474   22032626.3884
     -3678.7034
   -153440.87249   -121365.52948  21775224.6854   21775220.3724
       -39.9844
 04  9  8 21  7 15.0010000  0  5G 3G 8G13G23G27
   -205138.57449   -160076.40047  23612956.8334   23612953.9424
      -206.6254
  -1847776.87649  -1432000.58747  23122258.2784   23122256.0834
      1242.1254
   1307148.76849   1009830.84548  20624226.9114   20624222.3334
     -1304.6874
   4554861.59549   3520336.85448  22043140.7084   22043134.6034
     -3684.4064
   -152818.59249   -120880.63848  21775342.9424   21775338.5604
       -43.2504
 04  9  8 21  7 30.0010000  0  5G 3G 8G13G23G27
   -201979.33049   -157614.65947  23613557.9114   23613555.4354
      -215.1724
  -1866388.54849  -1446503.17647  23118716.7084   23118714.0524
      1238.9224
   1326772.46149   1025122.02348  20627961.4274   20627956.1814
     -1312.3124
   4610169.17949   3563433.66348  22053664.8884   22053659.1574
     -3690.4374
   -152148.75249   -120358.67648  21775470.6924   21775466.0364
       -46.6254
 04  9  8 21  7 45.0010000  0  5G 3G 8G13G23G27
   -198697.80949   -155057.59447  23614181.7474   23614180.1774
      -223.1874
  -1884958.07549  -1460972.90347  23115183.2164   23115180.6854
      1236.2974
   1346502.89149   1040496.39548  20631715.5604   20631710.5754
     -1319.1724
   4665559.81149   3606595.17348  22064205.7554   22064199.4424
     -3695.7504
   -151433.42149   -119801.26148  21775606.3724   21775602.0674
       -49.4694
 04  9  8 21  8  0.0010000  0  5G 3G 8G13G23G27
   -195293.04649   -152404.49747  23614830.3334   23614827.6774
      -231.0004
  -1903484.85749  -1475409.35147  23111656.9034   23111654.6964
      1233.8594
   1366341.03249   1055954.68548  20635490.7004   20635485.6034
     -1326.0474
   4721034.07049   3649821.83148  22074762.5134   22074755.9464
     -3700.9844
   -150671.78849   -119207.77348  21775751.4114   21775747.3254
       -52.2344
 04  9  8 21  8 15.0010000  0  5G 3G 8G13G23G27
   -191763.68349   -149654.31747  23615501.4974   23615498.8174
      -239.6254
  -1921967.88449  -1489811.68047  23108140.2474   23108137.4974
      1230.5944
   1386287.96249   1071497.75148  20639286.1854   20639281.4034
     -1333.4844
   4776592.94749   3693114.45648  22085334.6924   22085328.4974
     -3706.8444
   -149862.96649   -118577.51548  21775905.1854   21775901.2004
       -55.6414
 04  9  8 21  8 30.0010000  0  5G 3G 8G13G23G27
   -188112.16249   -146808.94747  23616196.7554   23616193.8534
      -247.3914
  -1940409.90149  -1504182.06247  23104630.4034   23104627.6884
      1228.2344
   1406341.09749   1087123.56848  20643102.2714   20643097.6654
     -1340.2664
   4832233.55349   3736470.73848  22095922.9114   22095916.3374
     -3711.9064
   -149009.67349   -117912.60748  21776068.0214   21776063.5244
       -58.1564
 04  9  8 21  8 45.0010000  0  5G 3G 8G13G23G27
   -184335.41549   -143865.99647  23616915.3564   23616912.3494
      -256.1414
  -1958807.83249  -1518518.09447  23101129.3494   23101126.9114
      1224.9064
   1426503.36549   1102834.42348  20646939.0914   20646934.1104
     -1347.9844
   4887958.74149   3779892.95248  22106527.2164   22106520.5714
     -3718.0474
   -148109.11649   -117210.86848  21776238.5524   21776234.9664
       -61.7504
 04  9  8 21  9  0.0010000  0  5G 3G 8G13G23G27
   -180433.04949   -140825.21447  23617658.2244   23617655.4664
      -264.4224
  -1977161.29949  -1532819.50347  23097637.6304   23097633.5994
      1222.0314
   1446775.09049   1118630.57348  20650796.9814   20650791.7984
     -1355.2034
   4943768.45249   3823381.00848  22117147.3334   22117140.8254
     -3723.5474
   -147161.02449   -116472.08448  21776419.2474   21776415.0324
       -64.8124
 04  9  8 21  9 15.0010000  0  5G 3G 8G13G23G27
   -176401.15449   -137683.48147  23618425.3644   23618422.3764
      -273.1254
  -1995466.86249  -1547083.55947  23094153.5284   23094150.5524
      1218.8754
   1467160.05049   1134514.95048  20654676.1854   20654671.0214
     -1362.7814
   4999666.37249   3866937.80548  22127784.1614   22127778.2554
     -3729.4844
   -146161.83649   -115693.49648  21776610.0364   21776605.6104
       -68.2974
 04  9  8 21  9 30.0010000  0  5G 3G 8G13G23G27
   -172240.09349   -134441.09447  23619216.7164   23619214.4464
      -281.3124
  -2013724.99949  -1561310.65047  23090679.3804   23090676.2514
      1216.0944
   1487657.90449   1150487.30848  20658576.4274   20658571.7284
     -1369.8754
   5055651.88849   3910562.86148  22138437.7784   22138431.2944
     -3734.8914
   -145112.12349   -114875.53048  21776809.3254   21776805.3964
       -71.2664
 04  9  8 21  9 45.0010000  0  5G 3G 8G13G23G27
   -167957.09049   -131103.67847  23620032.2474   23620029.6494
      -289.5474
  -2031942.91549  -1575506.41547  23087212.5674   23087209.2824
      1213.2194
   1508261.25549   1166541.85848  20662497.3254   20662492.2164
     -1377.0004
   5111717.39349   3954250.24848  22149106.7864   22149100.4464
     -3740.3284
   -144019.25049   -114023.93448  21777017.3564   21777012.9894
       -74.2194
 04  9  8 21 10  0.0010000  0  5G 3G 8G13G23G27
   -163548.53049   -127668.44547  23620870.9274   23620868.7084
      -298.2664
  -2050117.35049  -1589668.29347  23083754.6224   23083751.0954
      1209.9844
   1528973.47549   1182681.23948  20666438.4354   20666433.5794
     -1384.6094
   5167866.08149   3998002.44448  22159791.6774   22159785.3534
     -3746.1564
   -142879.94449   -113136.15848  21777234.0444   21777229.7394
       -77.6414
 04  9  8 21 10 15.0010000  0  5G 3G 8G13G23G27
   -159011.21749   -124132.86147  23621734.6854   23621732.2354
      -306.8754
  -2068245.28349  -1603793.93347  23080304.5674   23080301.3994
      1207.0164
   1549797.65249   1198907.87548  20670401.1064   20670396.7714
     -1392.0164
   5224100.82549   4041821.70348  22170492.7164   22170486.7554
     -3751.8754
   -141691.29649   -112209.93548  21777460.3804   21777456.3454
       -80.8914
 04  9  8 21 10 30.0020000  0  5G 3G 8G13G23G27
   -154345.52149   -120497.23247  23622623.0334   23622620.1194
      -315.3754
  -2086328.62949  -1617884.83047  23076863.8934   23076860.1194
      1203.7814
   1570734.43149   1215222.23848  20674385.6044   20674380.7174
     -1399.5314
   5280424.49449   4085710.26148  22181210.5494   22181205.1664
     -3757.5944
   -140454.15249   -111245.92148  21777695.4244   21777691.5614
       -84.1874
 04  9  8 21 10 45.0020000  0  5G 3G 8G13G23G27
   -149558.03549   -116766.71947  23623533.1354   23623531.1934
      -323.3754
  -2104371.34449  -1631944.07147  23073430.0104   23073427.1074
      1201.3594
   1591774.95149   1231617.45048  20678389.5804   20678384.9904
     -1406.3284
   5336823.17449   4129657.24648  22191943.1974   22191937.3574
     -3762.6874
   -139174.70549   -110248.95448  21777938.8774   21777935.3964
       -86.8284
 04  9  8 21 11  0.0020000  0  5G 3G 8G13G23G27
   -144645.25349   -112938.55647  23624468.7364   23624466.4634
      -331.7194
  -2122371.43649  -1645970.09747  23070004.5574   23070001.5494
      1198.5314
   1612923.71549   1248097.00548  20682413.6584   20682409.0024
     -1413.4844
   5393303.54949   4173667.91148  22202691.0414   22202685.2294
     -3768.0784
   -137850.13149   -109216.80148  21778191.2294   21778187.0764
       -89.7814
 04  9  8 21 11 15.0020000  0  5G 3G 8G13G23G27
   -139603.49249   -109009.88047  23625427.2294   23625425.9984
      -340.4694
  -2140325.64949  -1659960.36047  23066588.0804   23066585.0294
      1195.3914
   1634184.23149   1264663.63548  20686459.5724   20686454.7324
     -1421.1414
   5449868.92349   4217744.81548  22213455.3694   22213449.4244
     -3773.8754
   -136476.85249   -108146.70948  21778452.9794   21778448.6004
       -93.2194
 04  9  8 21 11 30.0020000  0  5G 3G 8G13G23G27
   -134432.39549   -104980.44747  23626412.0964   23626410.5644
      -348.7194
  -2158233.58149  -1673914.58247  23063180.2214   23063177.1234
      1192.6724
   1655556.92249   1281317.67648  20690526.6974   20690521.4324
     -1428.3124
   5506519.57549   4261888.14148  22224235.2524   22224229.2754
     -3779.2664
   -135054.73749   -107038.56248  21778722.9324   21778719.3894
       -96.1724
 04  9  8 21 11 45.0020000  0  5G 3G 8G13G23G27
   -129135.40549   -100852.91047  23627419.0024   23627417.8654
      -357.2664
  -2176098.90949  -1687835.60247  23059780.2444   23059777.7364
      1189.7034
   1677038.00749   1298056.18448  20694614.0024   20694609.4124
     -1435.5944
   5563251.44849   4306094.77848  22235030.4084   22235025.0884
     -3784.7194
   -133587.47249   -105895.23248  21779002.3074   21778998.7254
       -99.2664
 04  9  8 21 12  0.0020000  0  5G 3G 8G13G23G27
   -123712.73249    -96627.41347  23628450.9084   23628448.9434
      -365.3754
  -2193921.96649  -1701723.69247  23056388.7684   23056386.1544
      1187.0784
   1698627.44749   1314879.11148  20698722.6434   20698718.0144
     -1442.6094
   5620064.30249   4350364.50948  22245842.1194   22245836.1664
     -3789.9064
   -132075.41149   -104716.99248  21779289.9084   21779286.2754
      -102.0004
 04  9  8 21 12 15.0020000  0  5G 3G 8G13G23G27
   -118162.20749    -92302.30447  23629507.8934   23629504.6934
      -374.1724
  -2211700.90649  -1715577.40047  23053005.6194   23053002.8224
      1183.9844
   1720327.17149   1331787.98848  20702852.1664   20702847.2444
     -1450.2344
   5676959.67749   4394698.53248  22256669.1504   22256662.8934
     -3795.6564
   -130516.79649   -103502.49248  21779586.7134   21779582.6974
      -105.3444
 04  9  8 21 12 30.0020000  0  5G 3G 8G13G23G27
   -112488.15449    -87880.95447  23630586.6114   23630584.5924
      -382.8284
  -2229440.33249  -1729400.31247  23049629.5254   23049627.3654
      1181.0004
   1742132.74649   1348779.33548  20707001.8694   20706996.2524
     -1457.6874
   5733933.15849   4439093.43247  22267509.9944   22267504.5884
     -3801.2814
   -128916.06249   -102255.16448  21779891.8304   21779887.4554
      -108.4694
 04  9  8 21 12 45.0020000  0  5G 3G 8G13G23G27
   -106684.54949    -83358.63247  23631691.8614   23631687.9754
      -391.2194
  -2247134.10049  -1743187.64147  23046263.1584   23046259.6114
      1178.0944
   1764049.97649   1365857.69548  20711172.1974   20711167.1704
     -1464.8444
   5790990.20049   4483553.45547  22278368.5964   22278362.3574
     -3806.5314
   -127267.42249   -100970.51448  21780205.1504   21780201.0144
      -111.4224
 04  9  8 21 13  0.0020000  0  5G 3G 8G13G23G27
   -100753.65449    -78737.14547  23632820.4474   23632816.7604
      -399.5944
  -2264784.54549  -1756941.21747  23042904.0334   23042900.6274
      1175.2974
   1786076.63849   1383021.33048  20715364.0414   20715358.9904
     -1471.9844
   5848128.47349   4528076.77548  22289241.6974   22289235.0724
     -3811.7814
   -125573.34749    -99650.44748  21780527.4634   21780522.8574
      -114.3444
 04  9  8 21 13 15.0020000  0  5G 3G 8G13G23G27
    -94697.59049    -74018.10147  23633972.4474   23633968.9754
      -408.3594
  -2282394.13749  -1770662.95647  23039552.8614   23039550.1114
      1172.2194
   1808210.38449   1400268.39848  20719575.7914   20719571.3654
     -1479.5474
   5905345.54349   4572661.47248  22300129.7604   22300123.8114
     -3817.4844
   -123836.21549    -98296.82948  21780857.9634   21780854.2404
      -117.6094
 04  9  8 21 13 30.0020000  0  5G 3G 8G13G23G27
    -88510.26549    -69196.78347  23635149.3074   23635145.7484
      -416.5784
  -2299957.06649  -1784348.35147  23036210.9714   23036208.5614
      1169.5784
   1830457.32249   1417603.66848  20723809.0414   20723804.8694
     -1486.6254
   5962647.06649   4617311.97747  22311033.7364   22311027.2484
     -3822.6874
   -122050.19349    -96905.13348  21781197.2524   21781193.6824
      -120.4224
 04  9  8 21 13 45.0020000  0  5G 3G 8G13G23G27
    -82196.42349    -64276.93947  23636351.0724   23636348.5334
      -425.1874
  -2317478.07349  -1798001.04747  23032876.7294   23032873.3264
      1166.6254
   1852812.48649   1435023.26548  20728063.2364   20728058.7294
     -1494.0314
   6020027.93649   4662024.33047  22321952.5024   22321946.9004
     -3828.0474
   -120220.31149    -95479.23748  21781545.8304   21781542.1504
      -123.4844
 04  9  8 21 14  0.0020000  0  5G 3G 8G13G23G27
    -75752.08149    -59255.35547  23637577.4714   23637575.3934
      -434.0474
  -2334953.33149  -1811618.11747  23029551.6584   23029548.2444
      1163.4224
   1875279.78349   1452530.24848  20732338.8224   20732333.9554
     -1501.6874
   6077491.92949   4706801.43747  22332887.7994   22332882.2914
     -3833.7194
   -118342.71449    -94016.18148  21781903.0884   21781899.0724
      -126.8444
 04  9  8 21 14 15.0020000  0  5G 3G 8G13G23G27
    -69178.89849    -54133.39447  23638829.7364   23638827.0454
      -442.2194
  -2352384.75249  -1825201.01647  23026233.7524   23026231.9044
      1160.8134
   1897857.32349   1470123.13048  20736635.0104   20736630.2524
     -1508.5164
   6135037.10149   4751641.80147  22343838.4004   22343832.6584
     -3838.6724
   -116419.22849    -92517.35248  21782268.8854   21782265.4284
      -129.4694
 04  9  8 21 14 30.0020000  0  5G 3G 8G13G23G27
    -62476.20949    -48910.49147  23640104.0024   23640102.5454
      -451.3914
  -2369771.74949  -1838749.29647  23022925.5724   23022922.4594
      1157.4844
   1920545.88649   1487802.53548  20740952.4004   20740947.2834
     -1516.5004
   6192663.69549   4796545.63247  22354804.0024   22354798.6044
     -3844.6874
   -114449.47549    -90982.47548  21782643.9474   21782640.6194
      -133.1094
 04  9  8 21 14 45.0020000  0  5G 3G 8G13G23G27
    -55645.62649    -43587.91847  23641403.6194   23641402.1624
      -459.8594
  -2387116.09449  -1852264.35447  23019625.3544   23019622.5214
      1154.5314
   1943343.73449   1505567.07848  20745290.4714   20745285.8184
     -1523.7814
   6250369.72649   4841511.34047  22365785.8774   22365779.6664
     -3849.9844
   -112435.21049    -89412.91948  21783027.6114   21783023.7484
      -136.1094
 04  9  8 21 15  0.0020000  0  5G 3G 8G13G23G27
    -48685.51949    -38164.44747  23642729.5724   23642726.4944
      -468.2814
  -2404416.48949  -1865745.15147  23016333.1744   23016330.5104
      1151.9384
   1966252.23649   1523417.85448  20749649.9864   20749645.3304
     -1530.8914
   6308156.53349   4886540.00947  22376782.2834   22376775.5534
     -3855.1564
   -110375.28549    -87807.77948  21783419.5494   21783415.9434
      -138.8124
 04  9  8 21 15 15.0020000  0  5G 3G 8G13G23G27
    -41597.07949    -32640.98447  23644077.5574   23644075.2524
      -477.1564
  -2421674.13249  -1879192.65547  23013048.5494   23013045.7214
      1148.8284
   1989270.27849   1541353.99248  20754030.4394   20754025.6194
     -1538.3914
   6366022.78849   4931630.57847  22387793.4394   22387787.4904
     -3860.6094
   -108270.67449    -86167.81148  21783819.7444   21783816.2954
      -142.0314
 04  9  8 21 15 30.0020000  0  5G 3G 8G13G23G27
    -34372.37249    -27011.34547  23645453.0724   23645448.6664
      -485.6724
  -2438881.00749  -1892600.59247  23009774.3544   23009772.1824
      1145.9844
   2012405.78849   1559381.66048  20758432.8384   20758427.6314
     -1545.7194
   6423976.17749   4976789.04247  22398821.7994   22398814.9434
     -3865.8594
   -106113.76949    -84487.10748  21784230.3304   21784226.5614
      -144.9224
 04  9  8 21 15 45.0020000  0  5G 3G 8G13G23G27
    -27021.13149    -21283.08847  23646850.5804   23646847.8614
      -494.7034
  -2456047.31249  -1905976.91547  23006507.8614   23006505.0294
      1142.6254
   2035648.71049   1577493.02148  20762855.8224   20762850.8694
     -1553.5164
   6482006.56249   5022007.51047  22409864.4794   22409858.1824
     -3871.7194
   -103914.59349    -82773.45648  21784649.0024   21784645.5254
      -148.3914
 04  9  8 21 16  0.0020000  0  5G 3G 8G13G23G27
    -19536.52849    -15450.93747  23648275.2684   23648271.8224
      -503.2664
  -2473166.39549  -1919316.44547  23003250.3694   23003248.0214
      1139.8914
   2059005.74049   1595693.30448  20767300.4324   20767295.2404
     -1560.7344
   6540120.33149   5067290.93647  22420922.9634   22420916.9794
     -3876.8284
   -101666.61649    -81021.79148  21785076.7754   21785073.3654
      -151.2974
 04  9  8 21 16 15.0020000  0  5G 3G 8G13G23G27
    -11921.08449     -9516.79947  23649723.7684   23649721.0924
      -511.9694
  -2490240.90249  -1932621.23047  23000000.9864   22999998.6544
      1136.9534
   2082474.32249   1613980.50948  20771766.6194   20771761.8224
     -1568.1564
   6598314.68449   5112637.16647  22431997.2754   22431991.4474
     -3882.1564
    -99372.45149    -79234.12348  21785513.1584   21785509.8544
      -154.3124
 04  9  8 21 16 30.0020000  0  5G 3G 8G13G23G27
     -4169.74549     -3476.78747  23651198.7914   23651196.0724
      -521.0314
  -2507265.87649  -1945887.42847  22996761.6664   22996758.9284
      1133.6724
   2106059.47749   1632358.54948  20776254.5574   20776249.9714
     -1575.9064
   6656594.42649   5158049.93247  22443087.2524   22443080.7994
     -3887.9064
    -97027.34449    -77406.77048  21785959.3384   21785955.7214
      -157.7194
 04  9  8 21 16 45.0020000  0  6G 3G 8G13G19G23G27
      3710.13749      2663.35647  23652698.7684   23652696.7444
      -529.6564
  -2524248.83449  -1959120.88747  22993529.5024   22993525.7954
      1130.7194
   2129753.80649   1650821.65448  20780763.2134   20780758.8854
     -1583.2814
    -69734.65219                  24450941.385
      1225.047
   6714951.94349   5203523.27247  22454192.2134   22454186.1624
     -3893.1254
    -94638.69449    -75545.48748  21786413.8304   21786410.0964
      -160.8284
 04  9  8 21 17  0.0020000  0  6G 3G 8G13G19G23G27
     11721.72149      8906.18947  23654222.8544   23654221.7254
      -538.7814
  -2541186.74749  -1972319.22647  22990306.5334   22990302.6704
      1127.4384
   2153560.38349   1669372.23248  20785293.4004   20785288.7994
     -1591.1874
    -88082.641 8                  24447448.479
      1221.125
   6773390.03149   5249059.42547  22465313.1974   22465306.7644
     -3898.8124
    -92203.64749    -73648.03548  21786877.5494   21786873.6664
      -164.1874
 04  9  8 21 17 15.0020000  0  6G 3G 8G13G19G23G27
     19865.09249     15251.70147  23655773.0964   23655771.5214
      -547.2504
  -2558079.49949  -1985482.38747  22987091.4714   22987088.5964
      1124.6884
   2177479.07549   1688010.16048  20789845.2364   20789840.4284
     -1598.2974
   -106375.079 8                  24443968.455
      1217.641
   6831908.66049   5294658.35147  22476449.3074   22476443.0144
     -3903.8754
    -89722.26149    -71714.48548  21787349.4864   21787345.8854
      -166.9694
 04  9  8 21 17 30.0020000  0  6G 3G 8G13G19G23G27
     28135.39549     21696.07547  23657346.7364   23657344.8504
      -555.7974
  -2574932.43049  -1998614.51847  22983884.5414   22983881.5884
      1122.0634
   2201504.98049   1706731.63048  20794417.2994   20794412.6314
     -1605.4694
   -124616.749 8                  24440497.213
      1214.125
   6890502.47349   5340315.84247  22487599.2834   22487593.0924
     -3908.8914
    -87199.52849    -69748.72648  21787829.5644   21787825.7564
      -169.7194
 04  9  8 21 17 45.0020000  0  6G 3G 8G13G19G23G27
     36542.94849     28247.45847  23658947.5414   23658944.6234
      -565.0784
  -2591735.28249  -2011707.63347  22980687.3144   22980684.1894
      1118.7034
   2225648.49149   1725544.75248  20799011.5494   20799006.8384
     -1613.3124
   -142797.200 8                  24437035.955
      1210.016
   6949181.51649   5386039.76047  22498764.9864   22498758.9594
     -3914.5314
    -84625.58449    -67743.04548  21788318.9714   21788315.8344
      -173.1414
 04  9  8 21 18  0.0020000  0  6G 3G 8G13G19G23G27
     45079.75349     34899.52747  23660570.9794   23660569.1704
      -573.4694
  -2608495.99149  -2024767.90647  22977497.4554   22977494.2644
      1115.9534
   2249901.18849   1744442.96348  20803626.5724   20803621.3814
     -1620.4844
                                  24433585.018
      1206.609
   7007937.43549   5431823.58847  22509945.8934   22509939.8814
     -3919.6724
    -82008.34949    -65703.64048  21788817.0184   21788813.2404
      -175.9224
 04  9  8 21 18 15.0020000  0  6G 3G 8G13G19G23G27
     53745.00449     41651.66347  23662220.3074   23662218.4204
      -582.2344
  -2625215.83249  -2037796.32447  22974315.7684   22974312.0024
      1113.0784
   2274262.13249   1763425.50248  20808262.5964   20808257.3304
     -1627.9374
   -178998.34518                  24430148.291
      1202.906
   7066769.05849   5477666.37147  22521141.0254   22521135.2134
     -3924.8284
    -79349.05049    -63631.46748  21789323.3304   21789320.1974
      -178.9224
 04  9  8 21 18 30.0020000  0  6G 3G 8G13G19G23G27
     62542.26949     48506.71047  23663894.3544   23663893.0764
      -590.7814
  -2641891.18549  -2050790.07947  22971142.9944   22971139.7914
      1110.3134
   2298735.07349   1782495.32348  20812919.2134   20812914.9004
     -1635.2344
   -197015.96618                  24426721.229
      1199.422
   7125679.77849   5523570.80147  22532351.9164   22532345.7604
     -3929.9694
    -76644.20749    -61523.78848  21789838.3854   21789834.2404
      -181.7504
 04  9  8 21 18 45.0020000  0  6G 3G 8G13G19G23G27
     71469.91449     55463.34247  23665593.6504   23665591.1394
      -599.7814
  -2658523.68949  -2063750.45847  22967977.6664   22967973.4824
      1107.1414
   2323318.23149   1801651.02748  20817597.9714   20817593.0144
     -1642.8444
   -214978.373 8                  24423304.869
      1195.344
   7184667.64149   5569535.35447  22543576.3694   22543570.8894
     -3935.3914
    -73895.62649    -59382.03648  21790361.3304   21790357.4634
      -184.9224
 04  9  8 21 19  0.0020000  0  6G 3G 8G13G19G23G27
     80530.84949     62523.81547  23667317.4474   23667315.4044
      -608.3914
  -2675110.66549  -2076675.34147  22964821.4554   22964817.8384
      1104.3594
   2348014.39649   1820894.78548  20822296.9554   20822292.0924
     -1650.1254
   -232882.606 8                  24419896.393
      1191.984
   7243735.25749   5615562.03747  22554816.6044   22554811.4244
     -3940.4534
    -71100.63049    -57204.11348  21790893.1664   21790888.8344
      -187.7034
 04  9  8 21 19 15.0020000  0  5G 3G 8G13G23G27
     89724.78349     69687.90247  23669067.1664   23669064.3894
      -617.4224
  -2691652.55349  -2089565.10647  22961673.5184   22961670.0334
      1101.1724
   2372823.03249   1840226.17848  20827018.2914   20827013.3504
     -1657.7194
   7302882.03049   5661650.39547  22566071.8074   22566066.3304
     -3945.8594
    -68259.64149    -54990.34848  21791433.5494   21791429.3074
      -191.0624
 04  9  8 21 19 30.0020000  0  5G 3G 8G13G23G27
     99055.24549     76958.41747  23670842.6504   23670839.8964
      -626.7504
  -2708145.99049  -2102417.11147  22958534.9084   22958531.6864
      1097.8284
   2397747.59849   1859647.91548  20831760.9634   20831756.2444
     -1665.6414
   7362111.10349   5707802.89247  22577343.1974   22577337.3144
     -3951.3914
    -65369.46149    -52738.27048  21791983.9714   21791979.4794
      -194.4064
 04  9  8 21 19 45.0020000  0  5G 3G 8G13G23G27
    108517.34549     84331.48947  23672642.9394   23672640.1824
      -635.0474
  -2724595.96849  -2115235.24347  22955404.3144   22955401.4364
      1095.3754
   2422783.26149   1879156.22548  20836524.9554   20836520.4674
     -1672.5164
   7421417.46949   5754015.63547  22588629.0024   22588623.4244
     -3956.0944
    -62435.03849    -50451.68748  21792541.9164   21792537.7914
      -196.8284
 04  9  8 21 20  0.0020000  0  5G 3G 8G13G23G27
    118109.36449     91805.79347  23674467.4084   23674465.3774
      -643.7664
  -2741004.35549  -2128020.97547  22952281.4864   22952278.9944
      1092.5164
   2447928.33349   1898749.77848  20841310.1504   20841305.6894
     -1679.9694
   7480799.12549   5800287.01147  22599928.5574   22599922.7444
     -3961.2344
    -59458.11949    -48132.01048  21793108.3544   21793104.3854
      -199.8444
 04  9  8 21 20 15.0020000  0  6G 3G 8G13G19G23G27
    127830.05249     99380.35547  23676318.0414   23676316.0684
      -652.2974
  -2757372.61749  -2140775.44647  22949166.9244   22949163.8814
      1089.8914
   2473181.32749   1918427.43148  20846115.2914   20846110.4634
     -1687.0784
    -23963.14718                  24403024.057
      1172.719
   7540254.39549   5846615.75947  22611242.9554   22611236.5214
     -3966.0784
    -56440.35049    -45780.49648  21793682.6194   21793678.5334
      -202.5004
 04  9  8 21 20 30.0020000  0  6G 3G 8G13G19G23G27
    137685.98849    107060.31747  23678192.8694   23678190.7254
      -661.6414
  -2773694.18649  -2153493.52747  22946060.4554   22946057.7094
      1086.5474
   2498548.75349   1938194.24748  20850942.5644   20850938.5254
     -1695.0004
    -41518.08648   -205782.87156  24399685.5414   24399682.6894
      1168.6094
   7599789.65749   5893006.87447  22622571.5334   22622565.9634
     -3971.7814
    -53375.22049    -43392.08448  21794266.0024   21794261.9754
      -205.9224
 04  9  8 21 20 45.0020000  0  6G 3G 8G13G19G23G27
    147675.17649    114844.09547  23680094.7684   23680092.0374
      -670.6874
  -2789971.20749  -2166176.90947  22942963.3384   22942961.1624
      1083.3914
   2524028.51049   1958048.59048  20855791.6664   20855786.8544
     -1702.6874
    -59013.45348   -219415.61746  24396355.0184   24396352.7874
      1164.1564
   7659402.68149   5939458.53447  22633915.8934   22633909.7644
     -3977.0944
    -50264.97049    -40968.51748  21794858.1114   21794854.2754
      -209.0784
 04  9  8 21 21  0.0020000  0  6G 3G 8G13G19G23G27
    157797.02749    122731.26147  23682020.6274   23682018.0964
      -679.2194
  -2806204.44849  -2178826.17047  22939873.7684   22939871.6934
      1080.7194
   2549619.86349   1977989.90148  20860661.4864   20860656.3894
     -1709.8444
    -76449.66448   -233002.25846  24393035.7754   24393034.2324
      1160.5164
   7719092.41549   5985969.98847  22645274.7524   22645268.8384
     -3981.8914
    -47110.40549    -38510.41148  21795458.7684   21795454.5534
      -211.8754
 04  9  8 21 21 15.0020000  0  6G 3G 8G13G19G23G27
    168053.19649    130723.09747  23683972.1044   23683969.5144
      -688.3914
  -2822392.25849  -2191440.02947  22936793.8774   22936791.6434
      1077.5634
   2575324.52549   1998019.50648  20865552.8074   20865548.1664
     -1717.5164
                                  24389729.5644   24389727.6464
      1155.8284
   7778860.22849   6032542.28147  22656648.2994   22656642.2254
     -3987.2194
    -43909.89549    -36016.50948  21796067.3614   21796064.1464
      -215.0474
 04  9  8 21 21 30.0020000  0  6G 3G 8G13G19G23G27
    178442.57649    138818.71147  23685948.5184   23685946.9984
      -696.8754
  -2838536.10549  -2204019.62947  22933722.0104   22933719.3574
      1074.9844
   2601141.10749   2018136.31348  20870465.6044   20870459.9864
     -1724.6254
   -111139.43549   -260033.15246  24386435.0334   24386432.0294
      1152.3914
   7838704.77449   6079174.37247  22668036.3774   22668030.3224
     -3992.0784
    -40664.94749    -33487.95948  21796684.8144   21796681.5964
      -217.5784
 04  9  8 21 21 45.0020000  0  6G 3G 8G13G19G23G27
    188969.17849    147021.25747  23687952.8464   23687950.2564
      -706.5944
  -2854631.84449  -2216561.74647  22930659.0254   22930656.6784
      1071.2664
   2627073.62249   2038343.47848  20875400.2294   20875395.4044
     -1732.8284
   -128389.81048   -273475.02346  24383152.2214   24383149.0764
      1147.9534
   7898629.69749   6125869.08247  22679439.0884   22679433.9364
     -3997.8914
    -37371.58749    -30921.71448  21797311.6504   21797307.9204
      -221.3284
 04  9  8 21 22  0.0020000  0  5G 3G 8G13G23G27
    199632.16849    155330.09447  23689981.3774   23689978.7484
      -715.0944
  -2870680.52249  -2229067.19347  22927604.8934   22927602.7564
      1068.6094
   2653121.31949   2058640.38548  20880356.9004   20880352.4474
     -1740.1094
   7958634.11549   6172625.76547  22690857.5334   22690852.3184
     -4002.6724
    -34030.73749    -28318.44348  21797947.4794   21797943.4794
      -224.0164
 04  9  8 21 22 15.0020000  0  5G 3G 8G13G23G27
    210428.12349    163742.53947  23692035.5184   23692033.4244
      -724.2194
  -2886685.64849  -2241538.69447  22924559.5334   22924556.9714
      1065.5784
   2679280.52749   2079024.16848  20885335.1584   20885330.0764
     -1747.7034
   8018714.26849   6219441.40547  22702290.4944   22702285.7134
     -4007.9064
    -30646.05649    -25681.03448  21798591.3934   21798587.2874
      -227.1564
 04  9  8 21 22 30.0020000  0  5G 3G 8G13G23G27
    221358.52649    172259.74647  23694116.4244   23694112.8464
      -733.2504
  -2902646.01949  -2253975.32547  22921522.3614   22921519.8894
      1062.5004
   2705552.53949   2099495.86148  20890334.4164   20890329.6624
     -1755.2974
   8078871.01749   6266316.76847  22713738.6044   22713732.9164
     -4013.0784
    -27216.33549    -23008.51848  21799244.0024   21799239.4004
      -230.1724
 04  9  8 21 22 45.0020000  0  5G 3G 8G13G23G27
    232420.43549    180879.42447  23696221.3464   23696218.7294
      -741.7194
  -2918564.30649  -2266379.17647  22918493.3224   22918490.7644
      1059.9384
   2731934.55249   2120053.27448  20895354.7444   20895350.1464
     -1762.3754
   8139101.40849   6313249.51147  22725200.3074   22725193.8694
     -4017.7034
    -23744.55949    -20303.22548  21799904.4394   21799900.2604
      -232.7664
 04  9  8 21 23  0.0020000  0  5G 3G 8G13G23G27
    243616.11049    189603.34047  23698351.7834   23698349.6584
      -750.5474
  -2934438.61049  -2278748.74947  22915472.2914   22915469.6974
      1057.0784
   2758428.69549   2140698.04348  20900396.4714   20900391.4324
     -1769.8444
   8199407.46249   6360241.20447  22736676.2524   22736669.7754
     -4022.6564
    -20228.55749    -17563.48848  21800573.9554   21800569.9164
      -235.6094
 04  9  8 21 23 15.0020000  0  5G 3G 8G13G23G27
    254943.08349    198429.55447  23700507.0254   23700503.9594
      -759.1874
  -2950271.72149  -2291086.21747  22912459.3544   22912457.0144
      1054.4694
   2785032.38649   2161428.19048  20905458.5334   20905453.6074
     -1776.9224
   8259786.43149   6407289.74647  22748165.6894   22748159.4824
     -4027.3444
    -16671.07849    -14791.41848  21801250.3464   21801245.8894
      -238.2504
 04  9  8 21 23 30.0020000  0  6G 3G 8G13G19G23G27
    266407.90649    207363.19647  23702688.7444   23702685.2994
      -769.3444
  -2966056.91149  -2303386.36247  22909455.8614   22909452.7484
      1050.3134
   2811752.13549   2182248.75048  20910543.5414   20910538.1894
     -1785.6414
    -13674.96018                  24360504.057
      1118.344
   8320244.55949   6454399.93647  22759670.5964   22759664.6934
     -4033.6874
    -13065.74549    -11982.08448  21801936.7134   21801932.1314
      -242.4374
 04  9  8 21 23 45.0020000  0  6G 3G 8G13G19G23G27
    278012.03549    216405.38247  23704896.4244   23704894.0414
      -778.0314
  -2981793.02249  -2315648.25247  22906461.1664   22906458.1544
      1047.7194
   2838589.29949   2203160.81848  20915650.3694   20915645.2444
     -1792.7974
    -30422.20547   -303394.65656  24357316.6824   24357312.1114
      1114.5944
   8380782.81149   6501572.57947  22771190.5574   22771184.5214
     -4038.2504
     -9411.21649     -9134.39148  21802632.3144   21802627.8264
      -244.9694
 04  9  8 21 24  0.0020000  0  5G 3G 8G13G23G27
    289752.55949    225553.86047  23707130.6274   23707128.4284
      -787.2034
  -2997483.06349  -2327874.23747  22903475.4634   22903472.3224
      1044.5634
   2865540.78449   2224161.97448  20920779.5254   20920774.8144
     -1800.5004
   8441398.16349   6548805.30447  22782725.1894   22782719.1974
     -4043.5164
     -5710.56849     -6250.76048  21803336.4554   21803332.0414
      -248.1724
 04  9  8 21 24 15.0020000  0  5G 3G 8G13G23G27
    301629.09849    234808.30147  23709390.5964   23709387.8224
      -795.9694
  -3013127.44049  -2340064.63347  22900498.5724   22900495.7134
      1041.7664
   2892606.03949   2245251.78348  20925929.5184   20925924.2524
     -1807.7974
   8502089.77449   6596097.44047  22794273.8464   22794268.2714
     -4048.4064
     -1964.49949     -3331.73548  21804049.1664   21804044.9364
      -250.8914
 04  9  8 21 24 30.0020000  0  6G 3G 8G13G19G23G27
    313643.81849    244170.44847  23711677.1504   23711673.4164
      -805.2194
  -3028723.93149  -2352217.71447  22897530.9244   22897527.1154
      1038.4844
   2919787.63649   2266432.24848  20931102.0254   20931097.3464
     -1815.7034
    -18754.66118                  24347831.057
      1101.281
   8562859.90949   6643450.73847  22805839.6504   22805833.0144
     -4053.6254
      1829.18549      -375.61848  21804771.0334   21804766.6544
      -254.2814
 04  9  8 21 24 45.0020000  0  6G 3G 8G13G19G23G27
    325794.98249    253638.88247  23713990.0334   23713986.7484
      -815.1094
  -3044274.48549  -2364335.01447  22894571.0724   22894568.3384
      1034.7504
   2947083.57549   2287701.80048  20936296.3464   20936291.7524
     -1823.9064
    -35236.78849   -335592.17356  24344696.2834   24344692.1504
      1096.1254
   8623706.28549   6690863.44447  22817417.1434   22817410.8694
     -4059.2344
      5668.56649      2616.10948  21805501.2834   21805497.8654
      -257.8444
 04  9  8 21 25  0.0020000  0  6G 3G 8G13G19G23G27
    338085.31649    263215.79947  23716328.6824   23716325.9474
      -824.0784
  -3059776.67149  -2376414.60547  22891621.1274   22891619.0184
      1031.8284
   2974496.10149   2309062.20448  20941512.6114   20941507.7444
     -1831.4534
    -51649.85049   -348381.54146  24341573.0024   24341568.9434
      1091.8754
   8684631.34549   6738337.53847  22829010.7524   22829005.5214
     -4064.3754
      9556.24849      5645.47048  21806241.3074   21806237.0924
      -260.8124
 04  9  8 21 25 15.0020000  0  6G 3G 8G13G19G23G27
    350513.04449    272899.76147  23718693.1744   23718690.9754
      -832.9064
  -3075232.33249  -2388457.96847  22888680.0414   22888677.6354
      1028.9694
   3002023.61749   2330512.21848  20946750.7834   20946746.3344
     -1838.8444
    -67995.17548   -361118.07446  24338461.2834   24338457.2134
      1087.5314
   8745633.10749   6785871.36247  22840620.0334   22840613.7834
     -4069.1724
     13490.27749      8710.95548  21806990.3224   21806985.6394
      -263.6874
 04  9  8 21 25 30.0020000  0  5G 3G 8G13G23G27
    363078.46249    282691.01947  23721084.4634   23721082.2444
      -842.2034
  -3090641.16149  -2400464.82647  22885747.9164   22885745.3654
      1025.7974
   3029666.32749   2352051.98348  20952011.1504   20952006.3814
     -1846.5314
   8806711.54349   6833464.92847  22852241.7524   22852237.1704
     -4074.3914
     17470.73249     11812.61448  21807747.7054   21807743.5724
      -266.8284
 04  9  8 21 25 45.0020000  0  5G 3G 8G13G23G27
    375779.99349    292588.31447  23723500.6744   23723498.9244
      -851.6874
  -3106004.78749  -2412436.46947  22882824.2834   22882822.0804
      1022.3594
   3057422.69049   2373680.30348  20957292.8224   20957288.2324
     -1854.5944
   8867864.85349   6881116.75446  22863879.7214   22863873.7054
     -4079.7034
     21496.01549     14949.19748  21808513.4634   21808509.8264
      -270.2974
 04  9  8 21 26  0.0020000  0  6G 3G 8G13G19G23G27
    388621.96149    302595.04047  23725944.8304   23725942.0614
      -860.5784
  -3121319.00149  -2424369.59947  22879910.3694   22879907.7134
      1019.5784
   3085296.77949   2395400.36848  20962597.2294   20962592.6934
     -1861.9694
    -24101.43258   -378949.63456  24329209.5254   24329204.0764
      1073.9064
   8929097.06849   6928830.18446  22875530.7054   22875525.9124
     -4084.5314
     25570.20849     18123.90548  21809288.6194   21809284.8964
      -272.9534
 04  9  8 21 26 15.0020000  0  6G 3G 8G13G19G23G27
    401599.67449    312707.55147  23728413.9864   23728411.0884
      -869.4844
  -3136588.60249  -2436267.97147  22877004.2294   22877001.8574
      1016.6564
   3113284.06049   2417208.63248  20967922.9794   20967918.2214
     -1869.4844
    -40173.35148   -391473.16046  24326150.9004   24326145.8304
      1069.4064
   8990403.30149   6976601.27446  22887196.6744   22887192.1664
     -4089.2664
     29688.60349     21333.03748  21810072.5884   21810068.2444
      -275.8124
 04  9  8 21 26 30.0020000  0  6G 3G 8G13G19G23G27
    414714.65149    322927.01547  23730910.7524   23730908.0684
      -879.0474
  -3151812.34849  -2448130.62247  22874107.2444   22874104.8544
      1013.3134
   3141385.77749   2439106.06548  20973270.7994   20973266.0104
     -1877.3444
    -56176.63948   -403943.22446  24323102.6584   24323100.2684
      1064.3284
   9051784.76549   7024430.94546  22898877.6824   22898872.6314
     -4094.7974
     33852.51549     24577.65248  21810864.7994   21810861.4244
      -279.1724
 04  9  8 21 26 45.0020000  0  6G 3G 8G13G19G23G27
    427970.02349    333255.89547  23733434.5184   23733430.6744
      -888.0474
  -3166986.90549  -2459954.93447  22871220.2994   22871217.3854
      1010.3594
   3169605.11549   2461095.15248  20978641.0104   20978635.7054
     -1884.8754
    -72107.96648   -416357.13846  24320072.2364   24320068.8264
      1059.8284
   9113244.16249   7072321.30346  22910573.0494   22910567.2484
     -4099.5164
     38064.85949     27860.00048  21811666.5494   21811662.6154
      -282.0784
 04  9  8 21 27  0.0020000  0  6G 3G 8G13G19G23G27
    441363.46849    343692.36247  23735981.6824   23735979.2834
      -897.2664
  -3182114.79349  -2471742.87547  22868340.4084   22868338.2834
      1007.1094
   3197939.66749   2483174.02448  20984032.8774   20984027.7444
     -1892.6874
    -87969.19348   -428716.49546  24317053.2214   24317050.5804
      1055.2504
   9174779.01049   7120270.50646  22922283.7604   22922277.5844
     -4104.7504
     42323.27649     31178.24648  21812476.8384   21812473.0494
      -285.2974
 04  9  8 21 27 15.0020000  0  6G 3G 8G13G19G23G27
    454892.23749    354234.28147  23738554.8614   23738554.4044
      -906.7344
  -3197198.93349  -2483496.75147  22865470.5184   22865468.2094
      1003.7664
   3226386.50749   2505340.38648  20989446.0644   20989441.3264
     -1900.6724
   -103763.02748   -441023.34246  24314049.7524   24314044.6824
      1050.3754
   9236386.18749   7168276.08246  22934006.1044   22934000.8894
     -4109.9534
     46624.82649     34530.09848  21813295.4474   21813291.6274
      -288.6724
 04  9  8 21 27 30.0020000  0  6G 3G 8G13G19G23G27
    468561.49949    364885.65947  23741156.7364   23741154.2364
      -915.9534
  -3212234.17049  -2495212.49147  22862609.2134   22862606.0454
      1000.7194
   3254950.79449   2527598.26748  20994881.6504   20994877.1624
     -1908.3284
   -119484.13748   -453273.49146  24311056.2524   24311052.8964
      1045.5164
   9298070.65149   7216341.86046  22945744.6974   22945738.3934
     -4114.8594
     50974.46749     37919.43748  21814123.1044   21814118.9514
      -291.6414
 04  9  8 21 27 45.0020000  0  6G 3G 8G13G19G23G27
    482364.62649    375641.37547  23743784.1504   23743781.3184
      -924.9844
  -3227227.27549  -2506895.41147  22859756.3614   22859753.5104
       997.7814
   3283625.86849   2549942.48348  21000338.1504   21000333.5644
     -1915.7504
   -135138.62548   -465471.77046  24308077.6664   24308074.1194
      1040.9384
   9359825.66349   7264462.64746  22957495.6504   22957490.3464
     -4119.7814
     55365.58349     41341.08648  21814958.9554   21814954.4984
      -294.5314
 04  9  8 21 28  0.0020000  0  6G 3G 8G13G19G23G27
    496305.97549    386504.78947  23746435.7754   23746432.5614
      -933.8284
  -3242173.85949  -2518542.08847  22856911.8774   22856909.2994
       994.9694
   3312415.91449   2572376.27248  21005816.3144   21005812.2794
     -1923.0314
   -150722.06848   -477614.68646  24305111.8304   24305109.0534
      1036.4844
   9421655.13549   7312641.46746  22969261.3774   22969255.9864
     -4124.3914
     59802.25249     44798.23148  21815803.4004   21815798.7684
      -297.1414
 04  9  8 21 28 15.0020000  0  6G 3G 8G13G19G23G27
    510382.28649    397473.32847  23749114.7134   23749111.6584
      -942.9224
  -3257077.28649  -2530155.14447  22854075.8934   22854073.2254
       992.1564
   3341317.70549   2594897.15248  21011316.2754   21011311.8814
     -1930.5004
   -166237.54148   -489704.63046  24302159.5574   24302155.7874
      1032.2034
   9483555.64249   7360875.58146  22981042.0964   22981035.3144
     -4129.0784
     64281.25249     48288.36748  21816655.3614   21816651.6274
      -299.9224
 04  9  8 21 28 30.0020000  0  6G 3G 8G13G19G23G27
    524595.22749    408548.37947  23751820.6744   23751815.3114
      -952.2814
  -3271936.06149  -2541733.39247  22851248.4244   22851246.1584
       988.8914
   3370332.87749   2617506.35748  21016837.6114   21016833.2404
     -1938.3124
   -181683.00849   -501739.98546  24299221.0494   24299217.1004
      1027.1414
   9545528.62849   7409166.20646  22992834.5804   22992828.8814
     -4134.1874
     68804.13149     51812.69348  21817516.1114   21817512.3034
      -303.2194
 04  9  8 21 28 45.0020000  0  6G 3G 8G13G19G23G27
    538946.93349    419731.50747  23754550.0104   23754546.9044
      -961.5784
  -3286748.20349  -2553275.31948  22848429.3464   22848426.7324
       985.7504
   3399463.47549   2640205.50248  21022381.1664   21022376.1744
     -1946.0944
   -197056.05449   -513718.98047  24296295.8544   24296291.6974
      1022.2034
   9607575.94349   7457514.70846  23004642.4474   23004635.4394
     -4139.2194
     73372.78849     55372.67348  21818385.4864   21818381.2644
      -306.2814
 04  9  8 21 29  0.0020000  0  6G 3G 8G13G19G23G27
    553438.82649    431023.91147  23757307.6894   23757305.3894
      -971.0004
  -3301512.34149  -2564779.80548  22845620.3854   22845617.5644
       982.5004
   3428710.78149   2662995.61448  21027946.6434   21027941.8574
     -1953.8594
   -212355.17649   -525640.34947  24293384.5414   24293380.6864
      1017.2814
   9669698.62249   7505921.98446  23016463.3694   23016456.9864
     -4144.0944
     77988.55849     58969.38348  21819263.7684   21819259.6744
      -309.4224
 04  9  8 21 29 15.0020000  0  6G 3G 8G13G19G23G27
    568066.08149    442421.76047  23760091.9864   23760089.1504
      -979.5624
  -3316233.12849  -2576250.54448  22842819.2294   22842816.5104
       980.0314
   3458069.87249   2685872.82448  21033533.8224   21033529.0334
     -1960.9534
   -227585.02749   -537507.70347  24290486.9554   24290482.0534
      1013.2814
   9731891.66649   7554384.03946  23028298.4794   23028292.0024
     -4148.4224
     82646.46849     62598.92348  21820150.1824   21820146.2714
      -311.8914
 04  9  8 21 29 30.0020000  0  6G 3G 8G13G19G23G27
    582829.13049    453925.43847  23762901.5804   23762899.0494
      -989.0624
  -3330910.31649  -2587687.29948  22840026.2364   22840023.1234
       976.7504
   3487541.30749   2708837.56548  21039142.0964   21039137.1234
     -1968.7814
   -242744.65249   -549320.36447  24287601.9084   24287597.3114
      1008.1094
   9794155.16549   7602901.02546  23040146.5104   23040140.2444
     -4153.4694
     87346.89149     66261.59948  21821044.5184   21821040.7524
      -315.0624
 04  9  8 21 29 45.0020000  0  6G 3G 8G13G19G23G27
    597729.37849    465536.05347  23765736.5724   23765734.9794
      -998.3284
  -3345542.54449  -2599089.00447  22837241.4394   22837238.7754
       973.5634
   3517126.44549   2731890.92348  21044771.5724   21044766.8464
     -1976.5004
   -257832.42449   -561077.08747  24284730.0104   24284725.9824
      1003.1564
   9856490.55449   7651474.06746  23052008.4864   23052002.2954
     -4158.4694
     92091.20949     69958.47548  21821947.6194   21821943.2484
      -318.1724
 04  9  8 21 30  0.0020000  0  7G 3G 8G13G10G19G23G27
    612767.40149    477254.01347  23768597.4004   23768596.4634
     -1006.8754
  -3360129.41249  -2610455.39048  22834465.8544   22834462.6864
       971.0944
   3546825.67049   2755033.17148  21050423.6974   21050418.9594
     -1983.5314
    -37225.06859    -23552.04056  24871654.0414   24871652.7914
      1114.5944
   -272847.63349   -572777.16247  24281871.7524   24281868.5214
       998.8134
   9918898.02349   7700103.22546  23063884.6504   23063878.6864
     -4162.6094
     96879.70149     73689.76548  21822858.8304   21822854.5064
      -320.4374
 04  9  8 21 30 15.0020000  0  7G 3G 8G13G10G19G23G27
    627938.80249    489075.88147  23771485.1354   23771483.1114
     -1015.7814
  -3374675.38249  -2621789.88948  22831698.2604   22831694.4554
       968.5164
   3576634.52649   2778260.84148  21056095.7684   21056091.1394
     -1990.7504
    -53890.18349    -36537.89346  24868483.5804   24868481.0574
      1107.7974
   -287794.49249   -584424.04347  24279028.5104   24279024.3774
       994.2974
   9981372.73449   7748784.83246  23075773.0334   23075767.7324
     -4167.1564
    101707.89649     77451.99648  21823777.3694   21823773.5924
      -323.0624
 04  9  8 21 30 30.0020000  0  7G 3G 8G13G10G19G23G27
    643245.13749    501002.92647  23774398.1664   23774395.2214
     -1025.0004
  -3389178.95649  -2633091.37148  22828937.9004   22828934.5494
       965.4534
   3606554.58549   2801575.17048  21061789.2754   21061784.1934
     -1998.4064
    -70452.04549    -49443.16046  24865331.5964   24865329.3424
      1100.7194
   -302671.16149   -596016.21347  24276197.4164   24276193.6784
       989.2974
  10043916.04749   7797519.86447  23087674.3384   23087670.3504
     -4171.9224
    106577.20749     81246.26248  21824703.8854   21824699.9434
      -326.0164
 04  9  8 21 30 45.0020000  0  7G 3G 8G13G10G19G23G27
    658692.27149    513039.64947  23777337.2294   23777335.2644
     -1034.8914
  -3403634.50549  -2644355.40948  22826187.1824   22826183.8894
       961.7504
   3636591.51449   2824980.55748  21067505.3694   21067500.4434
     -2006.7504
    -86904.56249    -62263.27246  24862201.4944   24862198.8734
      1092.7664
   -317471.48349   -607548.90847  24273381.0964   24273377.0334
       983.8134
  10106533.57649   7846312.70547  23099590.3144   23099585.6044
     -4177.3594
    111493.53349     85077.16148  21825639.5494   21825635.5334
      -329.6414
 04  9  8 21 31  0.0030000  0  7G 3G 8G13G10G19G23G27
    674274.54149    525181.65047  23780303.1714   23780300.1874
     -1043.3754
  -3418049.71849  -2655588.03948  22823444.1714   22823440.5224
       959.3914
   3666740.52849   2848473.28748  21073242.3904   21073237.8354
     -2013.5314
   -103255.40249    -75004.17046  24859090.5694   24859086.2414
      1086.4844
   -332202.95449   -619027.93747  24270577.3124   24270573.3624
       979.5474
  10169222.50749   7895161.18447  23111519.4764   23111514.9374
     -4181.3124
    116450.06849     88939.39548  21826583.2654   21826578.9764
      -331.8754
 04  9  8 21 31 15.0030000  0  7G 3G 8G13G10G19G23G27
    689995.14049    537431.49047  23783294.8974   23783291.6364
     -1052.9534
  -3432417.23349  -2666783.48448  22820710.4914   22820706.5264
       956.1094
   3697002.83849   2872054.31548  21079001.3194   21078996.2534
     -2021.5474
   -119496.93449    -87659.86046  24855999.2884   24855995.4174
      1078.8754
   -346858.09849   -630447.50847  24267788.4994   24267784.6444
       974.3134
  10231979.48749   7944062.69346  23123462.3434   23123457.7804
     -4186.4064
    121451.56449     92836.67348  21827534.8124   21827530.5774
      -335.1414
 04  9  8 21 31 30.0030000  0  7G 3G 8G13G10G19G23G27
    705849.97249    549785.91347  23786310.4994   23786309.4794
     -1061.2504
  -3446743.39749  -2677946.71148  22817984.2724   22817980.1904
       953.9224
   3727375.25549   2895721.14048  21084780.8434   21084776.1794
     -2028.2504
   -135634.96849   -100234.96446  24852929.1324   24852923.5774
      1072.5944
   -361442.67549   -641812.07247  24265014.1164   24265009.3044
       970.2034
  10294803.41349   7993016.38347  23135417.1714   23135411.5304
     -4190.2504
    126493.09949     96765.14348  21828494.1014   21828490.0114
      -337.2194
 04  9  8 21 31 45.0030000  0  7G 3G 8G13G10G19G23G27
    721844.29349    562249.02647  23789354.8664   23789352.3194
     -1070.8914
  -3461022.94849  -2689073.61648  22815266.1164   22815263.2104
       950.5164
   3757863.00549   2919477.81448  21090582.2264   21090577.9484
     -2036.3594
   -151664.32449   -112725.43246  24849877.9524   24849873.7294
      1065.2194
   -375951.16749   -653117.37947  24262252.6714   24262248.2724
       964.7034
  10357699.32349   8042026.13446  23147385.7334   23147381.2334
     -4195.2814
    131579.87449    100728.86248  21829461.6474   21829458.1084
      -340.5624
 04  9  8 21 32  0.0030000  0  7G 3G 8G13G10G19G23G27
    737976.90549    574819.92947  23792423.6634   23792421.2024
     -1079.9534
  -3475257.27549  -2700165.28448  22812558.2104   22812553.8784
       947.5784
   3788464.98249   2943323.51248  21096405.9054   21096401.1124
     -2043.8124
   -167585.92449   -125131.63646  24846848.7574   24846844.1984
      1057.9534
   -390384.48549   -664364.07147  24259505.3354   24259502.1474
       959.8444
  10420665.67149   8091090.79046  23159368.4524   23159363.4604
     -4199.9374
    136710.54249    104726.78348  21830437.9764   21830434.4254
      -343.3444
 04  9  8 21 32 15.0030000  0  7G 3G 8G13G10G19G23G27
    754250.32649    587500.52547  23795521.0934   23795518.4094
     -1089.5474
  -3489443.56949  -2711219.52548  22809857.9134   22809854.9724
       944.1884
   3819183.57249   2967260.06448  21102251.5854   21102246.9564
     -2051.6724
   -183396.97849   -137452.01046  24843839.7884   24843835.4874
      1050.4694
   -404739.97049   -675550.09147  24256774.4524   24256769.8044
       954.4534
  10483704.86349   8140212.19246  23171363.7414   23171359.8664
     -4205.0164
    141887.55749    108760.82648  21831423.1324   21831419.8474
      -346.6564
 04  9  8 21 32 30.0030000  0  7G 3G 8G13G10G19G23G27
    770660.08049    600287.36747  23798643.9294   23798640.5304
     -1098.8124
  -3503586.50249  -2722239.97548  22807166.5384   22807163.4564
       941.2034
   3850014.30649   2991283.99748  21108118.5154   21108114.0464
     -2059.4694
   -199101.81149   -149689.50946  24840850.3744   24840846.8704
      1043.2664
   -419021.66449   -686678.66847  24254056.3664   24254052.5624
       949.4384
  10546812.19549   8189386.73246  23183372.7964   23183367.7654
     -4209.5784
    147106.29149    112827.37348  21832416.0934   21832412.6554
      -349.5164
 04  9  8 21 32 45.0030000  0  7G 3G 8G13G10G19G23G27
    787206.76649    613180.89347  23801792.3664   23801789.6594
     -1107.7504
  -3517685.59749  -2733226.27048  22804483.5304   22804480.4724
       938.4064
   3880957.76449   3015395.76848  21114006.6474   21114001.9604
     -2066.6724
   -214699.59249   -161843.67146  24837883.0224   24837878.0654
      1036.2344
   -433228.82949   -697749.16947  24251352.8274   24251348.2374
       944.5944
  10609987.92549   8238614.48846  23195394.8904   23195389.7494
     -4214.0164
    152367.31749    116926.87948  21833417.7804   21833413.8354
      -352.1874
 04  9  8 21 33  0.0030000  0  7G 3G 8G13G10G19G23G27
    803890.72249    626181.38847  23804968.0694   23804965.2104
     -1117.0314
  -3531740.54749  -2744178.17448  22801808.9054   22801806.2224
       935.3284
   3912014.06849   3039595.48248  21119916.5224   21119912.3004
     -2074.3914
   -230189.86249   -173913.92746  24834934.3584   24834930.4054
      1028.9224
   -447360.89349   -708761.13847  24248663.8744   24248659.6284
       939.5474
  10673232.11649   8287895.64246  23207430.3194   23207424.3354
     -4218.6414
    157670.77849    121059.44048  21834426.3124   21834423.2104
      -355.1414
 04  9  8 21 33 15.0030000  0  7G 3G 8G13G10G19G23G27
    820719.50449    639294.68947  23808169.7964   23808167.9254
     -1126.5164
  -3545743.96449  -2755089.91148  22799144.6474   22799141.7024
       931.9694
   3943190.51249   3063888.79248  21125849.2264   21125844.6284
     -2082.3124
   -245564.94349   -185894.55946  24832007.9914   24832004.2264
      1021.2034
   -461410.02349   -719708.46647  24245989.3824   24245986.4014
       934.0634
  10736552.10849   8337235.87946  23219478.9134   23219474.0464
     -4223.6874
    163024.18749    125230.93148  21835445.3514   21835442.1204
      -358.4064
 04  9  8 21 33 30.0030000  0  7G 3G 8G13G10G19G23G27
    837688.57549    652517.36547  23811399.4294   23811396.8124
     -1136.0474
  -3559700.33249  -2765964.98048  22796488.3904   22796485.4994
       928.7974
   3974482.97449   3088272.52548  21131803.7804   21131799.1944
     -2090.0004
   -260829.23649   -197788.70846  24829103.6474   24829100.3744
      1013.8754
   -475380.50949   -730594.52147  24243331.5154   24243327.4914
       928.7034
  10799943.03949   8386631.32746  23231541.8124   23231536.7964
     -4228.4064
    168422.84749    129437.69448  21836472.9684   21836469.3664
      -361.4374
 04  9  8 21 33 45.0030000  0  7G 3G 8G13G10G19G23G27
    854793.41449    665845.79347  23814654.6874   23814651.3274
     -1144.7814
  -3573614.31749  -2776807.04648  22793840.9054   22793838.0894
       926.2034
   4005886.54749   3112742.83348  21137779.7494   21137774.7964
     -2097.2034
   -275987.09949   -209600.05546  24826220.5074   24826216.4914
      1006.9844
   -489276.77649   -741422.73047  24240687.2414   24240683.1444
       923.9534
  10863400.11449   8436078.33846  23243617.4764   23243612.3194
     -4232.5784
    173862.10749    133676.07848  21837507.5624   21837503.9484
      -363.9224
 04  9  8 21 34  0.0030000  0  7G 3G 8G13G10G19G23G27
    872040.04549    679284.71347  23817936.4374   23817933.3944
     -1154.5314
  -3587479.69549  -2787611.21448  22791202.7964   22791199.4604
       922.6884
   4037407.26049   3137304.41848  21143778.1714   21143772.9834
     -2105.3124
   -291032.26649   -221323.54946  24823356.6014   24823352.4564
       999.2034
   -503092.34249   -752188.05547  24238057.6474   24238053.8234
       918.3444
  10926929.16149   8485581.52346  23255707.3354   23255701.2724
     -4237.6724
    179347.92549    137950.73848  21838551.6014   21838547.8474
      -367.3284
 04  9  8 21 34 15.0030000  0  7G 3G 8G13G10G19G23G27
    889424.34349    692830.89747  23821244.7724   23821241.0774
     -1163.8124
  -3601300.93249  -2798381.00648  22788572.2334   22788569.1124
       919.6564
   4069041.03449   3161954.11148  21149797.7184   21149793.0774
     -2112.9534
   -305968.63549   -232962.31146  24820513.5544   24820509.7574
       991.8754
   -516831.01849   -762893.51347  24235444.2414   24235439.5894
       912.9844
  10990525.81649   8535137.25046  23267809.3904   23267803.4014
     -4242.2814
    184876.16849    142258.46248  21839603.8584   21839599.6404
      -370.2194
 04  9  8 21 34 30.0030000  0  7G 3G 8G13G10G19G23G27
    906948.99649    706486.50047  23824578.9684   23824575.4484
     -1173.2814
  -3615075.08449  -2809114.08948  22785950.9994   22785948.2064
       916.4694
   4100790.44049   3186693.91148  21155839.4524   21155834.4994
     -2120.7504
   -320793.21248   -244513.94646  24817692.7264   24817688.8664
       984.2814
   -530489.91749   -773536.76747  24232844.7104   24232840.0584
       907.8134
  11054192.65349   8584747.75146  23279924.8434   23279918.6904
     -4247.1254
    190449.50849    146601.32748  21840663.7184   21840660.3434
      -373.3124
 04  9  8 21 34 45.0030000  0  7G 3G 8G13G10G19G23G27
    924611.64249    720249.60247  23827940.1714   23827937.6244
     -1181.9844
  -3628804.88049  -2819812.62548  22783338.9834   22783335.0934
       914.0314
   4132653.02349   3211521.89448  21161902.9134   21161897.8354
     -2127.7344
   -335508.36248   -255980.25946  24814892.4054   24814889.0974
       977.6254
   -544071.07649   -784119.43347  24230260.3974   24230255.1014
       902.8914
  11117926.95749   8634410.80646  23292052.8904   23292047.7534
     -4251.0624
    196065.38749    150977.33148  21841732.8664   21841728.7294
      -375.6724
 04  9  8 21 35  0.0030000  0  7G 3G 8G13G10G19G23G27
    942415.53349    734122.77647  23831327.6474   23831326.2024
     -1191.1254
  -3642487.17449  -2830474.13548  22780734.4834   22780731.2764
       911.0784
   4164631.99649   3236440.57348  21167987.6474   21167983.8314
     -2135.2814
   -350110.54449   -267358.52946  24812114.4604   24812110.7694
       970.1724
   -557571.08549   -794638.85947  24227691.3514   24227686.7764
       897.8134
  11181731.78249   8684128.85346  23304194.2024   23304189.7614
     -4255.4694
    201726.95749    155388.95248  21842809.8274   21842806.6244
      -378.4694
 04  9  8 21 35 15.0030000  0  7G 3G 8G13G10G19G23G27
    960359.65849    748105.18947  23834742.0854   23834740.5194
     -1201.0474
  -3656122.80149  -2841099.28548  22778139.6944   22778137.0504
       907.4384
   4196726.37349   3261449.16048  21174095.5624   21174091.1284
     -2143.5314
   -364600.57049   -278649.53346  24809357.4604   24809353.0894
       962.0474
   -570990.57449   -805095.60447  24225137.5774   24225133.3904
       891.9224
  11245605.89449   8733900.83046  23316348.3514   23316343.4404
     -4260.5474
    207433.21049    159835.38648  21843895.8354   21843892.3744
      -381.9064
 04  9  8 21 35 30.0030000  0  7G 3G 8G13G10G19G23G27
    978441.80049    762195.17847  23838183.9994   23838181.5694
     -1210.0784
  -3669713.98649  -2851689.80548  22775553.3744   22775550.0894
       904.5634
   4228933.93449   3286545.94948  21180224.0544   21180220.0544
     -2151.0004
   -378980.56748   -289854.66446  24806619.7024   24806617.0304
       954.8284
   -584331.55349   -815491.15347  24222598.6474   24222594.6944
       886.7344
  11309546.83549   8783724.90046  23328517.1634   23328511.2654
     -4264.9064
    213181.80449    164314.80748  21844989.9604   21844986.8744
      -384.6724
 04  9  8 21 35 45.0030000  0  7G 3G 8G13G10G19G23G27
    996667.00549    776396.64047  23841651.6554   23841649.2884
     -1219.7814
  -3683255.57749  -2862241.69348  22772976.7884   22772973.7294
       901.0634
   4261259.64049   3311734.80048  21186375.5934   21186371.0344
     -2159.0624
   -393245.15849   -300969.80346  24803906.3514   24803903.2454
       947.0314
   -597588.61849   -825821.27847  24220075.4604   24220072.1674
       880.8914
  11373559.32849   8833604.75046  23340698.3124   23340692.8234
     -4269.8754
    218977.68249    168831.07148  21846093.1404   21846089.3124
      -388.0164
 04  9  8 21 36  0.0030000  0  7G 3G 8G13G10G19G23G27
   1015030.12849    790705.58547  23845145.6874   23845143.9834
     -1228.7034
  -3696752.84349  -2872759.01348  22770408.1084   22770405.5224
       898.4224
   4293698.28149   3337011.66348  21192548.7024   21192544.0854
     -2166.2504
   -407399.33249   -311999.17246  24801212.6014   24801209.1474
       940.0634
   -610766.65149   -836089.84847  24217567.3664   24217563.9254
       875.9694
  11437638.05349   8883536.14146  23352892.7414   23352887.1594
     -4273.9374
    224815.67349    173380.15848  21847204.2884   21847200.2614
      -390.5164
 04  9  8 21 36 15.0030000  0  7G 3G 8G13G10G19G23G27
   1033531.77649    805122.45947  23848666.4294   23848664.2334
     -1238.3444
  -3710205.44349  -2883241.55648  22767848.5774   22767845.2334
       894.9534
   4326250.33549   3362376.89148  21198742.9524   21198738.7724
     -2174.2504
   -421442.23249   -322941.61846  24798540.6244   24798536.7374
       932.3284
   -623864.86549   -846296.22147  24215076.4834   24215071.2294
       870.3594
  11501783.37349   8933519.47846  23365098.5694   23365092.7454
     -4278.8444
    230696.38849    177962.53948  21848323.0544   21848319.6874
      -393.8444
 04  9  8 21 36 30.0030000  0  7G 3G 8G13G10G19G23G27
   1052173.58249    819648.54847  23852214.3274   23852212.0114
     -1247.6414
  -3723611.70849  -2893687.98348  22765297.2414   22765294.3234
       892.0784
   4358917.37849   3387831.72748  21204959.2334   21204954.8314
     -2181.8124
   -435372.15749   -333796.05246  24795890.1794   24795886.6834
       924.7034
   -636881.22649   -856438.84347  24212598.8124   24212594.3314
       864.9064
  11565996.75349   8983555.83246  23377317.8824   23377313.2654
     -4283.3754
    236621.25949    182579.31648  21849450.5774   21849446.8154
      -396.6254
 04  9  8 21 36 45.0030000  0  7G 3G 8G13G10G19G23G27
   1070957.62149    834285.46647  23855789.5074   23855786.4684
     -1257.0784
  -3736969.49449  -2904096.63348  22762755.3824   22762752.1714
       888.8594
   4391701.47249   3413377.74948  21211198.0694   21211193.5194
     -2189.5784
   -449186.88449   -344560.74646  24793259.5694   24793258.3544
       917.0164
   -649813.56149   -866515.93447  24210137.7804   24210133.7024
       859.3284
  11630279.93849   9033646.59746  23389551.0074   23389545.3154
     -4287.8124
    242592.37549    187232.13948  21850586.7964   21850582.9564
      -399.7194
 04  9  8 21 37  0.0030000  0  7G 3G 8G13G10G19G23G27
   1089881.19349    849031.11247  23859389.6714   23859387.3544
     -1266.6254
  -3750281.67149  -2914469.75648  22760222.3434   22760218.9294
       885.6094
   4424599.85949   3439012.84448  21217458.3354   21217453.5224
     -2197.4224
   -462889.09449   -355237.75746  24790652.2654   24790650.2654
       909.5474
   -662664.39249   -876529.53147  24207692.9764   24207687.6594
       853.6414
  11694629.88249   9083789.40146  23401795.5934   23401790.1444
     -4292.5474
    248606.68049    191918.60148  21851731.6164   21851727.6754
      -402.7814
 04  9  8 21 37 15.0030000  0  7G 3G 8G13G10G19G23G27
   1108943.36149    863884.73347  23863018.0694   23863015.3944
     -1275.7034
  -3763548.92049  -2924807.85348  22757697.4914   22757694.4404
       882.7344
   4457611.73049   3464736.37048  21223740.3744   21223735.2574
     -2204.8594
   -476479.10349   -365827.36846  24788066.4994   24788064.3154
       901.7814
   -675434.06949   -886479.92347  24205262.1634   24205257.6554
       848.3284
  11759045.67649   9133983.50846  23414053.9604   23414048.1514
     -4296.8914
    254663.46549    196638.18948  21852883.9374   21852879.4334
      -405.5474
 04  9  8 21 37 30.0030000  0  7G 3G 8G13G10G19G23G27
   1128147.70649    878849.17047  23866672.0464   23866669.1984
     -1285.0624
  -3776767.73249  -2935108.22048  22755182.1014   22755178.9254
       879.6094
   4490740.54049   3490551.02648  21230044.5304   21230039.8394
     -2212.5474
   -489953.28249   -376326.73546  24785503.6554   24785500.2184
       894.3134
   -688118.81749   -896364.09047  24202848.2804   24202843.9254
       842.8284
  11823530.60549   9184231.48446  23426324.2264   23426318.9794
     -4301.2504
    260766.25849    201393.60648  21854045.0774   21854041.0694
      -408.3914
 04  9  8 21 37 45.0030000  0  7G 3G 8G13G10G19G23G27
   1147493.58949    893923.86047  23870353.8744   23870350.6514
     -1294.6254
  -3789939.20949  -2945371.69348  22752674.8824   22752673.1364
       876.3754
   4523985.53249   3516456.20548  21236370.8434   21236366.0544
     -2220.3444
   -503312.07349   -386736.12146  24782959.5774   24782957.6874
       886.6564
   -700719.15349   -906182.50747  24200450.4604   24200445.9564
       837.1254
  11888083.82949   9234532.59546  23438608.4134   23438604.0584
     -4305.9224
    266914.25949    206184.25148  21855214.8354   21855211.1594
      -411.4844
 04  9  8 21 38  0.0030000  0  7G 3G 8G13G10G19G23G27
   1166976.74149    909105.54247  23874060.9994   23874058.0224
     -1303.5164
  -3803067.06149  -2955601.18848  22750177.2414   22750174.4174
       873.6884
   4557342.42249   3542448.59148  21242718.3904   21242713.9644
     -2227.5624
   -516559.61049   -397058.84646  24780439.0154   24780437.0504
       879.3284
   -713238.92849   -915938.15247  24198068.2334   24198063.2144
       831.9534
  11952700.74149   9284883.43146  23450904.5154   23450901.0694
     -4309.8284
    273103.25149    211006.86048  21856392.6404   21856388.5304
      -413.9844
 04  9  8 21 38 15.0030000  0  7G 3G 8G13G10G19G23G27
   1186600.26649    924396.61447  23877795.2334   23877791.2264
     -1312.9844
  -3816148.64949  -2965794.61848  22747687.7804   22747684.9724
       870.4844
   4590814.31349   3568530.57248  21249088.1554   21249083.6984
     -2235.3284
   -529692.53349   -407292.30146  24777941.4994   24777938.3904
       871.9064
   -725674.71649   -925628.33047  24195701.7654   24195697.5734
       826.2034
  12017384.42049   9335286.22146  23463213.6944   23463210.2374
     -4314.6414
    279336.25249    215863.73548  21857578.6714   21857575.0264
      -417.0314
 04  9  8 21 38 30.0030000  0  7G 3G 8G13G10G19G23G27
   1206365.09849    939797.76947  23881556.5074   23881552.5774
     -1322.1414
  -3829182.85649  -2975951.13148  22745207.8044   22745204.6014
       867.6884
   4624401.96049   3594702.74848  21255479.4764   21255475.3744
     -2242.7504
   -542709.75349   -417435.48246  24775462.9294   24775461.2494
       864.3134
   -738025.39049   -935252.20947  24193351.1944   24193347.2374
       820.7974
  12082135.38249   9385741.56646  23475535.0694   23475531.0694
     -4318.6724
    285614.07849    220755.54948  21858773.1164   21858769.9914
      -419.7814
 04  9  8 21 38 45.0030000  0  7G 3G 8G13G10G19G23G27
   1226273.04349    955310.46947  23885344.6944   23885341.3744
     -1332.0314
  -3842168.00349  -2986069.41348  22742736.8514   22742733.7224
       863.9694
   4658107.24449   3620966.59348  21261893.4054   21261888.8824
     -2251.0474
   -555609.26049   -427487.21246  24773008.7104   24773006.2294
       855.8754
   -750288.85549   -944808.14747  24191018.0544   24191013.4214
       814.4534
  12146955.35049   9436250.52946  23487870.8744   23487866.0854
     -4323.6874
    291938.47749    225683.64948  21859977.1554   21859972.7844
      -423.2344
 04  9  8 21 39  0.0030000  0  7G 3G 8G13G10G19G23G27
   1246320.77649    970932.08747  23889159.3434   23889156.8084
     -1341.0314
  -3855107.52749  -2996152.15048  22740274.7024   22740271.3624
       861.3444
   4691926.75049   3647319.44948  21268329.2024   21268324.7804
     -2258.2344
   -568394.21149   -437449.43146  24770576.2654   24770572.5504
       848.6724
   -762468.21749   -954298.50547  24188700.1554   24188696.0544
       809.3134
  12211840.58649   9486810.43646  23500217.4134   23500213.0854
     -4327.5784
    298306.04549    230645.40848  21861188.7334   21861185.0304
      -425.7344
 04  9  8 21 39 15.0030000  0  7G 3G 8G13G10G19G23G27
   1266509.68149    986663.71047  23893001.8194   23892998.9404
     -1350.2664
  -3867999.53149  -3006197.86248  22737821.4444   22737817.8944
       858.3284
   4725862.04849   3673762.52048  21274787.0544   21274782.6284
     -2265.7814
   -581062.81649   -447321.04646  24768164.4684   24768162.2804
       841.0314
   -774561.60249   -963721.89647  24186398.7264   24186394.5034
       803.8134
  12276792.53249   9537422.28946  23512578.6164   23512572.3124
     -4332.0164
    304718.27049    235641.94548  21862408.7804   21862405.0814
      -428.5164
 04  9  8 21 39 30.0030000  0  7G 3G 8G13G10G19G23G27
   1286834.94449   1002501.57347  23896869.0934   23896867.6634
     -1359.7974
  -3880849.20849  -3016210.59448  22735376.2334   22735372.8624
       855.0474
   4759908.05349   3700291.86848  21281265.4604   21281261.0894
     -2273.5474
   -593619.85749   -457105.70847  24765776.2884   24765772.7224
       833.3284
   -786573.61949   -973081.89947  24184113.0854   24184108.6204
       797.9224
  12341805.91549   9588082.03246  23524949.7494   23524944.2224
     -4336.4694
    311170.10649    240669.34448  21863636.8584   21863632.5074
      -431.5624
 04  9  8 21 39 45.0030000  0  7G 3G 8G13G10G19G23G27
   1307302.56449   1018450.37147  23900763.8434   23900762.2844
     -1369.4694
  -3893650.64649  -3026185.72848  22732939.9914   22732936.8194
       851.7034
   4794070.68749   3726912.10048  21287766.3904   21287761.6834
     -2281.5944
   -606059.13849   -466798.66046  24763408.2884   24763405.8354
       825.2034
   -798498.06749   -982373.66047  24181844.5224   24181839.8704
       791.8594
  12406886.56748   9638794.20346  23537334.7334   23537328.1714
     -4341.2814
    317667.54449    245732.28748  21864873.2184   21864869.4684
      -434.8284
 04  9  8 21 40  0.0030000  0  7G 3G 8G13G10G19G23G27
   1327911.03049   1034508.93247  23904684.9134   23904683.6284
     -1378.4534
  -3906405.27449  -3036124.39648  22730512.7964   22730509.2654
       848.8444
   4828348.41149   3753621.99848  21294289.2574   21294284.5224
     -2288.9374
   -618382.03749   -476400.88446  24761063.4764   24761060.8474
       817.6564
   -810336.15549   -991598.13447  24179591.3514   24179587.0074
       786.3754
  12472032.63849   9689557.27746  23549731.3514   23549725.7694
     -4345.2344
    324209.03849    250829.55048  21866117.7884   21866114.5894
      -437.4534
 04  9  8 21 40 15.0030000  0  7G 3G 8G13G10G19G23G27
   1348658.66949   1050675.92247  23908633.7334   23908631.6124
     -1387.6564
  -3919114.74049  -3046027.86948  22728094.3274   22728090.4334
       845.8754
   4862739.62249   3780420.33248  21300833.5074   21300828.9764
     -2296.4694
   -630589.89449   -485913.48546  24758739.8124   24758737.8704
       810.1414
   -822089.10649  -1000756.24947  24177354.1244   24177349.8394
       780.7194
  12537242.43449   9740370.06346  23562140.6084   23562134.5694
     -4349.2974
    330792.88249    255959.82248  21867370.6944   21867367.1404
      -440.2194
 04  9  8 21 40 30.0030000  0  7G 3G 8G13G10G19G23G27
   1369549.70049   1066954.65347  23912608.5304   23912606.4484
     -1397.5314
  -3931774.90749  -3055892.91448  22725684.9134   22725682.4564
       842.3134
   4897248.44949   3807310.31948  21307400.5934   21307396.0654
     -2304.5474
   -642678.16649   -495332.91846  24756439.7024   24756437.6474
       801.7664
   -833752.40649  -1009844.48547  24175134.9444   24175129.7224
       774.4534
  12602520.00449   9791235.68046  23574562.7724   23574556.4484
     -4354.1724
    337423.37249    261126.44448  21868632.3194   21868628.8354
      -443.6254
 04  9  8 21 40 45.0030000  0  7G 3G 8G13G10G19G23G27
   1390583.89849   1083344.89847  23916611.6164   23916608.6014
     -1407.0784
  -3944385.75049  -3065719.54548  22723285.2884   22723282.2334
       839.0314
   4931874.75649   3834291.83148  21313989.5224   21313985.2804
     -2312.4844
   -654647.01849   -504659.25446  24754162.8904   24754160.7964
       793.8754
   -845326.07749  -1018862.91447  24172932.4604   24172927.8314
       768.5784
  12667864.89348   9842153.75846  23586996.5624   23586992.4834
     -4358.6094
    344100.11749    266329.09448  21869902.7654   21869899.6014
      -446.7194
 04  9  8 21 41  0.0030000  0  7G 3G 8G13G10G19G23G27
   1411758.04449   1099844.25547  23920641.3904   23920638.4294
     -1416.2814
  -3956950.80549  -3075510.49548  22720894.1324   22720890.7924
       836.1094
   4966615.13049   3861362.24248  21320600.4834   21320595.8314
     -2319.8594
   -666499.53249   -513894.96846  24751907.7804   24751905.2104
       786.1254
   -856813.16849  -1027813.86947  24170746.2024   24170741.7924
       762.9384
  12733273.55849   9893121.53146  23599444.8274   23599439.1714
     -4362.5474
    350819.85249    271565.26448  21871181.5854   21871177.7334
      -449.4374
 04  9  8 21 41 15.0030000  0  7G 3G 8G13G10G19G23G27
   1433071.02749   1116451.78647  23924696.8904   23924693.7184
     -1425.7814
  -3969471.15649  -3085266.59348  22718511.1404   22718508.2184
       832.8594
   5001468.58349   3888520.76148  21327233.1714   21327228.1794
     -2327.6254
   -678236.45949   -523040.60646  24749672.4214   24749672.0264
       778.2814
   -868214.37149  -1036697.90047  24168576.8274   24168571.8584
       756.9064
  12798744.74849   9944137.96146  23611902.9994   23611897.7724
     -4367.1414
    357581.54449    276834.10548  21872468.2884   21872464.3544
      -452.4534
 04  9  8 21 41 30.0030000  0  7G 3G 8G13G10G19G23G27
   1454524.71249   1133168.94347  23928779.0544   23928776.5854
     -1435.2344
  -3981944.88349  -3094986.37648  22716137.6714   22716134.5154
       829.7344
   5036436.95749   3915768.83248  21333887.4374   21333882.3044
     -2335.3124
   -689855.65749   -532094.52646  24747464.0154   24747460.6594
       770.5004
   -879527.49949  -1045513.26547  24166424.3124   24166419.4684
       751.0784
  12864280.08948   9995204.44546  23624373.4914   23624368.7264
     -4371.1254
    364386.93849    282137.01348  21873763.0304   21873759.6204
      -455.4064
 04  9  8 21 41 45.0030000  0  7G 3G 8G13G10G19G23G27
   1476119.50749   1149996.07947  23932888.3044   23932885.3354
     -1444.4374
  -3994371.39049  -3104669.36048  22713773.4764   22713769.9334
       826.7814
   5071520.56049   3943106.70048  21340563.5774   21340558.7924
     -2342.7504
   -701356.50749   -541056.28746  24745275.0854   24745272.0154
       762.7194
   -890751.84749  -1054259.50147  24164288.3044   24164282.9724
       745.3444
  12929879.92449  10046321.20346  23636857.6404   23636852.1044
     -4375.6254
    371236.50249    287474.34348  21875066.7334   21875063.0854
      -458.1414
 04  9  8 21 42  0.0030000  0  7G 3G 8G13G10G19G23G27
   1497858.74049   1166935.74747  23937024.7334   23937021.9564
     -1453.9374
  -4006747.47149  -3114313.04648  22711418.2104   22711414.9644
       823.5004
   5106722.66249   3970536.90848  21347262.0694   21347257.9794
     -2350.5944
   -712735.78449   -549923.14146  24743108.8194   24743106.7454
       754.8594
   -901883.87049  -1062933.75647  24162169.7264   24162164.9444
       739.2504
  12995547.22148  10097490.42245  23649354.3744   23649348.8434
     -4379.9224
    378133.33749    292848.49748  21876379.1634   21876375.4374
      -461.2344
 04  9  8 21 42 15.0030000  0  7G 3G 8G13G10G19G23G27
   1519735.80249   1183982.78547  23941188.2414   23941185.1444
     -1463.1414
  -4019079.89349  -3123922.72548  22709071.3904   22709067.8474
       820.5944
   5142036.58649   3998054.23648  21353981.9604   21353978.0654
     -2358.1724
   -723999.63949   -558700.13146  24740964.0854   24740963.2884
       746.7814
   -912929.79649  -1071540.93147  24160068.3824   24160063.5544
       733.3754
  13061275.11848  10148706.94146  23661860.1164   23661857.4014
     -4384.0944
    385071.02649    298254.48748  21877699.4764   21877695.7144
      -464.0314
 04  9  8 21 42 30.0030000  0  7G 3G 8G13G10G19G23G27
   1541757.80549   1201142.81247  23945379.4834   23945376.1904
     -1473.2194
  -4031361.47349  -3133492.76348  22706734.0074   22706730.7184
       816.8284
   5177469.34649   4025664.16748  21360724.6874   21360720.2294
     -2366.3914
   -735140.91249   -567381.66246  24738844.7964   24738842.1754
       738.4844
   -923882.28849  -1080075.33047  24157983.3584   24157979.6674
       726.7504
  13127070.52048  10199976.02045  23674381.8824   23674377.4054
     -4388.9694
    392056.41749    303697.66348  21879028.9604   21879025.0894
      -467.5784
 04  9  8 21 42 45.0030000  0  7G 3G 8G13G10G19G23G27
   1563921.63949   1218413.33947  23949596.2024   23949594.2614
     -1482.0474
  -4043595.30149  -3143025.60648  22704406.1404   22704402.5654
       814.1724
   5213017.92549   4053364.33748  21367489.8434   21367484.9524
     -2373.6414
   -746162.34449   -575969.81746  24736748.2414   24736745.2694
       730.9844
   -934744.17349  -1088539.12047  24155916.9444   24155912.8784
       721.3134
  13192930.19748  10251295.24645  23686912.8584   23686910.5734
     -4392.6874
    399086.47649    309175.63748  21880366.7494   21880362.7264
      -469.9844
 04  9  8 21 43  0.0030000  0  7G 3G 8G13G10G19G23G27
   1586224.24749   1235792.00247  23953840.5624   23953837.7804
     -1491.5944
  -4055784.28649  -3152523.51048  22702086.0154   22702082.9834
       811.0474
   5248679.12149   4081152.28448  21374275.9444   21374270.7334
     -2381.2034
   -757066.99149   -584466.98646  24734673.4834   24734670.0624
       723.1414
   -945518.22249  -1096934.43847  24153865.6014   24153862.8194
       715.1884
  13258850.751 8                  23699457.952
     -4396.547
    406158.22849    314686.09548  21881712.2724   21881708.0584
      -472.9534
 04  9  8 21 43 15.0030000  0  8G 3G 8G13G10G19G23G27G28
   1608664.77349   1253278.14147  23958111.4294   23958108.5694
     -1500.6414
  -4067929.24749  -3161987.10648  22699775.6874   22699772.1594
       808.2344
   5284452.27449   4109027.45448  21381083.4684   21381078.5074
     -2388.6094
   -767855.35849   -592873.45746  24732618.6874   24732616.7334
       715.3754
   -956204.91649  -1105261.73247  24151832.9764   24151829.4054
       709.4694
  13324831.273 8                  23712013.507
     -4400.891
    413270.72349    320228.29748  21883065.9374   21883061.8514
      -475.5004
    -95182.77059    -66138.91856  25181965.6014   25181966.1474
      2131.2504
 04  9  8 21 43 30.0030000  0  8G 3G 8G13G10G19G23G27G28
   1631240.27649   1270869.45347  23962407.1164   23962405.0114
     -1509.5784
  -4080033.13749  -3171418.69448  22697472.3824   22697469.2024
       805.5164
   5320334.24749   4136987.42548  21387911.0694   21387906.4254
     -2395.7814
   -778530.03549   -601191.31046  24730588.5074   24730585.7884
       707.7664
   -966806.85749  -1113522.94947  24149815.9374   24149811.3194
       703.8444
  13390868.629 8                  23724580.171
     -4404.344
    420420.99449    325799.93848  21884426.4684   21884422.4294
      -477.9844
   -127140.00749    -91040.53846  25175884.9604   25175884.5224
      2129.5164
 04  9  8 21 43 45.0030000  0  8G 3G 8G13G10G19G23G27G28
   1653955.48349   1288569.63347  23966729.3824   23966728.2374
     -1518.8284
  -4092091.50349  -3180814.81648  22695177.6324   22695174.0894
       802.4384
   5356329.75749   4165035.87848  21394760.8434   21394756.2294
     -2403.3754
   -789086.24349   -609416.99946  24728581.4994   24728576.9954
       699.8444
   -977318.98949  -1121714.18147  24147815.3584   24147810.2374
       697.9064
                                  23737159.421
     -4408.656
    427613.70749    331404.64548  21885795.1324   21885791.4014
      -480.8284
   -159066.08849   -115917.99046  25169810.5074   25169807.9444
      2127.4384
 04  9  8 21 44  0.0030000  0  8G 3G 8G13G10G19G23G27G28
   1676814.00849   1306381.44247  23971079.4914   23971077.9764
     -1528.9534
  -4104100.50349  -3190172.46448  22692892.6944   22692888.8974
       798.7814
   5392442.31349   4193175.51848  21401632.8974   21401628.1364
     -2411.6874
   -799520.26748   -617547.32246  24726592.2884   24726591.1364
       691.3134
   -987737.61749  -1129832.58547  24145832.3974   24145827.2844
       691.2194
  13523130.613 8                  23749748.866
     -4413.219
    434852.38749    337045.18948  21887172.6164   21887168.6944
      -484.3444
   -190957.35849   -140768.18846  25163741.2724   25163739.7294
      2124.6564
 04  9  8 21 44 15.0030000  0  8G 3G 8G13G10G19G23G27G28
   1699818.37049   1324306.93247  23975457.2884   23975455.3784
     -1538.5164
  -4116057.64149  -3199489.71148  22690616.7804   22690613.9954
       795.3284
   5428674.51749   4221408.39248  21408527.7334   21408523.0034
     -2419.5944
   -809829.18049   -625580.28846  24724632.7024   24724629.6284
       682.7974
   -998059.81449  -1137875.82947  24143868.7334   24143862.9914
       684.8134
  13589361.02618                  23762352.679
     -4418.250
    442139.67649    342723.58948  21888559.5544   21888555.2964
      -487.5474
   -222810.97949   -165589.16346  25157679.1014   25157677.1554
      2122.2814
 04  9  8 21 44 30.0030000  0  8G 3G 8G13G10G19G23G27G28
   1722963.33449   1342341.96247  23979861.1794   23979858.4954
     -1547.8754
  -4127968.01349  -3208770.52248  22688350.2724   22688346.9874
       792.2194
   5465021.09549   4249730.39348  21415444.2964   21415439.9564
     -2427.1564
   -820018.08148   -633519.63446  24722693.6474   24722690.3744
       674.9694
  -1008290.45849  -1145847.71647  24141920.5304   24141916.2144
       678.7664
  13655652.87818                  23774968.468
     -4421.609
    449470.36949    348435.82348  21889954.4764   21889950.3314
      -490.4064
   -254631.98049   -190384.68146  25151624.0304   25151621.6164
      2120.0004
 04  9  8 21 44 45.0030000  0  8G 3G 8G13G10G19G23G27G28
   1746250.44349   1360487.80147  23984293.0854   23984290.2104
     -1557.0004
  -4139830.27249  -3218013.82148  22686093.0464   22686089.9524
       789.2974
   5501483.54049   4278142.68248  21422382.4214   21422378.5464
     -2434.5624
   -830085.21049   -641364.15346  24720777.8274   24720774.1794
       667.3594
  -1018427.73949  -1153746.91147  24139991.4294   24139986.8354
       672.8754
                                  23787594.546
     -4426.031
    456845.85249    354182.95548  21891357.7334   21891354.0384
      -493.0784
   -286418.64249   -215153.46146  25145576.0624   25145573.4954
      2118.0314
 04  9  8 21 45  0.0030000  0  8G 3G 8G13G10G19G23G27G28
   1769680.70749   1378745.12647  23988751.1714   23988748.1794
     -1566.3284
  -4151643.30949  -3227218.78548  22683845.5224   22683842.1084
       786.2814
   5538062.95149   4306646.09348  21429343.5934   21429339.4134
     -2442.0474
   -840029.32449   -649112.77246  24718886.8274   24718882.5304
       659.4064
  -1028470.29449  -1161572.27347  24138080.7264   24138075.7184
       666.7034
                                  23800234.796
     -4429.687
    464267.19049    359965.80648  21892770.3124   21892765.7884
      -495.8594
   -318169.84149   -239894.62046  25139532.8974   25139530.6554
      2116.0784
 04  9  8 21 45 15.0030000  0  8G 3G 8G13G10G19G23G27G28
   1793245.96849   1397107.67547  23993235.9054   23993231.7334
     -1575.6874
  -4163415.12949  -3236391.62448  22681605.1554   22681602.2064
       783.2504
   5574751.01149   4335234.17948  21436325.2334   21436320.8154
     -2449.5784
   -849858.36548   -656771.77746  24717016.4604   24717012.1404
       651.4384
  -1038426.02349  -1169329.94047  24136186.7574   24136181.7534
       660.6884
                                  23812884.155
     -4433.734
    471726.25949    365778.06348  21894189.4684   21894185.7184
      -498.6254
   -349893.45449   -264614.21746  25133496.1554   25133494.4834
      2113.8594
 04  9  8 21 45 30.0030000  0  7G 3G 8G13G10G19G27G28
   1816951.30349   1415579.37547  23997746.5624   23997742.6324
     -1584.7974
  -4175140.46849  -3245528.23048  22679373.8584   22679370.6364
       780.3594
   5611552.84149   4363910.91748  21443328.2264   21443323.8154
     -2457.0784
   -859566.86948   -664336.82846  24715165.9134   24715164.0304
       643.5474
  -1048289.42949  -1177015.66947  24134309.1794   24134304.4834
       654.7344
    479228.18149    371623.72148  21895616.6944   21895613.2534
      -501.3754
   -381584.16349   -289308.23746  25127466.7104   25127463.6244
      2111.9064
 04  9  8 21 45 45.0030000  0  7G 3G 8G13G10G19G27G28
   1840801.67549   1434164.10147  24002285.5304   24002281.6944
     -1594.9224
  -4186814.68449  -3254625.01448  22677152.4834   22677149.0654
       776.5784
   5648473.43949   4392680.20348  21450354.0624   21450349.1634
     -2465.3754
   -869149.71049   -671803.96146  24713346.4914   24713340.7374
       634.5784
  -1058055.21549  -1184625.37847  24132450.2804   24132446.3354
       647.6724
    486777.89549    377506.61548  21897053.7884   21897050.0304
      -504.9374
   -413236.82749   -313972.56846  25121442.4834   25121440.9094
      2108.8594
 04  9  8 21 46  0.0030000  0  7G 3G 8G13G10G19G27G28
   1864795.99649   1452860.98247  24006851.2414   24006848.3784
     -1604.7974
  -4198438.51349  -3263682.54548  22674940.7884   22674937.1794
       772.9534
   5685511.61349   4421541.11248  21457401.9374   21457397.4094
     -2473.4534
   -878607.86248   -679173.95746  24711543.0934   24711541.7574
       626.1884
  -1067724.17449  -1192159.60347  24130611.4214   24130606.5224
       641.1564
    494374.32549    383425.90248  21898498.9764   21898494.8744
      -508.2814
   -444852.26449   -338607.91846  25115425.0224   25115423.8974
      2106.1094
 04  9  8 21 46 15.0030000  0  7G 3G 8G13G10G19G27G28
   1888937.51049   1471672.53347  24011445.6014   24011442.5264
     -1613.9694
  -4210008.78449  -3272698.33748  22672738.5694   22672735.3584
       769.8754
   5722670.46649   4450496.05348  21464473.2184   21464468.7694
     -2480.9224
   -887937.94848   -686444.09046  24709768.0624   24709766.3044
       618.1254
  -1077292.84149  -1199615.66447  24128789.7414   24128785.6554
       634.9534
    502020.57849    389384.03248  21899953.9764   21899950.2494
      -511.0164
   -476427.10749   -363211.67046  25109416.9604   25109414.8394
      2104.0784
 04  9  8 21 46 30.0030000  0  7G 3G 8G13G10G19G27G28
   1913215.80349   1490590.71847  24016064.9294   24016062.5224
     -1623.2504
  -4221536.11749  -3281680.65748  22670544.8824   22670541.6164
       766.9844
   5759939.68649   4479536.99948  21471565.4994   21471560.6164
     -2488.3444
   -897150.06449   -693622.34046  24708015.7804   24708012.6674
       610.1094
  -1086771.29149  -1207001.39647  24126986.6794   24126982.5114
       628.8284
    509706.31749    395372.92248  21901417.1014   21901412.8904
      -513.7194
   -507971.61449   -387791.73146  25103414.6554   25103412.0114
      2101.8594
 04  9  8 21 46 45.0030000  0  7G 3G 8G13G10G19G27G28
   1937636.14549   1509619.54247  24020711.0304   24020708.3904
     -1632.8124
  -4233015.12749  -3290625.32948  22668361.1324   22668357.7334
       763.5944
   5797324.55649   4508668.05448  21478679.3044   21478675.0694
     -2496.2194
   -906238.74649   -700704.45346  24706285.8974   24706282.7264
       601.5784
  -1096153.85449  -1214312.46747  24125201.0624   24125196.0464
       622.1414
    517436.86249    401396.72448  21902887.8194   21902883.8624
      -516.8914
   -539480.30749   -412343.89546  25097419.1404   25097416.9764
      2099.2664
 04  9  8 21 47  0.0030000  0  7G 3G 8G13G10G19G27G28
   1962198.59449   1528759.12147  24025386.1244   24025383.4564
     -1642.2344
  -4244445.82649  -3299532.36448  22666185.7414   22666182.1084
       760.4064
   5834824.98749   4537889.15348  21485814.9684   21485811.0224
     -2503.9534
   -915203.86048   -707690.28546  24704579.7264   24704576.7924
       593.6254
  -1105440.44249  -1221548.74547  24123433.9374   24123429.0034
       615.8754
    525212.06349    407455.31848  21904367.2804   21904363.4054
      -519.8444
   -570953.07749   -436868.07346  25091429.0154   25091427.4834
      2096.9844
 04  9  8 21 47 15.0030000  0  7G 3G 8G13G10G19G27G28
   1986900.16049   1548007.10047  24030087.1634   24030084.1404
     -1651.6094
  -4255830.91849  -3308403.85948  22664018.9994   22664015.7724
       757.2504
   5872438.12449   4567198.08448  21492973.2264   21492968.6554
     -2511.4694
   -924048.11549   -714581.78946  24702897.2964   24702894.6714
       585.2504
  -1114633.61649  -1228712.23347  24121683.7804   24121680.6444
       609.5634
    533029.10649    413546.52748  21905855.3584   21905851.0264
      -522.7814
   -602392.64649   -461366.34746  25085447.6084   25085444.5894
      2094.6254
 04  9  8 21 47 30.0030000  0  7G 3G 8G13G10G19G27G28
   2011744.13849   1567366.03447  24034814.2804   24034812.0584
     -1661.2664
  -4267167.09649  -3317237.22848  22661862.1474   22661858.4644
       753.9064
   5910167.21549   4596597.35148  21500152.8824   21500148.5894
     -2519.3594
   -932767.79549   -721376.35946  24701238.0774   24701235.8154
       576.9534
  -1123729.66849  -1235800.04247  24119953.1944   24119949.0624
       602.9064
    540891.27149    419672.89048  21907351.0854   21907346.8314
      -525.8444
   -633795.32949   -485835.88947  25079471.6324   25079468.8044
      2091.9384
 04  9  8 21 47 45.0030000  0  7G 3G 8G13G10G19G27G28
   2036734.70549   1586839.21147  24039568.6874   24039567.2724
     -1670.8124
  -4278450.04349  -3326029.12648  22659714.4914   22659711.3944
       750.4224
   5948016.52049   4626090.29948  21507355.1014   21507351.0734
     -2527.2664
   -941358.45949   -728070.43746  24699603.0854   24699601.0544
       568.5314
  -1132724.09749  -1242808.64047  24118241.1634   24118237.5424
       596.3134
    548802.87849    425837.79148  21908856.7964   21908853.0734
      -529.0784
   -665156.64649   -510273.25246  25073503.9684   25073500.9914
      2089.3444
 04  9  8 21 48  0.0030000  0  7G 3G 8G13G10G19G27G28
   2061868.17349   1606423.72747  24044353.2724   24044349.6284
     -1680.4374
  -4289683.68449  -3334782.60248  22657576.8974   22657573.5854
       747.1414
   5985982.18049   4655673.90948  21514580.1874   21514575.5854
     -2535.0944
   -949823.83349   -734666.78946  24697991.2724   24697989.8904
       560.0004
  -1141620.35549  -1249740.77747  24116549.8904   24116544.7764
       589.7034
    556760.07949    432038.20048  21910370.7964   21910366.9094
      -532.1254
   -696480.32849   -534681.27746  25067542.3124   25067540.3944
      2086.8914
 04  9  8 21 48 15.0030000  0  7G 3G 8G13G10G19G27G28
   2087137.18949   1626113.88847  24049161.4994   24049158.6324
     -1689.3594
  -4300875.17749  -3343503.22548  22655447.1554   22655444.0224
       744.3284
   6024056.87949   4685342.50348  21521825.3584   21521820.7294
     -2542.2974
   -958170.85749   -741170.96546  24696403.8044   24696400.5814
       552.0784
  -1150425.34149  -1256601.79047  24114873.4134   24114868.8394
       583.6414
    564755.59049    438268.46548  21911892.2024   21911888.8394
      -534.6414
   -727773.52249   -559065.51047  25061587.9834   25061586.5114
      2084.9224
 04  9  8 21 48 30.0030000  0  7G 3G 8G13G10G19G27G28
   2112549.61249   1645915.75847  24053997.5774   24053994.9994
     -1698.9534
  -4312016.52749  -3352184.80248  22653326.8584   22653323.3624
       741.0474
   6062248.37149   4715102.10348  21529092.7024   21529088.4174
     -2550.0314
   -966391.56449   -747576.67146  24694839.0624   24694836.7104
       543.7974
  -1159131.01649  -1263385.40747  24113216.7334   24113212.4954
       577.0784
    572797.23349    444534.67948  21913422.8584   21913418.9834
      -537.6254
   -759028.09449   -583419.62447  25055640.0154   25055638.4094
      2082.2664
 04  9  8 21 48 45.0030000  0  7G 3G 8G13G10G19G27G28
   2138101.95949   1665826.69347  24058859.6474   24058856.5854
     -1708.4534
  -4323111.61649  -3360830.30648  22651215.6634   22651212.1084
       737.8444
   6100553.04449   4744949.88848  21536382.1714   21536377.4724
     -2557.7504
   -974489.24349   -753886.53046  24693299.2964   24693296.5114
       535.5314
  -1167740.50149  -1270094.08947  24111578.5154   24111573.9834
       570.3914
    580881.59449    450834.19348  21914960.7024   21914956.9764
      -540.6414
   -790247.37749   -607746.33147  25049699.9214   25049696.9794
      2079.8594
 04  9  8 21 49  0.0030000  0  7G 3G 8G13G10G19G27G28
   2163801.98649   1685852.67147  24063751.2184   24063748.0344
     -1718.4064
  -4334152.16049  -3369433.33248  22649114.9444   22649111.4484
       734.0634
   6138978.64149   4774891.91348  21543694.0464   21543689.5734
     -2565.9064
   -982455.92448   -760094.36746  24691781.8514   24691779.2104
       526.5944
  -1176245.89049  -1276721.61847  24109960.6324   24109955.2374
       563.3914
    589016.36149    457172.96448  21916508.9524   21916504.9134
      -544.1564
   -821423.39049   -632039.26146  25043766.5304   25043764.2494
      2076.6414
 04  9  8 21 49 15.0030000  0  7G 3G 8G13G10G19G27G28
   2189643.11349   1705988.63647  24068667.7494   24068664.9444
     -1727.7814
  -4345144.69749  -3377998.92448  22647023.0224   22647019.4054
       730.9384
   6177518.76649   4804923.18348  21551028.1794   21551023.6474
     -2573.4534
   -990297.88549   -766205.00046  24690289.6714   24690286.6084
       518.3914
  -1184653.06349  -1283272.64547  24108361.0544   24108355.4134
       556.8754
    597195.15349    463546.05748  21918065.0624   21918061.5344
      -547.0164
   -852562.39349   -656303.36346  25037841.6944   25037839.0544
      2074.3594
 04  9  8 21 49 30.0030000  0  7G 3G 8G13G10G19G27G28
   2215627.08649   1726235.85947  24073611.0074   24073609.5384
     -1737.3284
  -4356087.42849  -3386525.72348  22644940.3434   22644937.2884
       727.5164
   6216175.21849   4835045.07248  21558384.2724   21558379.4914
     -2581.3594
   -998012.96549   -772216.78546  24688821.6404   24688818.6514
       509.7504
  -1192960.09949  -1289745.64447  24106779.7884   24106774.4444
       550.1254
    605419.69549    469954.78848  21919630.4994   21919626.8004
      -550.1564
   -883662.39549   -680537.04247  25031922.6324   25031920.7844
      2071.8134
 04  9  8 21 49 45.0030000  0  7G 3G 8G13G10G19G27G28
   2241754.96449   1746595.25147  24078583.4444   24078581.2334
     -1746.4374
  -4366979.45949  -3395013.01248  22642868.0934   22642864.3624
       724.5474
   6254949.05449   4865258.44048  21565762.7414   21565758.2884
     -2588.7194
  -1005599.99849   -778128.69746  24687378.4834   24687374.7694
       501.5634
  -1201165.57049  -1296139.50747  24105218.4834   24105213.0074
       543.7814
    613691.04549    476399.99348  21921204.5624   21921200.5384
      -552.8914
   -914722.07049   -704739.30746  25026011.6874   25026009.7964
      2069.2974
 04  9  8 21 50  0.0030000  0  7G 3G 8G13G10G19G27G28
   2268022.71449   1767063.63047  24083581.7724   24083579.4684
     -1756.0164
  -4377824.60949  -3403463.76848  22640804.3904   22640801.0584
       721.2814
   6293836.21449   4895560.10748  21573162.9294   21573158.0034
     -2596.4224
  -1013062.92049   -783943.91546  24685956.1164   24685954.8434
       493.2664
  -1209273.32349  -1302457.22747  24103675.2414   24103670.1984
       537.1094
    622005.29649    482878.63248  21922786.5854   21922782.1404
      -555.9064
   -945745.52149   -728913.38446  25020108.6794   25020105.4564
      2066.9224
 04  9  8 21 50 15.0030000  0  7G 3G 8G13G10G19G27G28
   2294433.01249   1787643.07547  24088608.5224   24088605.3784
     -1765.5004
  -4388620.24249  -3411875.94348  22638749.9374   22638746.2924
       717.9384
   6332839.29049   4925952.08648  21580584.6404   21580580.4914
     -2604.1564
  -1020398.77049   -789660.15246  24684561.5074   24684557.6984
       484.6414
  -1217280.43449  -1308696.53047  24102151.6244   24102146.6984
       530.3914
    630364.95349    489392.66548  21924377.2654   21924373.1944
      -559.0004
   -976729.64749   -753056.81146  25014212.3274   25014209.6284
      2064.1254
 04  9  8 21 50 30.0030000  0  7G 3G 8G13G10G19G27G28
   2320987.16349   1808334.63447  24093661.2574   24093658.7614
     -1774.9534
  -4399364.98449  -3420248.46348  22636705.1714   22636701.6284
       714.7814
   6371959.61449   4956435.45548  21588028.9994   21588024.5344
     -2611.7664
  -1027605.99049   -795276.20146  24683190.9214   24683187.2454
       476.4534
  -1225185.11549  -1314855.99247  24100647.3974   24100642.3744
       523.6884
    638771.39549    495943.13348  21925976.9604   21925972.5934
      -561.8444
  -1007673.05749   -777168.47147  25008323.9914   25008322.4054
      2061.6884
 04  9  8 21 50 45.0030000  0  7G 3G 8G13G10G19G27G28
   2347683.70349   1829137.11147  24098742.8514   24098739.2724
     -1784.4224
  -4410060.21349  -3428582.39548  22634669.9214   22634666.5264
       711.4224
   6411195.50349   4987008.87048  21595495.2654   21595491.1444
     -2619.4694
  -1034685.97149   -800793.04746  24681842.9914   24681839.9954
       467.8444
  -1232988.55049  -1320936.57747  24099162.4604   24099157.1554
       516.9384
    647223.23249    502528.99248  21927585.4214   21927580.9954
      -564.8754
  -1038576.88349   -801249.32046  25002443.1634   25002441.3124
      2059.0164
 04  9  8 21 51  0.0030000  0  7G 3G 8G13G10G19G27G28
   2374517.57549   1850046.61947  24103848.0074   24103845.0774
     -1793.3914
  -4420710.94349  -3436881.65748  22632642.9914   22632639.7024
       708.7034
   6450542.05349   5017668.49948  21602982.8354   21602978.4914
     -2626.6254
  -1041643.37949   -806214.39646  24680519.2264   24680516.2614
       459.9224
  -1240695.41549  -1326941.89547  24097695.4524   24097691.0654
       510.6884
    655715.40749    509146.26548  21929201.3514   21929196.8124
      -567.3594
  -1069445.80149   -825302.99547  24996569.4054   24996566.7024
      2056.8914
 04  9  8 21 51 15.0040000  0  7G 3G 8G13G10G19G27G28
   2401494.88749   1871067.90347  24108982.1684   24108978.5194
     -1803.1254
  -4431313.40349  -3445143.31248  22630625.2774   22630622.0554
       705.1414
   6490006.13849   5048419.71648  21610492.7234   21610487.7074
     -2634.6564
  -1048474.17449   -811536.99546  24679219.2154   24679216.2774
       451.2194
  -1248301.80649  -1332868.93647  24096248.4494   24096243.4964
       503.6724
    664252.89849    515798.85648  21930826.0904   21930821.6724
      -570.6414
  -1100277.60949   -849327.70547  24990701.9344   24990699.9184
      2053.9384
 04  9  8 21 51 30.0040000  0  7G 3G 8G13G10G19G27G28
   2428613.34749   1892199.18347  24114141.9344   24114138.6254
     -1812.6564
  -4441864.78349  -3453365.14848  22628617.4804   22628614.6954
       701.7504
   6529583.89249   5079259.52148  21618023.7544   21618019.4534
     -2642.4064
  -1055175.86649   -816759.11446  24677944.1844   24677940.4224
       442.2974
  -1255804.90549  -1338715.48347  24094820.7854   24094815.6954
       496.8134
    672835.92349    522486.94148  21932459.2774   21932455.0474
      -573.7344
  -1131066.59549   -873319.03947  24984842.4414   24984841.4414
      2051.0474
 04  9  8 21 51 45.0040000  0  7G 3G 8G13G10G19G27G28
   2455873.74649   1913441.03947  24119330.0594   24119327.1254
     -1821.5314
  -4452366.87249  -3461548.59548  22626618.9734   22626615.6724
       699.0004
   6569276.99049   5110189.19148  21625577.1994   21625572.8834
     -2649.5624
  -1061749.65549   -821881.61746  24676693.5664   24676689.7234
       434.5474
  -1263205.78349  -1344482.38947  24093412.0594   24093406.6874
       490.4694
    681464.13749    529210.21448  21934101.2464   21934097.1054
      -576.2034
  -1161815.46349   -897279.15847  24978991.9734   24978989.9184
      2049.0474
 04  9  8 21 52  0.0040000  0  7G 3G 8G13G10G19G27G28
   2483276.16649   1934793.58347  24124543.7154   24124542.0234
     -1831.7814
  -4462819.39549  -3469693.41148  22624630.6054   22624626.7934
       695.0004
   6609085.37849   5141208.69748  21633152.6684   21633148.1994
     -2657.9694
  -1068195.32748   -826904.16746  24675465.5744   24675463.3874
       425.1414
  -1270504.07749  -1350169.34047  24092023.6914   24092018.8014
       482.9064
    690137.60249    535968.76748  21935751.5514   21935747.8164
      -580.0004
  -1192524.03149   -921207.83147  24973148.9344   24973146.3164
      2045.6254
 04  9  8 21 52 15.0040000  0  7G 3G 8G13G10G19G27G28
   2510821.15649   1956257.21447  24129784.6374   24129782.8754
     -1841.1254
  -4473221.94749  -3477799.28248  22622650.5744   22622647.2074
       691.5634
   6649009.49149   5172318.38248  21640749.7074   21640745.7974
     -2665.7344
  -1074512.09448   -831826.28046  24674263.1684   24674261.6954
       416.5784
  -1277698.98749  -1355775.74647  24090653.5194   24090648.7304
       475.9064
    698856.85049    542762.97248  21937411.0434   21937407.4374
      -583.1254
  -1223191.53049   -945104.52247  24967312.6914   24967310.3914
      2042.8754
 04  9  8 21 52 30.0040000  0  7G 3G 8G13G10G19G27G28
   2538508.76149   1977831.95547  24135054.3714   24135051.9224
     -1850.6564
  -4483574.53049  -3485866.21948  22620680.4654   22620677.3404
       688.4064
   6689049.42749   5203518.32348  21648369.4104   21648365.0354
     -2673.3124
  -1080699.71549   -836647.89746  24673086.6994   24673084.4064
       408.2664
  -1284790.09149  -1361301.25747  24089304.6214   24089299.7624
       469.2504
    707621.87849    549592.86548  21939078.7384   21939075.3444
      -586.0004
  -1253817.68549   -968969.04047  24961485.0354   24961481.8634
      2040.3444
 04  9  8 21 52 45.0040000  0  7G 3G 8G13G10G19G27G28
   2566336.04749   1999515.57947  24140350.3714   24140347.0514
     -1859.7344
  -4493879.68549  -3493896.20948  22618719.6134   22618715.9694
       685.5164
   6729202.35349   5234806.30248  21656010.1054   21656006.0984
     -2680.5624
  -1086760.87249   -841370.82246  24671933.3874   24671930.4064
       399.9064
  -1291779.75949  -1366747.73347  24087974.6604   24087969.9734
       462.5634
    716430.01649    556456.34948  21940754.9024   21940750.6094
      -588.6094
  -1284405.08749   -992803.27847  24955663.0664   24955662.4064
      2037.7974
 04  9  8 21 53  0.0040000  0  7G 3G 8G13G10G19G27G28
   2594304.91049   2021309.49147  24145671.1444   24145669.3914
     -1869.3914
  -4504135.52449  -3501887.76848  22616768.0984   22616764.3714
       681.9844
   6769469.94949   5266183.64148  21663672.6444   21663668.1134
     -2688.4534
  -1092693.55949   -845993.70846  24670803.9264   24670801.3984
       391.1094
  -1298666.22249  -1372113.79447  24086664.7074   24086659.4614
       455.5474
    725282.96949    563354.76348  21942439.6684   21942435.4964
      -591.7974
  -1314951.76249  -1016605.83247  24949850.5274   24949849.9414
      2035.0004
 04  9  8 21 53 15.0040000  0  7G 3G 8G13G10G19G27G28
   2622415.40649   2043213.78247  24151020.5124   24151018.5234
     -1878.6094
  -4514341.91049  -3509840.78948  22614825.8094   22614822.4304
       678.9534
   6809852.57549   5297650.62448  21671357.1764   21671353.0664
     -2695.8594
  -1098497.31449   -850516.04046  24669700.6054   24669697.8284
       382.7664
  -1305448.90749  -1377398.99647  24085373.4574   24085368.8874
       448.8134
    734180.91049    570288.22148  21944132.9494   21944128.8324
      -594.5624
  -1345457.28349  -1040376.33747  24944045.1994   24944043.9884
      2032.4384
 04  9  8 21 53 30.0040000  0  7G 3G 8G13G10G19G27G28
   2650670.08649   2065230.39247  24156397.8944   24156395.0474
     -1888.3284
  -4524496.10449  -3517753.14348  22612893.4414   22612890.4374
       675.3134
   6850352.72349   5329209.16448  21679064.1604   21679060.2624
     -2703.7814
  -1104169.28649   -854935.70246  24668620.7934   24668618.7344
       373.8284
  -1312124.82049  -1382600.96247  24084102.8944   24084098.3324
       441.5944
    743126.73649    577258.99248  21945835.0744   21945831.5164
      -597.8444
  -1375918.91649  -1064112.63047  24938249.8794   24938246.7234
      2029.3754
 04  9  8 21 53 45.0040000  0  7G 3G 8G13G10G19G27G28
   2679062.87949   2087354.61947  24161801.2074   24161798.6804
     -1897.2194
  -4534604.12249  -3525629.50948  22610970.2304   22610966.8364
       672.6414
   6890964.11549   5360854.38648  21686792.5044   21686788.0824
     -2710.8754
  -1109715.46349   -859257.41646  24667563.8554   24667562.5744
       365.9064
  -1318699.83949  -1387724.34847  24082851.5044   24082846.5744
       435.2814
    752114.14149    584262.17548  21947545.2234   21947541.8794
      -600.2814
  -1406342.50149  -1087819.26547  24932459.3944   24932457.0004
      2027.2344
 04  9  8 21 54  0.0040000  0  7G 3G 8G13G10G19G27G28
   2707597.45449   2109589.34247  24167231.3944   24167228.4304
     -1907.1094
  -4544662.24649  -3533467.00648  22609055.8404   22609052.9344
       668.8284
   6931690.61949   5392589.30048  21694542.4734   21694538.5864
     -2719.0164
  -1115131.81249   -863477.93446  24666533.4414   24666531.6954
       356.8284
  -1325169.88849  -1392765.91747  24081620.7464   24081615.6294
       427.7664
    761147.03249    591300.78748  21949264.1764   21949260.7934
      -603.6874
  -1436724.10849  -1111493.17547  24926677.9264   24926676.6294
      2023.9694
 04  9  8 21 54 15.0040000  0  7G 3G 8G13G10G19G27G28
   2736274.44949   2131935.06347  24172688.1374   24172685.1444
     -1916.4694
  -4554669.81449  -3541265.10648  22607151.8324   22607147.7894
       665.5314
   6972532.75049   5424414.33248  21702314.5514   21702310.1804
     -2726.6094
  -1120417.38449   -867596.60046  24665528.0124   24665525.9304
       348.0944
  -1331533.94249  -1397724.92647  24080409.1844   24080404.5354
       420.8444
    770226.00949    598375.31548  21950991.6764   21950988.1334
      -606.7344
  -1467062.91149  -1135133.72747  24920904.5594   24920903.0744
      2021.1884
 04  9  8 21 54 30.0040000  0  7G 3G 8G13G10G19G27G28
   2765092.96649   2154391.05847  24178172.3944   24178169.0474
     -1925.9844
  -4564627.41449  -3549024.26048  22605256.5824   22605253.1604
       662.1254
   7013489.72349   5456328.85148  21710108.4414   21710103.8834
     -2734.4064
  -1125572.90449   -871613.87546  24664547.2854   24664545.0124
       339.1564
  -1337792.47149  -1402601.65747  24079217.6134   24079213.7074
       413.6254
    779350.37649    605485.21248  21952728.6994   21952724.6804
      -609.9374
  -1497359.35749  -1158741.32347  24915140.0594   24915137.5234
      2018.2194
 04  9  8 21 54 45.0040000  0  7G 3G 8G13G10G19G27G28
   2794056.43849   2176959.99547  24183684.0124   24183680.8874
     -1935.8124
  -4574531.86949  -3556742.00548  22603371.6374   22603368.6564
       658.4694
   7054564.80549   5488335.39148  21717924.7624   21717920.6214
     -2742.4224
  -1130594.78549   -875526.99246  24663591.5274   24663589.1804
       330.2504
  -1343942.01049  -1407393.48747  24078048.1994   24078043.3124
       406.2664
    788523.25149    612632.90148  21954473.9884   21954470.1804
      -613.2344
  -1527610.01849  -1182313.21547  24909383.1214   24909381.5864
      2015.0474
 04  9  8 21 55  0.0040000  0  7G 3G 8G13G10G19G27G28
   2823166.73349   2199643.35947  24189222.9884   24189220.8984
     -1945.4694
  -4584381.14849  -3564416.75548  22601497.8244   22601494.1724
       654.9224
   7095760.02549   5520435.55648  21725763.4654   21725759.6764
     -2750.1254
  -1135480.92549   -879334.41846  24662662.5744   24662659.5274
       321.2504
  -1349980.15149  -1412098.50847  24076898.8634   24076893.9844
       399.0004
    797746.94149    619820.19848  21956229.0434   21956225.5864
      -616.4694
  -1557812.65449  -1205847.65147  24903635.8244   24903633.0784
      2012.0004
 04  9  8 21 55 15.0040000  0  7G 3G 8G13G10G19G27G28
   2852418.24449   2222436.73847  24194789.6524   24194787.2624
     -1954.7034
  -4594180.48049  -3572052.58948  22599632.8094   22599629.7934
       651.6254
   7137069.74749   5552624.92848  21733624.7234   21733620.2114
     -2757.7664
  -1140236.68749   -883040.19046  24661756.7544   24661754.4924
       312.7344
  -1355912.21749  -1416720.86547  24075770.1764   24075765.3444
       391.9694
    807015.78649    627042.69848  21957992.2934   21957989.0514
      -619.3594
  -1587972.56449  -1229348.81647  24897895.3404   24897893.6024
      2009.2504
 04  9  8 21 55 30.0040000  0  7G 3G 8G13G10G19G27G28
   2881808.30849   2245338.04247  24200382.2934   24200380.0004
     -1964.4694
  -4603932.67249  -3579651.71248  22597777.1604   22597773.4454
       648.0944
   7178491.16149   5584901.33948  21741506.8944   21741502.7114
     -2765.6414
  -1144864.67849   -886646.40746  24660875.8404   24660873.4654
       303.7194
  -1361740.67549  -1421262.51947  24074660.8874   24074656.5704
       384.6724
    816327.12749    634298.27048  21959764.5044   21959761.3634
      -622.6094
  -1618092.37549  -1252818.78147  24892164.0594   24892161.5514
      2006.0314
 04  9  8 21 55 45.0040000  0  7G 3G 8G13G10G19G27G28
   2911337.14649   2268347.54447  24206000.5354   24205998.9454
     -1973.3754
  -4613637.32949  -3587213.76048  22595930.4344   22595927.0044
       645.2664
   7220024.57249   5617265.02248  21749410.3244   21749405.9374
     -2772.8594
  -1149364.18749   -890152.48646  24660020.1214   24660017.6874
       295.6094
  -1367464.73849  -1425722.78647  24073571.5594   24073567.5354
       377.7814
    825681.30049    641587.23148  21961544.9804   21961540.9374
      -625.2664
  -1648171.50249  -1276256.98347  24886440.8794   24886437.5624
      2003.7034
 04  9  8 21 56  0.0040000  0  7G 3G 8G13G10G19G27G28
   2941008.72849   2291468.25847  24211646.4184   24211645.8674
     -1982.7974
  -4623290.55849  -3594735.73248  22594093.8634   22594089.7814
       641.8134
   7261673.92149   5649719.05048  21757336.0664   21757331.9534
     -2780.4534
  -1153731.06949   -893555.28946  24659191.0514   24659186.6444
       286.6724
  -1373080.19949  -1430098.45947  24072503.3944   24072498.7274
       370.8134
    835082.28349    648912.67648  21963333.9414   21963329.6024
      -628.3284
  -1678205.79549  -1299660.29347  24880724.6374   24880722.6874
      2000.8134
 04  9  8 21 56 15.0040000  0  7G 3G 8G13G10G19G27G28
   2970823.58249   2314700.59247  24217321.3794   24217319.2424
     -1992.0944
  -4632891.73649  -3602217.16648  22592266.4264   22592262.7034
       638.7344
   7303439.78949   5682263.84948  21765284.0354   21765279.8364
     -2787.8754
  -1157964.76349   -896854.21146  24658383.5274   24658380.3404
       278.2664
  -1378586.18649  -1434388.82247  24071455.8014   24071451.2464
       363.8284
    844530.69349    656275.07748  21965131.9964   21965128.1054
      -631.0784
  -1708194.43149  -1323028.03347  24875018.6214   24875016.1724
      1998.0474
 04  9  8 21 56 30.0040000  0  7G 3G 8G13G10G19G27G28
   3000776.90649   2338040.88247  24223021.4104   24223018.8094
     -2001.4534
  -4642445.26149  -3609661.46048  22590448.7304   22590444.2624
       635.3284
   7345317.40849   5714895.75048  21773253.2074   21773249.0394
     -2795.5944
  -1162069.42649   -900052.64146  24657603.1684   24657599.4184
       269.2194
  -1383987.03549  -1438597.26047  24070427.8014   24070423.3364
       356.5164
    854021.92349    663670.84548  21966937.7854   21966933.9264
      -634.1874
  -1738142.00849  -1346363.75447  24869319.2624   24869316.8914
      1995.0474
 04  9  8 21 56 45.0040000  0  7G 3G 8G13G10G19G27G28
   3030873.25649   2361492.55947  24228748.4414   24228746.3554
     -2011.1564
  -4651946.63249  -3617065.12048  22588640.6844   22588636.4734
       631.7194
   7387311.21449   5747618.19948  21781244.3794   21781240.0624
     -2803.4224
  -1166040.63749   -903147.06946  24656846.7154   24656843.6844
       260.5164
  -1389278.06049  -1442720.12747  24069420.8714   24069416.4414
       349.0944
    863560.53249    671103.52048  21968753.2074   21968748.8944
      -637.4694
  -1768043.64749  -1369663.68847  24863628.7774   24863626.9024
      1992.0634
 04  9  8 21 57  0.0040000  0  7G 3G 8G13G10G19G27G28
   3061107.64949   2385051.82247  24234502.3324   24234499.1054
     -2020.2034
  -4661400.73849  -3624431.94548  22586841.1054   22586837.7814
       628.7344
   7429416.31549   5780427.35048  21789256.8014   21789251.9924
     -2810.6724
  -1169883.12349   -906141.18746  24656116.2934   24656112.8944
       251.8444
  -1394463.84949  -1446760.98947  24068434.0904   24068429.2074
       342.2344
    873141.57849    678569.27348  21970576.1294   21970572.3554
      -640.0944
  -1797904.12749  -1392931.53447  24857947.1764   24857944.8364
      1989.4224
 04  9  8 21 57 15.0040000  0  7G 3G 8G13G10G19G27G28
   3091481.59849   2408719.83447  24240282.1604   24240278.4264
     -2029.6564
  -4670806.14349  -3631760.82748  22585051.6524   22585048.1414
       625.3444
   7471634.15149   5813324.34648  21797290.3094   21797286.1994
     -2818.3754
  -1173594.99749   -909033.55746  24655408.7464   24655406.2664
       242.6094
  -1399542.47849  -1450718.35447  24067467.9804   24067462.3204
       334.8914
    882766.54749    686069.25448  21972407.5044   21972404.1804
      -643.2194
  -1827721.75149  -1416166.00647  24852273.1444   24852270.5864
      1986.2034
 04  9  8 21 57 30.0040000  0  7G 3G 8G13G10G19G27G28
   3121998.18949   2432498.98047  24246089.5514   24246085.6214
     -2039.1414
  -4680159.46449  -3639049.11548  22583271.2384   22583268.2154
       621.8594
   7513967.88449   5846311.66248  21805346.1764   21805342.1644
     -2826.0164
  -1177173.04749   -911821.71446  24654728.4804   24654725.0474
       234.1724
  -1404510.49149  -1454589.50247  24066522.0274   24066517.1024
       327.5474
    892438.85649    693606.11248  21974247.9964   21974244.4304
      -646.3444
  -1857493.05549  -1439364.42247  24846608.1914   24846605.2934
      1983.2974
 04  9  8 21 57 45.0040000  0  7G 3G 8G13G10G19G27G28
   3152660.72949   2456391.86947  24251923.6844   24251921.8244
     -2049.2344
  -4689457.26149  -3646294.15148  22581501.9804   22581498.8054
       617.8594
   7556420.93149   5879391.94448  21813424.7544   21813420.3094
     -2834.3594
  -1180613.54548   -914502.53546  24654073.0194   24654070.7544
       224.7034
  -1409364.31149  -1458371.69347  24065598.7544   24065594.0044
       319.5944
    902161.79349    701182.41248  21976098.1374   21976094.5824
      -649.9844
  -1887214.53949  -1462523.95747  24840951.9734   24840949.7664
      1979.6414
 04  9  8 21 58  0.0040000  0  7G 3G 8G13G10G19G27G28
   3183465.99249   2480395.99847  24257784.6844   24257783.8944
     -2058.1254
  -4698702.67749  -3653498.36848  22579743.1214   22579739.5514
       614.9064
   7598990.17249   5912562.77448  21821525.4884   21821521.1684
     -2841.5314
  -1183919.46249   -917078.59646  24653444.2774   24653441.2974
       216.2194
  -1414106.65749  -1462067.01047  24064696.3874   24064691.5004
       312.7344
    911932.26049    708795.78048  21977957.9264   21977953.8674
      -652.6254
  -1916889.12949  -1485646.92647  24835305.1684   24835302.7504
      1976.9384
 04  9  8 21 58 15.0040000  0  7G 3G 8G13G10G19G27G28
   3214412.13349   2504509.85147  24263674.7934   24263672.1294
     -2067.3754
  -4707897.38349  -3660663.06348  22577993.3324   22577990.3634
       611.6724
   7641673.50749   5945822.50248  21829647.7854   21829643.5904
     -2848.9224
  -1187092.51549   -919551.09946  24652840.2154   24652837.8164
       207.7344
  -1418739.08249  -1465676.69647  24063814.3164   24063809.6804
       305.5474
    921748.44349    716444.75448  21979825.4804   21979821.5274
      -655.5784
  -1946518.27449  -1508734.55847  24829666.5824   24829664.5944
      1974.1254
 04  9  8 21 58 30.0040000  0  7G 3G 8G13G10G19G27G28
   3245497.08949   2528731.90447  24269590.0354   24269587.8204
     -2077.1094
  -4717043.18649  -3667789.64448  22576252.8794   22576249.1054
       608.0164
   7684469.00649   5979169.60548  21837791.5744   21837787.0354
     -2856.8594
  -1190134.48049   -921921.42346  24652260.9494   24652258.7854
       198.3134
  -1423263.44449  -1469202.15247  24062953.6294   24062948.9734
       297.9534
    931608.37649    724127.81648  21981701.7854   21981698.0044
      -658.8914
  -1976103.89549  -1531788.26947  24824037.6764   24824035.1174
      1970.9224
 04  9  8 21 58 45.0040000  0  7G 3G 8G13G10G19G27G28
   3276722.16149   2553063.12647  24275532.0744   24275529.5744
     -2086.4534
  -4726139.08049  -3674877.35548  22574522.0594   22574518.5864
       604.6884
   7727377.78349   6012605.01048  21845956.8554   21845952.4774
     -2864.3124
  -1193043.91348   -924188.55646  24651707.3554   24651705.3714
       189.5164
  -1427677.99049  -1472642.03647  24062113.3094   24062108.5474
       290.6564
    941513.55449    731846.14348  21983586.7464   21983582.9024
      -661.8594
  -2005644.42249  -1554806.79947  24818416.0904   24818412.8874
      1967.9064
 04  9  8 21 59  0.0040000  0  7G 3G 8G13G10G19G27G28
   3308085.72549   2577502.27147  24281500.1524   24281498.2114
     -2095.6414
  -4735186.34049  -3681927.14748  22572800.2464   22572796.4574
       601.3754
   7770398.29549   6046127.46248  21854143.4264   21854139.0594
     -2871.9224
  -1195822.29549   -926353.49546  24651179.9574   24651177.0434
       180.7664
  -1431984.01249  -1475997.38147  24061293.7934   24061289.3714
       283.3134
    951462.22049    739598.34848  21985479.8244   21985476.5824
      -664.8124
  -2035141.29449  -1577791.32647  24812803.0904   24812799.8404
      1964.7814
 04  9  8 21 59 15.0040000  0  7G 3G 8G13G10G19G27G28
   3339588.12149   2602049.58047  24287494.5594   24287492.5314
     -2105.1254
  -4744184.67149  -3688938.82548  22571087.7854   22571084.0904
       597.9384
   7813530.84549   6079737.22948  21862351.2694   21862347.1254
     -2879.5474
  -1198468.95848   -928415.83146  24650675.4964   24650673.5004
       171.5784
  -1436180.88149  -1479267.64347  24060495.8014   24060490.0234
       275.9224
    961454.96349    747384.89248  21987381.6684   21987378.2034
      -667.9064
  -2064593.95049  -1600741.41647  24807198.7384   24807194.9104
      1961.7504
 04  9  8 21 59 30.0040000  0  7G 3G 8G13G10G19G27G28
   3371231.30549   2626706.62047  24293516.0194   24293513.8324
     -2114.5784
  -4753131.89149  -3695910.67748  22569385.3014   22569381.6954
       594.5004
   7856777.59649   6113435.96948  21870580.8794   21870576.7074
     -2887.2194
  -1200981.64149   -930373.75646  24650197.3164   24650195.6524
       162.6724
  -1440266.34349  -1482451.10847  24059717.8094   24059712.4224
       268.2814
    971493.66649    755207.26048  21989292.0984   21989288.3554
      -671.1564
  -2094000.04749  -1623655.20147  24801602.3794   24801598.9494
      1958.5164
 04  9  8 21 59 45.0040000  0  7G 3G 8G13G10G19G27G28
   3403017.16549   2651474.79447  24299564.7384   24299562.3634
     -2124.0624
  -4762025.91549  -3702841.06948  22567692.5824   22567689.5864
       590.8594
   7900140.29049   6147225.07948  21878832.1604   21878828.2584
     -2895.0314
  -1203358.19349   -932225.60146  24649744.7544   24649743.5004
       153.5784
  -1444238.05849  -1485545.93747  24058961.7624   24058956.5274
       260.6724
    981580.55849    763067.17648  21991211.4184   21991208.3444
      -674.4224
  -2123357.41649  -1646531.03247  24796015.8094   24796012.9574
      1955.2034
 04  9  8 22  0  0.0040000  0  7G 3G 8G13G10G19G27G28
   3434946.20649   2676354.57047  24305641.2694   24305637.9964
     -2133.2664
  -4770866.03249  -3709729.46048  22566010.4104   22566007.0234
       587.6884
   7943619.56849   6181105.03148  21887106.2154   21887102.1444
     -2902.3594
  -1205597.79449   -933970.75146  24649319.4884   24649316.8284
       144.9384
  -1448095.14549  -1488551.42847  24058228.3554   24058222.0234
       253.4844
    991716.22849    770965.09548  21993140.3794   21993136.4964
      -677.2034
  -2152665.26249  -1669368.29947  24790438.8484   24790436.1174
      1952.3284
 04  9  8 22  0 15.0040000  0  7G 3G 8G13G10G19G27G28
   3467011.86149   2701340.76347  24311742.5904   24311739.8444
     -2142.4064
  -4779658.80349  -3716580.94648  22564337.4884   22564334.3364
       584.5164
   7987209.01149   6215070.82748  21895401.1214   21895396.6724
     -2909.7034
  -1207706.81849   -935614.12646  24648918.6134   24648915.9844
       136.1094
  -1451843.81349  -1491472.44047  24057514.4734   24057509.2894
       246.2504
   1001894.09949    778895.91248  21995076.8484   21995073.0744
      -679.9844
  -2181929.96049  -1692171.91747  24784869.2544   24784866.9534
      1949.5784
 04  9  8 22  0 30.0040000  0  7G 3G 8G13G10G19G27G28
   3499217.21349   2726435.86147  24317871.3094   24317868.5944
     -2151.3914
  -4788401.12849  -3723393.14548  22562673.5274   22562670.2694
       581.4224
   8030911.51349   6249124.71848  21903717.1684   21903712.9494
     -2916.9844
  -1209681.98649   -937153.19846  24648542.5594   24648540.3014
       127.3444
  -1455480.63949  -1494306.30947  24056822.8164   24056817.8284
       238.9534
   1012117.36349    786862.08648  21997022.1764   21997018.6764
      -682.8444
  -2211148.16949  -1714939.30847  24779309.4104   24779306.8094
      1946.6254
 04  9  8 22  0 45.0040000  0  7G 3G 8G13G10G19G27G28
   3531565.04249   2751641.94447  24324026.0194   24324024.4844
     -2161.8444
  -4797089.86949  -3730163.58248  22561020.5194   22561017.1764
       576.8914
   8074729.73349   6283268.75848  21912055.8014   21912051.6174
     -2925.7344
  -1211520.23349   -938585.60946  24648193.8014   24648189.6214
       117.3914
  -1459002.45949  -1497050.57647  24056153.3714   24056147.5394
       230.2504
   1022389.01849    794865.97448  21998976.6684   21998973.0274
      -687.0314
  -2240316.85349  -1737668.12147  24773757.8714   24773756.8054
      1942.2814
 04  9  8 22  1  0.0040000  0  7G 3G 8G13G10G19G27G28
   3564063.58349   2776965.50247  24330210.1604   24330208.8524
     -2171.5624
  -4805717.02749  -3736886.03748  22559379.0664   22559375.4654
       573.0944
   8118671.94149   6317509.43348  21920417.8794   21920413.8404
     -2933.6724
  -1213213.31049   -939904.89646  24647870.4654   24647867.2814
       107.9694
  -1462400.87649  -1499698.68747  24055506.1444   24055501.4884
       222.4844
   1032717.20149    802913.89748  22000942.3014   22000938.4614
      -690.4844
  -2269427.53049  -1760351.73447  24768219.1294   24768216.6564
      1938.8284
 04  9  8 22  1 15.0040000  0  7G 3G 8G13G10G19G27G28
   3596699.98649   2802396.46947  24336420.8244   24336419.7344
     -2180.4064
  -4814295.17749  -3743570.30948  22557746.2074   22557742.4614
       570.1254
   8162725.43649   6351836.82148  21928801.0904   21928796.8204
     -2940.7344
  -1214773.67649   -941120.73746  24647573.9804   24647570.6844
        99.4534
  -1465688.36149  -1502260.32947  24054879.8554   24054876.0434
       215.2974
   1043089.22049    810996.00848  22002916.4024   22002912.4144
      -693.0004
  -2298492.71049  -1782999.87947  24762687.7694   24762685.4344
      1936.0634
 04  9  8 22  1 30.0040000  0  7G 3G 8G13G10G19G27G28
   3629475.90749   2827936.14747  24342658.0984   24342657.1294
     -2190.0314
  -4822822.39849  -3750214.87548  22556123.6604   22556120.2504
       566.5634
   8206892.02349   6386252.32948  21937205.6054   21937201.1174
     -2948.4224
  -1216199.28049   -942231.64946  24647304.1994   24647299.4694
        90.0944
  -1468862.67749  -1504733.80147  24054276.6524   24054271.8244
       207.6094
   1053507.01149    819113.76348  22004898.2544   22004894.8164
      -696.3444
  -2327510.44249  -1805611.06747  24757166.3014   24757162.4884
      1932.6884
 04  9  8 22  1 45.0040000  0  7G 3G 8G13G10G19G27G28
   3662392.33749   2853585.29947  24348921.2624   24348920.2384
     -2198.7974
  -4831297.51949  -3756818.87348  22554510.5434   22554507.4614
       563.5634
   8251172.61449   6420756.67048  21945631.8014   21945627.0354
     -2955.5314
  -1217489.00149   -943236.62746  24647056.7854   24647053.9414
        81.5944
  -1471922.51749  -1507118.08747  24053694.2234   24053689.3634
       200.4844
   1063971.58849    827267.99148  22006890.0984   22006885.5514
      -698.9224
  -2356479.46549  -1828184.30447  24751653.3874   24751651.1914
      1930.0004
 04  9  8 22  2  0.0040000  0  7G 3G 8G13G10G19G27G28
   3695447.26149   2879342.36647  24355212.2544   24355210.1024
     -2208.1414
  -4839722.59849  -3763383.84448  22552907.4964   22552904.2504
       560.0944
   8295565.09549   6455348.20348  21954079.1444   21954075.5864
     -2963.0944
  -1218644.66649   -944137.12746  24646837.1214   24646833.7304
        72.6254
  -1474869.58349  -1509414.48247  24053133.0664   24053128.2854
       192.8594
   1074481.07249    835457.19748  22008889.5744   22008885.9374
      -702.0944
  -2385401.54049  -1850720.95647  24746150.0044   24746147.4924
      1926.6724
 04  9  8 22  2 15.0040000  0  7G 3G 8G13G10G19G27G28
   3728641.71349   2905208.21347  24361528.7384   24361525.8594
     -2217.6094
  -4848096.28249  -3769908.78548  22551313.9804   22551310.9224
       556.5784
   8340070.53249   6490027.73548  21962548.7694   21962544.4414
     -2970.7344
  -1219665.01549   -944932.22346  24646643.5354   24646639.4884
        63.5314
  -1477702.54849  -1511621.96647  24052593.6844   24052588.8444
       185.0634
   1085036.60249    843682.29448  22010897.9574   22010894.7194
      -705.1724
  -2414275.37449  -1873220.00247  24740655.6214   24740652.5864
      1923.3754
 04  9  8 22  2 30.0040000  0  7G 3G 8G13G10G19G27G28
   3761973.24049   2931180.80047  24367871.8874   24367867.4734
     -2226.8754
  -4856421.14549  -3776395.67148  22549729.9264   22549726.2694
       553.0004
   8384686.47549   6524793.39148  21971038.6374   21971034.5704
     -2978.4374
  -1220552.24749   -945623.54346  24646473.4964   24646470.8124
        54.3444
  -1480423.61749  -1513742.26947  24052076.7154   24052071.1294
       177.3134
   1095635.68749    851941.31248  22012915.4964   22012911.4144
      -708.3594
  -2443103.19749  -1895683.21947  24735170.4884   24735166.8284
      1920.0784
 04  9  8 22  2 45.0040000  0  7G 3G 8G13G10G19G27G28
   3795446.01549   2957263.46847  24374241.4024   24374238.6524
     -2236.2974
  -4864692.62249  -3782840.97748  22548155.9654   22548152.4144
       549.5784
   8429417.18949   6559648.46848  21979550.4414   21979546.5514
     -2985.8914
  -1221301.94649   -946207.72046  24646330.7234   24646328.2774
        45.3754
  -1483028.13549  -1515771.74847  24051580.5514   24051575.0124
       169.6254
   1106282.73449    860237.70248  22014941.3094   22014937.6684
      -711.4534
  -2471880.46349  -1918107.00847  24729692.9104   24729690.3714
      1916.7194
 04  9  8 22  3  0.0040000  0  7G 3G 8G13G10G19G27G28
   3829054.66349   2983451.99247  24380636.9414   24380634.5234
     -2245.6564
  -4872915.91849  -3789248.72548  22546591.0984   22546587.2074
       546.0944
   8474257.22049   6594588.73048  21988083.2154   21988079.2774
     -2993.4844
  -1221919.18749   -946688.70446  24646214.1444   24646210.1994
        36.2504
  -1485521.07649  -1517714.27847  24051105.6374   24051100.6604
       161.9844
   1116972.59249    868567.46548  22016975.6994   22016971.4344
      -714.5784
  -2500612.30749  -1940495.42447  24724226.3944   24724222.3674
      1913.5474
 04  9  8 22  3 15.0040000  0  7G 3G 8G13G10G19G27G28
   3862808.36349   3009753.58447  24387060.3554   24387057.4494
     -2255.1874
  -4881081.99449  -3795611.90448  22545037.1054   22545033.4964
       542.5004
   8519215.81649   6629621.39748  21996638.9264   21996634.5594
     -3001.1254
  -1222394.53349   -947059.09546  24646122.6914   24646119.8484
        26.9844
  -1487893.00149  -1519562.53347  24050654.7384   24050649.1094
       154.2504
   1127714.43549    876937.73248  22019019.4024   22019015.6054
      -717.7664
  -2529289.17149  -1962840.99747  24718768.7234   24718765.8834
      1910.0474
 04  9  8 22  3 30.0040000  0  7G 3G 8G13G10G19G27G28
   3896700.70049   3036163.18347  24393509.2384   24393507.2974
     -2264.4224
  -4889196.97449  -3801935.23848  22543492.7234   22543489.1484
       539.0164
   8564286.63049   6664741.49648  22005215.2234   22005211.2694
     -3008.7344
  -1222734.26949   -947323.77346  24646057.5664   24646055.1994
        17.8444
  -1490149.91849  -1521321.13947  24050225.4024   24050219.8204
       146.3754
   1138502.05449    885343.67148  22021072.5044   22021068.9924
      -720.9534
  -2557917.31349  -1985148.60347  24713320.7934   24713318.1484
      1906.6724
 04  9  8 22  3 45.0040000  0  7G 3G 8G13G10G19G27G28
   3930730.50949   3062679.94647  24399985.1294   24399982.3674
     -2273.0004
  -4897261.58749  -3808219.34448  22541958.1994   22541954.3124
       536.1414
   8609468.52649   6699948.15248  22013813.1914   22013808.9844
     -3015.7034
  -1222939.09649   -947483.38046  24646020.2854   24646016.6764
         9.4224
  -1492292.64749  -1522990.77547  24049817.4024   24049811.7854
       139.1884
   1149334.41149    893784.46748  22023133.7464   22023129.6134
      -723.4374
  -2586497.44549  -2007418.78347  24707882.3874   24707879.3984
      1903.9534
 04  9  8 22  4  0.0040000  0  7G 3G 8G13G10G19G27G28
   3964897.35749   3089303.46247  24406487.1844   24406484.6214
     -2282.7034
  -4905276.33949  -3814464.61148  22540433.0194   22540429.2694
       532.2344
   8654761.00949   6735240.97548  22022432.2384   22022427.9844
     -3023.5474
  -1223009.41249   -947538.16246  24646006.1914   24646003.0004
        -0.0944
  -1494321.32649  -1524571.55447  24049431.4804   24049426.2114
       131.0634
   1160211.18849    902259.87048  22025203.7384   22025200.2814
      -726.9844
  -2615029.80349  -2029651.79847  24702452.6134   24702449.7544
      1900.1094
 04  9  8 22  4 15.0040000  0  7G 3G 8G13G10G19G27G28
   3999206.55349   3116037.89047  24413015.2234   24413014.2694
     -2292.1094
  -4913235.90949  -3820666.86848  22538918.6604   22538914.8124
       528.7504
   8700169.42549   6770624.13648  22031073.1994   22031068.6604
     -3031.1414
  -1222939.72448   -947483.90046  24646018.4024   24646015.7344
        -9.5314
  -1496230.16049  -1526058.94147  24049068.3324   24049063.2464
       123.1884
   1171137.74349    910774.06448  22027282.8164   22027278.8444
      -730.2814
  -2643508.93849  -2051843.28047  24697033.0904   24697030.8484
      1896.7664
 04  9  8 22  4 30.0040000  0  7G 3G 8G13G10G19G27G28
   4033658.44449   3142883.51847  24419572.6444   24419570.9024
     -2301.3914
  -4921139.70149  -3826825.64248  22537414.3014   22537411.3204
       525.1564
   8745694.17149   6806097.95748  22039736.6374   22039731.8714
     -3038.7814
  -1222729.27448   -947319.85646  24646060.0124   24646056.3124
       -18.6564
  -1498018.43049  -1527452.35947  24048727.9024   24048723.0514
       115.2504
   1182114.63549    919327.49848  22029371.5984   22029367.8324
      -733.3754
  -2671934.04349  -2073992.69247  24691623.6604   24691622.0124
      1893.3284
 04  9  8 22  4 45.0040000  0  7G 3G 8G13G10G19G27G28
   4068253.57349   3169840.76147  24426155.8874   24426153.3714
     -2311.3914
  -4928986.95649  -3832940.37248  22535920.9104   22535917.4374
       520.9844
   8791335.86349   6841662.90048  22048421.5744   22048417.3404
     -3047.0004
  -1222377.43049   -947045.74046  24646126.9104   24646123.1564
       -28.4534
  -1499685.38349  -1528751.26647  24048410.5194   24048406.3244
       106.8134
   1193142.57349    927920.69848  22031469.8014   22031466.0864
      -737.1254
  -2700304.41449  -2096099.44047  24686225.3634   24686222.7544
      1889.2974
 04  9  8 22  5  0.0040000  0  7G 3G 8G13G10G19G27G28
   4102986.49749   3196905.38847  24432764.8794   24432762.7464
     -2320.0164
  -4936783.07949  -3839015.26548  22534437.5594   22534434.4414
       518.1724
   8837089.24849   6877314.88248  22057128.0744   22057124.1684
     -3053.8124
  -1221889.26148   -946665.30846  24646218.9494   24646216.2894
       -36.8914
  -1501235.97549  -1529959.50847  24048115.3874   24048111.3944
        99.5784
   1204216.18149    936549.48848  22033577.5904   22033573.9184
      -739.6094
  -2728625.13149  -2118167.49447  24680835.5124   24680833.5704
      1886.5314
 04  9  8 22  5 15.0040000  0  7G 3G 8G13G10G19G27G28
   4137860.25349   3224079.71247  24439400.3404   24439398.2234
     -2330.0314
  -4944524.95349  -3845047.89448  22532964.3944   22532961.3594
       513.8754
   8882956.80949   6913055.82848  22065856.7384   22065852.5554
     -3062.0314
  -1221261.66748   -946176.31446  24646338.8554   24646335.5194
       -46.9064
  -1502666.98549  -1531074.56447  24047842.9734   24047839.0554
        91.0314
   1215338.51149    945216.24048  22035694.1214   22035690.1414
      -743.4224
  -2756892.90549  -2140194.30547  24675456.0124   24675454.7304
      1882.3594
 04  9  8 22  5 30.0040000  0  7G 3G 8G13G10G19G27G28
   4172873.52349   3251362.78347  24446064.5514   24446060.5314
     -2339.0004
  -4952213.45149  -3851038.93048  22531501.0434   22531498.2894
       510.6094
   8928937.68849   6948885.05748  22074606.2074   22074603.0044
     -3069.3444
  -1220495.56749   -945579.33146  24646483.9574   24646481.4374
       -55.9224
  -1503979.24149  -1532097.08047  24047593.1604   24047588.5044
        83.3754
   1226508.53249    953920.14248  22037819.6444   22037815.8984
      -746.4374
  -2785108.71149  -2162180.59847  24670087.6444   24670084.8714
      1879.1724
 04  9  8 22  5 45.0040000  0  7G 3G 8G13G10G19G27G28
   4208029.69349   3278757.19147  24452753.5274   24452751.1684
     -2347.9844
  -4959845.33549  -3856985.84648  22530048.7934   22530046.3834
       507.4534
   8975035.06349   6984805.07048  22083378.4574   22083374.5744
     -3076.5314
  -1219587.39348   -944871.65046  24646657.3484   24646654.1414
       -64.7034
  -1505169.01549  -1533024.15647  24047367.2854   24047362.2424
        75.8284
   1237729.70549    962663.91548  22039954.9574   22039951.2854
      -749.2664
  -2813268.96649  -2184123.61747  24664729.0904   24664726.2624
      1876.0004
 04  9  8 22  6  0.0040000  0  7G 3G 8G13G10G19G27G28
   4243320.82149   3306256.72747  24459470.1684   24459467.4494
     -2357.4694
  -4967428.21549  -3862894.58248  22528606.0354   22528602.4104
       503.6254
   9021241.05249   7020809.72148  22092171.4884   22092166.9614
     -3084.2504
  -1218544.83648   -944059.26546  24646856.0514   24646853.0354
       -74.1874
  -1506243.98749  -1533861.78047  24047162.4184   24047156.8834
        67.6254
   1248994.28649    971441.51048  22042098.9494   22042095.1524
      -752.6564
  -2841381.17449  -2206029.19147  24659379.9184   24659376.6604
      1872.3134
 04  9  8 22  6 15.0040000  0  7G 3G 8G13G10G19G27G28
   4278749.83049   3333863.77147  24466211.3634   24466209.4184
     -2365.9694
  -4974958.96649  -3868762.69248  22527173.2774   22527169.6724
       500.9384
   9067558.80849   7056901.46048  22100984.8944   22100980.7624
     -3090.9534
  -1217364.56348   -943139.55846  24647080.4964   24647077.2074
       -82.7344
  -1507200.78949  -1534607.32747  24046980.2304   24046974.9654
        60.4224
   1260305.45649    980255.40848  22044251.2774   22044247.1094
      -755.0164
  -2869442.13749  -2227894.85047  24654039.3244   24654037.3404
      1869.6414
 04  9  8 22  6 30.0040000  0  7G 3G 8G13G10G19G27G28
   4314309.61449   3361572.69647  24472977.9804   24472976.7544
     -2375.7974
  -4982444.75249  -3874595.76048  22525748.6684   22525745.0194
       496.6884
   9113980.95049   7093074.54048  22109818.6994   22109814.6644
     -3099.0784
  -1216053.54848   -942117.97546  24647329.5904   24647327.3984
       -92.7504
  -1508046.21049  -1535266.08047  24046819.1134   24046814.5744
        51.7504
   1271656.01349    989100.01148  22046410.7624   22046406.8914
      -758.8444
  -2897458.79549  -2249725.96247  24648708.4734   24648706.0474
      1865.5314
 04  9  8 22  6 45.0040000  0  7G 3G 8G13G10G19G27G28
   4350013.64749   3389394.03047  24479772.5124   24479771.4844
     -2385.0624
  -4989871.71649  -3880382.99748  22524335.0744   22524331.5004
       493.1564
   9160521.06249   7129339.54948  22118674.8094   22118670.8054
     -3106.6564
  -1214598.23148   -940983.88946  24647603.7854   24647604.5354
      -102.0784
  -1508766.46549  -1535827.30147  24046681.8484   24046677.1874
        43.7814
   1283059.55849    997985.88948  22048580.7624   22048576.7194
      -762.0004
  -2925417.44649  -2271511.88447  24643388.4654   24643385.2304
      1861.9534
 04  9  8 22  7  0.0040000  0  7G 3G 8G13G10G19G27G28
   4385860.72849   3417326.82847  24486594.0824   24486592.2774
     -2394.4224
  -4997240.84449  -3886125.17848  22522932.8094   22522928.9144
       489.4694
   9207178.23349   7165695.76748  22127554.0044   22127549.6294
     -3114.2344
  -1212999.37648   -939738.06346  24647910.5434   24647908.6254
      -111.1724
  -1509362.22849  -1536291.51347  24046568.8324   24046563.3754
        35.7194
   1294515.27649   1006912.42548  22050760.6054   22050756.6724
      -765.3124
  -2953318.82749  -2293253.18947  24638078.3634   24638075.9144
      1858.3134
 04  9  8 22  7 15.0040000  0  7G 3G 8G13G10G19G27G28
   4421846.09749   3445367.33947  24493441.8404   24493440.0394
     -2403.5004
  -5004556.75849  -3891825.88648  22521540.9804   22521536.7854
       485.9694
   9253947.57649   7202139.40148  22136453.7074   22136449.3834
     -3121.6564
  -1211261.36348   -938383.84946  24648241.2074   24648238.2234
      -120.2814
  -1509837.92149  -1536662.15647  24046478.6524   24046472.9844
        27.7504
   1306018.47749   1015875.95548  22052949.5354   22052946.1524
      -768.3284
  -2981167.48949  -2314953.41247  24632778.9264   24632775.0824
      1854.8134
 04  9  8 22  7 30.0040000  0  7G 3G 8G13G10G19G27G28
   4457967.61349   3473514.00747  24500315.5904   24500313.5904
     -2412.8124
  -5011821.40049  -3897486.62348  22520158.2624   22520154.0704
       482.4384
   9300827.12249   7238668.89848  22145374.5984   22145370.5514
     -3129.1564
  -1209386.44448   -936922.79846  24648596.9734   24648595.6094
      -130.2194
  -1510195.34949  -1536940.63647  24046410.7544   24046405.6564
        19.7344
   1317567.28249   1024875.02348  22055147.3554   22055143.5594
      -771.6254
  -3008965.07849  -2336613.82047  24627488.5434   24627485.7194
      1851.3284
 04  9  8 22  7 45.0040000  0  7G 3G 8G13G10G19G27G28
   4494228.30749   3501769.10947  24507215.8014   24507213.4064
     -2421.5624
  -5019031.81749  -3903105.12648  22518786.0664   22518782.1874
       479.4384
   9347819.67549   7275286.45448  22154317.0824   22154313.1524
     -3136.1414
  -1207371.20358   -935352.42256  24648984.0824   24648979.1604
      -138.4694
  -1510431.21449  -1537124.41447  24046366.5594   24046360.5084
        12.1564
   1329164.58949   1033911.89248  22057354.4494   22057350.7664
      -774.2664
  -3036708.51949  -2358232.01647  24622209.6214   24622206.5274
      1848.2814
 04  9  8 22  8  0.0040000  0  7G 3G 8G13G10G19G27G28
   4530628.02149   3530132.49447  24514142.4494   24514140.0704
     -2430.9064
  -5026187.89049  -3908681.28048  22517424.1844   22517420.7624
       475.6254
   9394924.98149   7311991.87148  22163281.1684   22163277.6024
     -3143.8594
  -1205215.66358   -933672.75356  24649390.7854   24649389.1564
      -147.9844
  -1510545.30949  -1537213.31847  24046343.9024   24046339.0824
         3.7814
   1340810.50749   1042986.62048  22059570.8484   22059566.7074
      -777.7034
  -3064397.56549  -2379807.87847  24616940.2624   24616937.3594
      1844.5314
 04  9  8 22  8 15.0040000  0  7G 3G 8G13G10G19G27G28
   4567161.39749   3558600.04647  24521094.5664   24521092.1094
     -2440.0004
  -5033294.76449  -3914219.08048  22516071.7854   22516068.1564
       472.2034
   9442138.00149   7348781.22448  22172265.4654   22172260.6914
     -3151.1094
  -1202924.64149   -931887.58846  24649828.0044   24649825.0594
      -157.4064
  -1510542.49349  -1537211.09547  24046345.1914   24046339.1294
        -4.0944
   1352499.90649   1052095.25448  22061794.7384   22061791.5664
      -780.7194
  -3092037.20649  -2401345.19847  24611681.2544   24611677.2774
      1840.9534
 04  9  8 22  8 30.0040000  0  7G 3G 8G13G10G19G27G28
   4603833.00649   3587175.33747  24528073.2774   24528070.2384
     -2449.4374
  -5040347.46449  -3919714.69548  22514729.7154   22514726.1444
       468.3444
   9489463.36549   7385658.12248  22181270.9184   22181266.6874
     -3158.7504
  -1200493.54348   -929993.17146  24650290.0434   24650287.8094
      -166.7034
  -1510417.81749  -1537113.93847  24046368.5594   24046363.0784
       -12.3754
   1364237.57849   1061241.48948  22064028.5664   22064024.4804
      -784.0944
  -3119622.46049  -2422840.17547  24606430.6604   24606428.4414
      1837.2974
 04  9  8 22  8 45.0040000  0  7G 3G 8G13G10G19G27G28
   4640638.88049   3615855.25247  24535075.9344   24535074.1874
     -2458.4374
  -5047350.01649  -3925171.21348  22513396.8944   22513393.0744
       464.9064
   9536897.16949   7422619.51548  22190297.4654   22190293.4144
     -3166.1874
  -1197926.10949   -927992.62346  24650779.8874   24650776.1804
      -175.9694
  -1510174.99949  -1536924.72347  24046414.3634   24046408.6724
       -20.4844
   1376019.66449   1070422.33948  22066270.8244   22066267.3204
      -787.2814
  -3147157.19549  -2444295.80847  24601192.0664   24601188.0474
      1833.6884
 04  9  8 22  9  0.0040000  0  7G 3G 8G13G10G19G27G28
   4677578.87649   3644639.64947  24542105.3094   24542103.6094
     -2467.6094
  -5054302.33049  -3930588.59948  22512074.1684   22512070.7584
       461.3754
   9584438.91649   7459665.02148  22199344.1524   22199340.4614
     -3173.4534
  -1195222.25449   -925885.70646  24651292.5044   24651289.9654
      -185.2034
  -1509813.88249  -1536643.31647  24046483.3094   24046477.9924
       -28.4374
   1387846.02649   1079637.68648  22068521.5434   22068517.5004
      -790.3124
  -3174641.32449  -2465711.96647  24595961.0664   24595958.1604
      1830.1564
 04  9  8 22  9 15.0040000  0  7G 3G 8G13G10G19G27G28
   4714657.16749   3673531.84747  24549159.4184   24549158.8124
     -2476.0474
  -5061199.98249  -3935963.38148  22510761.8554   22510758.1374
       458.4534
   9632093.01249   7496798.08248  22208412.3794   22208408.1954
     -3180.2974
  -1192377.49249   -923668.98446  24651835.0044   24651830.6954
      -194.0004
  -1509329.82949  -1536266.12647  24046574.9104   24046569.7274
       -35.9694
   1399721.21249   1088891.08248  22070781.0984   22070777.0474
      -792.8754
  -3202070.28349  -2487085.12847  24590742.2234   24590739.3094
      1827.1564
 04  9  8 22  9 30.0040000  0  7G 3G 8G13G10G19G27G28
   4751872.98649   3702531.15647  24556243.0274   24556241.3944
     -2485.7504
  -5068043.76449  -3941296.20148  22509460.1684   22509455.7114
       454.5314
   9679858.67149   7534018.05148  22217502.4344   22217498.0164
     -3188.0314
  -1189392.34249   -921342.94646  24652404.3324   24652399.3324
      -203.6254
  -1508723.34649  -1535793.53547  24046690.3324   24046685.5474
       -44.4224
   1411644.38249   1098181.85248  22073049.7694   22073045.9454
      -796.4064
  -3229444.53349  -2508415.68647  24585532.9654   24585530.0314
      1823.2814
 04  9  8 22  9 45.0040000  0  7G 3G 8G13G10G19G27G28
   4789225.87849   3731637.31247  24563352.0514   24563349.7814
     -2494.1874
  -5074833.71249  -3946587.05848  22508167.1444   22508163.6444
       451.4064
   9727735.63149   7571324.77448  22226612.5984   22226608.7664
     -3194.9844
  -1186266.93549   -918907.51346  24652998.3944   24652993.9024
      -212.4694
  -1507994.30549  -1535225.42847  24046829.1684   24046824.3324
       -52.1564
   1423615.49249   1107509.99648  22075327.6764   22075324.0744
      -799.1724
  -3256764.01149  -2529703.55447  24580333.9104   24580330.9494
      1820.0164
 04  9  8 22 10  0.0040000  0  7G 3G 8G13G10G19G27G28
   4826715.43149   3760849.93547  24570485.8094   24570483.0434
     -2504.1724
  -5081570.17149  -3951836.24148  22506885.3554   22506881.7974
       446.9384
   9775723.52049   7608717.90948  22235744.4734   22235740.5744
     -3203.2504
  -1183001.55849   -916363.06446  24653618.7694   24653615.5474
      -222.6254
  -1507142.86249  -1534561.95647  24046991.4184   24046986.0194
       -61.2344
   1435634.29749   1116875.29848  22077614.7934   22077611.2304
      -803.1724
  -3284028.93249  -2550948.90347  24575145.7934   24575142.0784
      1815.4384
 04  9  8 22 10 15.0040000  0  7G 3G 8G13G10G19G27G28
   4864343.85749   3790170.80447  24577646.0904   24577644.0044
     -2512.7344
  -5088250.68749  -3957041.83148  22505614.1524   22505610.1994
       443.9064
   9823824.59749   7646199.24848  22244897.5594   22244893.8674
     -3210.0474
  -1179593.81549   -913707.69946  24654268.1844   24654264.2034
      -231.4844
  -1506166.36949  -1533801.05247  24047177.3014   24047171.8094
       -68.8754
   1447703.08749   1126279.55948  22079911.5824   22079907.9964
      -805.7814
  -3311236.81249  -2572149.78547  24569968.3714   24569964.6134
      1812.3134
 04  9  8 22 10 30.0040000  0  7G 3G 8G13G10G19G27G28
   4902110.29349   3819599.15647  24584832.4494   24584831.0904
     -2522.6094
  -5094876.06349  -3962204.45248  22504353.4184   22504349.7114
       439.5314
   9872037.72049   7683767.90148  22254072.3164   22254068.6054
     -3218.2344
  -1176044.25549   -910941.83046  24654943.3944   24654939.6174
      -241.5944
  -1505065.54749  -1532943.24747  24047386.4264   24047381.9344
       -77.7814
   1459821.08749   1135722.14748  22082217.4734   22082213.7274
      -809.7344
  -3338388.28349  -2593306.76447  24564802.0514   24564797.8524
      1807.9534
 04  9  8 22 10 45.0040000  0  7G 3G 8G13G10G19G27G28
   4940014.70049   3849135.06947  24592045.5274   24592043.6054
     -2531.5164
  -5101446.13449  -3967323.98148  22503102.8404   22503099.3944
       436.2344
   9920363.05949   7721423.98248  22263268.8714   22263264.7034
     -3225.3444
  -1172352.55449   -908065.17746  24655645.7074   24655642.1844
      -250.7504
  -1503839.93949  -1531988.22347  24047620.2464   24047614.8674
       -85.7974
   1471988.63149   1145203.35048  22084532.9654   22084529.0434
      -812.7664
  -3365482.94949  -2614419.43847  24559645.0824   24559641.5394
      1804.4694
 04  9  8 22 11  0.0040000  0  7G 3G 8G13G10G19G27G28
   4978051.03049   3878773.77247  24599284.0904   24599281.2894
     -2540.2974
  -5107966.72549  -3972404.95848  22501862.0984   22501858.8714
       432.9064
   9968794.63949   7759162.85748  22272484.9494   22272480.8634
     -3232.5474
  -1168524.52649   -905082.30446  24656374.6524   24656371.2034
      -259.9374
  -1502495.19849  -1530940.35247  24047875.6444   24047871.0664
       -93.7814
   1484199.68149   1154718.45248  22086856.7544   22086853.2734
      -815.6874
  -3392526.65249  -2635492.40447  24554498.3634   24554495.7624
      1801.0164
 04  9  8 22 11 15.0040000  0  7G 3G 8G13G10G19G27G28
   5016228.63549   3908522.57847  24606548.3794   24606545.4614
     -2549.6414
  -5114428.12049  -3977439.79748  22500632.4804   22500628.9344
       429.0944
  10017341.75149   7796991.75948  22281723.0984   22281719.0944
     -3240.0624
  -1164550.76149   -901985.88446  24657129.7854   24657126.9884
      -269.6414
  -1501021.77249  -1529792.20947  24048155.7624   24048150.8124
      -102.2974
   1496463.70849   1164274.84448  22089190.5904   22089186.6604
      -819.1094
  -3419509.85449  -2656518.25147  24549363.9184   24549360.9574
      1797.1254
 04  9  8 22 11 30.0040000  0  7G 3G 8G13G10G19G27G28
   5054541.66649   3938376.87447  24613838.6684   24613836.1724
     -2558.7194
  -5120835.96549  -3982432.91648  22499412.7774   22499409.5744
       425.4064
  10065998.63249   7834906.20348  22290982.0514   22290977.9534
     -3247.3914
  -1160436.81349   -898780.22946  24657912.4104   24657909.9144
      -278.9064
  -1499424.97149  -1528547.94647  24048459.4024   24048454.9184
      -110.5004
   1508775.15049   1173868.17448  22091533.0514   22091529.5474
      -822.2974
  -3446437.90149  -2677501.13347  24544239.6994   24544237.4064
      1793.2344
 04  9  8 22 11 45.0050000  0  7G 3G 8G13G10G19G27G28
   5092999.02449   3968343.62547  24621157.4934   24621154.1224
     -2567.9224
  -5127184.30349  -3987379.65248  22498204.9784   22498201.5794
       421.7194
  10114774.94949   7872913.71248  22300264.0324   22300260.2124
     -3254.9374
  -1156175.80949   -895459.96446  24658723.7434   24658720.7944
      -288.3594
  -1497697.99449  -1527202.21447  24048787.6424   24048783.3104
      -118.9374
   1521141.47349   1183504.27148  22093886.0244   22093882.3564
      -825.5624
  -3473305.93249  -2698437.22347  24539127.0324   24539124.4624
      1789.5164
 04  9  8 22 12  0.0050000  0  7G 3G 8G13G10G19G27G28
   5131587.20049   3998412.32847  24628501.0794   24628497.4584
     -2577.4374
  -5133480.61549  -3992285.86148  22497006.6034   22497003.6534
       417.6254
  10163655.83449   7911002.69948  22309565.2594   22309561.8104
     -3262.7194
  -1151776.43849   -892031.87246  24659560.5094   24659558.8924
      -298.4694
  -1495849.16549  -1525761.56247  24049139.8844   24049135.3924
      -127.7664
   1533552.67149   1193175.32748  22096247.5014   22096244.7594
      -829.3124
  -3500118.39249  -2719330.01547  24534025.7514   24534021.3604
      1785.2504
 04  9  8 22 12 15.0050000  0  7G 3G 8G13G10G19G27G28
   5170311.96749   4028587.44847  24635871.0564   24635867.4504
     -2585.7194
  -5139721.93149  -3997149.22948  22495819.2044   22495815.8924
       414.7034
  10212647.73949   7949178.18048  22318888.3454   22318884.7044
     -3269.4064
  -1147234.94349   -888493.05346  24660424.3534   24660422.1184
      -307.1414
  -1493874.69849  -1524222.99247  24049515.7824   24049511.4114
      -135.3754
   1546013.07349   1202884.72948  22098619.4934   22098615.7394
      -831.8754
  -3526873.59449  -2740178.16147  24528933.7044   24528930.2864
      1782.1094
 04  9  8 22 12 30.0050000  0  7G 3G 8G13G10G19G27G28
   5209167.21449   4058864.26847  24643264.4934   24643261.7044
     -2595.1724
  -5145913.72049  -4001973.98548  22494641.2044   22494638.3214
       410.6724
  10261744.68949   7987435.54448  22328231.4624   22328227.1924
     -3277.0784
  -1142557.13949   -884848.00546  24661315.2984   24661313.1384
      -316.9224
  -1491780.29249  -1522590.95447  24049915.2674   24049909.6494
      -144.0944
   1558516.62549   1212627.75948  22100998.8294   22100994.9314
      -835.5004
  -3553577.35349  -2760986.27147  24523852.0954   24523849.1384
      1778.0944
 04  9  8 22 12 45.0050000  0  7G 3G 8G13G10G19G27G28
   5248163.46349   4089250.96247  24650684.5484   24650681.9744
     -2604.0944
  -5152045.55949  -4006752.03548  22493474.2824   22493470.8374
       407.1254
  10310957.21549   8025782.93648  22337596.2284   22337592.3924
     -3284.2814
  -1137732.29149   -881088.37146  24662233.6964   24662231.2864
      -326.2504
  -1489555.07649  -1520857.03147  24050338.5634   24050332.0994
      -152.3914
   1571074.09949   1222412.80548  22103388.4234   22103384.3414
      -838.6564
  -3580218.67949  -2781745.71047  24518782.2204   24518779.4504
      1774.3594
 04  9  8 22 13  0.0050000  0  7G 3G 8G13G10G19G27G28
   5287291.50549   4119740.35147  24658130.6034   24658127.7314
     -2613.2344
  -5158126.53749  -4011490.46248  22492317.1884   22492313.6654
       403.3754
  10360276.15349   8064213.24848  22346981.3924   22346977.1494
     -3291.7814
  -1132769.48649   -877221.25746  24663177.4074   24663174.8334
      -335.7194
  -1487208.02049  -1519028.14347  24050784.6034   24050779.5404
      -160.7504
   1583676.51049   1232232.86148  22105786.5094   22105782.0634
      -841.9844
  -3606806.56849  -2802463.51647  24513722.9854   24513720.5094
      1770.4064
 04  9  8 22 13 15.0050000  0  7G 3G 8G13G10G19G27G28
   5326554.99949   4150335.26147  24665601.4154   24665600.1344
     -2622.3444
  -5164152.54449  -4016186.03948  22491170.5954   22491166.9074
       399.5944
  10409705.04349   8102729.25348  22356387.2124   22356383.2744
     -3299.2344
  -1127664.81149   -873243.57647  24664150.1104   24664146.5874
      -345.3284
  -1484735.12449  -1517101.20047  24051255.1814   24051250.6264
      -169.3594
   1596327.61749   1242090.87048  22108194.1574   22108189.9504
      -845.3444
  -3633337.13149  -2823136.66447  24508673.8764   24508670.9314
      1766.4384
 04  9  8 22 13 30.0050000  0  7G 3G 8G13G10G19G27G28
   5365953.75349   4181035.62447  24673098.5954   24673097.1614
     -2630.8444
  -5170123.72049  -4020838.89148  22490034.1184   22490031.0834
       396.4384
  10459243.97249   8141331.01048  22365814.3534   22365810.2284
     -3306.0164
  -1122418.01749   -869155.22146  24665146.5794   24665144.8564
      -354.2974
  -1482136.10449  -1515075.96147  24051749.7744   24051745.4464
      -177.2504
   1609027.53649   1251986.92348  22110610.3374   22110606.7314
      -848.0944
  -3659810.16749  -2843764.93847  24503636.6734   24503633.8024
      1763.0944
 04  9  8 22 13 45.0050000  0  7G 3G 8G13G10G19G27G28
   5405487.05849   4211840.77047  24680622.7124   24680620.5244
     -2640.5004
  -5176040.62149  -4025449.45348  22488908.3684   22488904.4974
       392.1724
  10508892.04149   8180017.79848  22375262.4074   22375257.9814
     -3313.9374
  -1117029.73849   -864956.54047  24666173.4934   24666170.2904
      -364.4534
  -1479411.41049  -1512952.83747  24052267.8844   24052263.3684
      -186.3594
   1621775.65649   1261920.51848  22113036.7674   22113032.3334
      -851.9224
  -3686226.14249  -2864348.78747  24498609.3994   24498606.4424
      1758.6414
 04  9  8 22 14  0.0050000  0  7G 3G 8G13G10G19G27G28
   5445155.73349   4242751.42847  24688171.5564   24688168.0284
     -2648.8594
  -5181901.99849  -4030016.75048  22487792.3844   22487789.4314
       389.1094
  10558650.26349   8218790.43048  22384730.8214   22384726.7674
     -3320.6564
  -1111498.89349   -860646.76347  24667225.0324   24667222.9274
      -373.3124
  -1476559.86549  -1510730.83347  24052810.9234   24052806.4784
      -194.1564
   1634572.98549   1271892.46548  22115471.7594   22115468.1064
      -854.5944
  -3712583.76049  -2884887.17447  24493593.9154   24493590.5794
      1755.2344
 04  9  8 22 14 15.0050000  0  7G 3G 8G13G10G19G27G28
   5484960.66749   4273768.24547  24695746.6034   24695743.1494
     -2657.8124
  -5187706.89849  -4034540.03448  22486688.0174   22486684.9034
       385.4064
  10608519.32249   8257649.42248  22394220.5794   22394216.6224
     -3327.9224
  -1105824.35049   -856225.02247  24668304.7434   24668302.5404
      -382.6254
  -1473580.13849  -1508408.96047  24053378.5794   24053373.6064
      -202.5624
   1647420.67649   1281903.64548  22117916.8134   22117912.9784
      -857.8594
  -3738881.92049  -2905379.19947  24488588.6264   24488587.0404
      1751.5474
 04  9  8 22 14 30.0050000  0  7G 3G 8G13G10G19G27G28
   5524900.74549   4304890.36047  24703346.5324   24703343.6104
     -2666.9224
  -5193456.16449  -4039019.98148  22485593.8214   22485590.5014
       381.7194
  10658498.32649   8296594.09048  22403730.9624   22403727.4354
     -3335.2974
  -1100006.98049   -851691.99947  24669412.0794   24669409.8844
      -392.1564
  -1470472.92649  -1505987.73547  24053969.3534   24053964.2474
      -211.0624
   1660317.74349   1291953.30748  22120370.4154   22120366.9544
      -861.1564
  -3765121.37849  -2925825.51947  24483595.9854   24483593.4384
      1747.6254
 04  9  8 22 14 45.0050000  0  7G 3G 8G13G10G19G27G28
   5564975.66149   4336117.58347  24710972.6574   24710969.6064
     -2676.9064
  -5199149.78449  -4043456.55248  22484510.5174   22484506.7044
       376.9384
  10708586.98649   8335624.20548  22413262.8064   22413258.9194
     -3343.7664
  -1094046.68949   -847047.64447  24670546.7044   24670543.9854
      -403.0314
  -1467238.14849  -1503467.12747  24054584.5404   24054579.2784
      -220.7194
   1673264.20649   1302041.47848  22122834.2124   22122830.5634
      -865.5944
  -3791302.07949  -2946226.03047  24478613.9624   24478611.6964
      1742.5314
 04  9  8 22 15  0.0050000  0  7G 3G 8G13G10G19G27G28
   5605188.28949   4367452.07747  24718623.9464   24718621.5714
     -2685.6414
  -5204784.82949  -4047847.49548  22483438.2124   22483434.2984
       373.5634
  10758788.13149   8374741.94248  22422815.4464   22422812.2434
     -3350.6094
  -1087940.59649   -842289.63947  24671708.6104   24671705.2204
      -412.1094
  -1463872.70249  -1500844.68047  24055225.2284   24055220.1264
      -228.9064
   1686262.93749   1312170.35548  22125308.1104   22125304.1814
      -868.4694
  -3817420.88249  -2966578.31847  24473643.4384   24473640.9544
      1739.0004
 04  9  8 22 15 15.0050000  0  7G 3G 8G13G10G19G27G28
   5645535.76449   4398891.66647  24726302.8064   24726299.8564
     -2694.2974
  -5210363.95449  -4052194.85048  22482376.6264   22482372.6884
       370.1414
  10809098.98249   8413945.17248  22432389.3374   22432385.5564
     -3357.6254
  -1081691.24049   -837419.98447  24672896.8294   24672894.9074
      -421.2344
  -1460379.04449  -1498122.33147  24055890.3134   24055884.6614
      -237.1414
   1699311.38049   1322337.96548  22127791.0874   22127787.0054
      -871.5314
  -3843480.24049  -2986884.27547  24468684.9234   24468682.2904
      1735.3914
 04  9  8 22 15 30.0050000  0  7G 3G 8G13G10G19G27G28
   5686016.44449   4430435.03147  24734005.1884   24734002.9074
     -2703.1094
  -5215888.48849  -4056499.67548  22481324.8994   22481321.6884
       366.5474
  10859517.97849   8453232.69648  22441983.6734   22441980.1774
     -3364.8444
  -1075300.06149   -832439.88047  24674114.9624   24674111.5444
      -430.8444
  -1456758.48049  -1495301.09047  24056579.1574   24056573.6774
      -245.5784
   1712408.14549   1332543.24848  22130282.9624   22130279.2314
      -874.6414
  -3869481.58649  -3007145.01147  24463736.7514   24463733.6424
      1731.5474
 04  9  8 22 15 45.0050000  0  7G 3G 8G13G10G19G27G28
   5726629.54949   4462081.60447  24741733.6884   24741731.2944
     -2712.2664
  -5221359.08249  -4060762.46548  22480284.1964   22480280.5444
       362.6094
  10910044.38749   8492603.89548  22451598.9074   22451594.9624
     -3372.3124
  -1068767.57449   -827349.59447  24675356.4854   24675354.2704
      -440.6094
  -1453011.46149  -1492381.34147  24057291.7904   24057286.8294
      -254.3594
   1725552.54249   1342785.62848  22132784.6734   22132781.2474
      -878.2034
  -3895425.24849  -3027360.84847  24458800.8294   24458796.9854
      1727.2664
 04  9  8 22 16  0.0050000  0  7G 3G 8G13G10G19G27G28
   5767380.89149   4493835.86247  24749489.0404   24749486.0564
     -2721.3914
  -5226769.70949  -4064978.54248  22479254.6734   22479250.9934
       358.5944
  10960684.04949   8532063.35648  22461235.6494   22461231.8254
     -3379.7504
  -1062087.79649   -822144.56947  24676628.0634   24676625.5404
      -450.3754
  -1449131.74149  -1489358.15847  24058030.1654   24058025.4074
      -263.2344
   1738750.65249   1353069.87348  22135295.9624   22135292.4894
      -881.7194
  -3921305.25449  -3047527.03347  24453874.9384   24453871.7784
      1723.1254
 04  9  8 22 16 15.0050000  0  7G 3G 8G13G10G19G27G28
   5808266.90949   4525695.09547  24757269.2284   24757266.1264
     -2730.3594
  -5232123.75149  -4069150.50748  22478235.7824   22478232.0714
       354.9534
  11011433.46349   8571608.32748  22470892.8764   22470888.6034
     -3387.0784
  -1055264.07049   -816827.41947  24677927.2984   24677923.7474
      -459.8594
  -1445122.52749  -1486234.07747  24058792.9624   24058788.1384
      -271.6724
   1751999.12149   1363393.37348  22137816.9384   22137813.4624
      -884.9844
  -3947124.73149  -3067646.06547  24448961.7124   24448958.9234
      1719.0314
 04  9  8 22 16 30.0050000  0  7G 3G 8G13G10G19G27G28
   5849288.04049   4557659.61347  24765074.3214   24765071.3764
     -2739.6874
  -5237420.45549  -4073277.80548  22477228.0244   22477224.2594
       350.6724
  11062293.06849   8611239.17248  22480570.8374   22480566.8844
     -3394.7974
  -1048295.59449   -811397.42347  24679252.6814   24679250.3294
      -469.8284
  -1440982.97049  -1483008.42848  24059580.8764   24059576.6574
      -280.6724
   1765298.64349   1373756.61348  22140347.7674   22140344.0674
      -888.8444
  -3972882.87749  -3087717.33047  24444060.5564   24444057.6104
      1714.6254
 04  9  8 22 16 45.0050000  0  7G 3G 8G13G10G19G27G28
   5890446.34549   4589731.02747  24772906.8374   24772903.5994
     -2748.1254
  -5242657.18749  -4077358.38348  22476231.6264   22476227.8104
       347.4224
  11113264.93349   8650957.48748  22490270.4704   22490266.1344
     -3401.5784
  -1041179.97949   -805852.75747  24680607.0484   24680604.3884
      -478.9374
  -1436710.52549  -1479679.24047  24060394.6104   24060388.5524
      -288.9844
   1778651.54649   1384161.48748  22142888.5794   22142884.4664
      -891.7194
  -3998577.25349  -3107738.90747  24439170.2354   24439167.7354
      1711.1094
 04  9  8 22 17  0.0050000  0  7G 3G 8G13G10G19G27G28
   5931730.78749   4621900.70047  24780762.6734   24780759.9114
     -2756.2664
  -5247845.32449  -4081401.06848  22475244.1654   22475240.6104
       344.4534
  11164338.10349   8690754.76248  22499989.3534   22499985.5404
     -3408.0624
  -1033928.10149   -800201.95947  24681987.2674   24681983.7864
      -487.6874
  -1432316.02049  -1476254.93747  24061230.1104   24061224.9194
      -296.8444
   1792046.93849   1394599.44448  22145438.1814   22145434.0014
      -894.2194
  -4024218.67649  -3127719.19947  24434291.8994   24434288.0364
      1707.8284
 04  9  8 22 17 15.0050000  0  7G 3G 8G13G10G19G27G28
   5973149.15649   4654174.70347  24788644.9784   24788641.9274
     -2765.7974
  -5252976.50149  -4085399.39248  22474267.6814   22474264.1734
       339.9694
  11215520.38649   8730637.05448  22509728.8684   22509725.1454
     -3415.9534
  -1026532.10249   -794438.81447  24683394.3294   24683391.3534
      -497.9694
  -1427791.32249  -1472729.19447  24062091.5794   24062086.4704
      -306.2504
   1805492.68849   1405076.65348  22147996.3924   22147992.5834
      -898.2504
  -4049799.06949  -3147651.94647  24429422.7354   24429420.5014
      1703.1094
 04  9  8 22 17 30.0050000  0  7G 3G 8G13G10G19G27G28
   6014696.66949   4686549.42647  24796551.3374   24796549.0054
     -2774.0944
  -5258055.55349  -4089357.07548  22473301.2824   22473298.0244
       336.9534
  11266807.15049   8770600.75948  22519488.9624   22519484.6344
     -3422.5624
  -1018996.36949   -788566.84047  24684827.3134   24684825.5914
      -506.9694
  -1423140.76749  -1469105.36347  24062975.9314   24062971.4314
      -314.2194
   1818984.39949   1415589.67948  22150564.4854   22150559.8294
      -900.9064
  -4075322.76049  -3167540.49647  24424565.2354   24424563.2044
      1699.8134
 04  9  8 22 17 45.0050000  0  7G 3G 8G13G10G19G27G28
   6056375.73349   4719026.61047  24804481.8374   24804480.2674
     -2783.5474
  -5263079.70049  -4093271.99348  22472345.4464   22472341.9934
       332.6094
  11318200.66949   8810647.64648  22529268.6814   22529264.7784
     -3430.2974
  -1011318.34449   -782583.98547  24686289.7984   24686286.6734
      -517.1564
  -1418361.73149  -1465381.41447  24063885.4704   24063880.0674
      -323.4844
   1832524.56349   1426140.45748  22153140.5174   22153136.3564
      -904.7504
  -4100787.05949  -3187382.78447  24419720.8994   24419718.0674
      1695.1564
 04  9  8 22 18  0.0050000  0  7G 3G 8G13G10G19G27G28
   6098186.97449   4751606.79547  24812439.0564   24812437.1344
     -2791.8444
  -5268047.98249  -4097143.37648  22471399.8534   22471396.1654
       329.3444
  11369701.65049   8850778.26048  22539068.9074   22539064.8174
     -3437.0164
  -1003497.22349   -776489.59547  24687777.3994   24687774.7434
      -526.1724
  -1413453.21049  -1461556.58947  24064819.6424   24064813.7944
      -331.6564
   1846114.08649   1436729.69748  22155726.4704   22155722.2434
      -907.6564
  -4126191.00149  -3207178.04147  24414886.3064   24414883.5444
      1691.5784
 04  9  8 22 18 15.0050000  0  7G 3G 8G13G10G19G27G28
   6140130.51349   4784290.06547  24820421.1494   24820418.7354
     -2801.2194
  -5272959.99049  -4100970.91048  22470464.8534   22470461.1224
       325.0314
  11421310.35849   8890992.82548  22548889.3844   22548885.6034
     -3444.7504
   -995532.52549   -770283.33047  24689292.8684   24689290.3994
      -536.2194
  -1408414.57649  -1457630.36447  24065778.5874   24065772.7864
      -340.7974
   1859753.40049   1447357.72448  22158322.1494   22158318.2864
      -911.4694
  -4151533.99249  -3226925.79147  24410063.9154   24410060.3254
      1686.9844
 04  9  8 22 18 30.0050000  0  7G 3G 8G13G10G19G27G28
   6182212.02249   4817080.82547  24828428.0874   24828426.2784
     -2809.6414
  -5277809.98149  -4104750.10748  22469541.3454   22469538.2704
       321.6884
  11473032.39349   8931295.70548  22558732.0714   22558728.0604
     -3451.4224
   -987418.33149   -763960.56747  24690838.0094   24690834.1454
      -545.5004
  -1403239.88749  -1453598.12247  24066763.3374   24066757.5674
      -349.0314
   1873448.31249   1458029.09448  22160928.3764   22160924.6034
      -914.4374
  -4176810.16149  -3246621.44047  24405253.7824   24405250.7004
      1683.2664
 04  9  8 22 18 45.0050000  0  7G 3G 8G13G10G19G27G28
   6224426.32149   4849975.05747  24836461.8454   24836459.6104
     -2818.5004
  -5282602.72449  -4108484.70248  22468629.6264   22468626.4814
       317.8754
  11524862.83149   8971683.05448  22568595.1964   22568590.9544
     -3458.7194
   -979159.57449   -757525.15647  24692408.6034   24692405.2474
      -555.2194
  -1397933.77649  -1449463.46647  24067773.0174   24067767.3764
      -357.9374
   1887193.97049   1468739.99348  22163543.8214   22163539.8764
      -917.8124
  -4202024.23649  -3266268.78647  24400455.7514   24400452.3644
      1679.0944
 04  9  8 22 19  0.0050000  0  7G 3G 8G13G10G19G27G28
   6266770.85249   4882970.80747  24844519.3064   24844516.7354
     -2826.8444
  -5287340.41849  -4112176.41448  22467728.1424   22467724.5564
       314.4064
  11576799.11949   9012152.87348  22578478.1424   22578474.0604
     -3465.5944
   -970758.59149   -750978.92447  24694007.0714   24694004.8134
      -564.3914
  -1392498.55749  -1445228.21247  24068806.8064   24068801.5174
      -366.3124
   1900987.99349   1479488.57548  22166169.0174   22166165.1774
      -920.8284
  -4227178.54749  -3285869.49047  24395669.1574   24395665.5914
      1675.3134
 04  9  8 22 19 15.0050000  0  7G 3G 8G13G10G19G27G28
   6309247.53649   4916069.50047  24852601.8844   24852598.2124
     -2836.1724
  -5292021.31449  -4115823.85948  22466837.8214   22466834.1964
       310.2194
  11628843.14149   9052706.63648  22588381.7984   22588377.8374
     -3473.1724
   -962213.21649   -744320.20247  24695634.0634   24695630.5054
      -574.4534
  -1386931.93049  -1440890.55747  24069866.6424   24069861.2944
      -375.5474
   1914832.57649   1490276.56848  22168803.5564   22168800.1614
      -924.6414
  -4252270.77449  -3305421.86147  24390894.0634   24390890.8564
      1670.8444
 04  9  8 22 19 30.0050000  0  7G 3G 8G13G10G19G27G28
   6351857.19149   4949271.81347  24860711.0174   24860707.5244
     -2844.8124
  -5296644.14349  -4119426.06248  22465957.9154   22465954.1264
       306.5314
  11680995.72849   9093345.00048  22598306.3454   22598302.7554
     -3480.2034
   -953522.39749   -737548.12647  24697286.4464   24697284.4034
      -583.9694
  -1381232.78449  -1436449.64447  24070950.8844   24070945.7704
      -384.0944
   1928728.60949   1501104.65148  22171447.5954   22171444.1424
      -927.8914
  -4277299.66449  -3324924.84547  24386131.0404   24386128.0954
      1666.7504
 04  9  8 22 19 45.0050000  0  7G 3G 8G13G10G19G27G28
   6394598.83649   4982576.98947  24868844.2434   24868841.4744
     -2854.1724
  -5301209.76249  -4122983.67248  22465089.0484   22465085.7514
       302.1564
  11733255.85649   9134067.18948  22608251.0484   22608247.1854
     -3487.9534
   -944686.83949   -730663.26447  24698969.0714   24698965.5874
      -594.2344
  -1375401.72049  -1431905.93948  24072061.0484   24072055.4854
      -393.3914
   1942675.48349   1511972.35048  22174101.8844   22174098.0794
      -931.8124
  -4302265.99049  -3344379.08147  24381380.0244   24381377.2514
      1662.1094
 04  9  8 22 20  0.0050000  0  7G 3G 8G13G10G19G27G28
   6437478.39349   5015989.60647  24877003.7744   24877001.8024
     -2863.0624
  -5305711.85649  -4126491.80048  22464232.4074   22464228.8844
       298.0944
  11785629.59749   9174877.87748  22618217.2594   22618213.4894
     -3495.2974
   -935700.63049   -723661.02047  24700678.5014   24700675.8494
      -604.0314
  -1369432.47149  -1427254.57547  24073196.3134   24073191.2284
      -402.5004
   1956679.24049   1522884.36648  22176766.7124   22176762.4154
      -935.4064
  -4327163.61449  -3363779.79547  24376642.2354   24376639.9234
      1657.5634
 04  9  8 22 20 15.0050000  0  7G 3G 8G13G10G19G27G28
   6480489.57449   5049504.80747  24885188.5094   24885186.2824
     -2871.8914
  -5310156.60349  -4129955.23048  22463386.4784   22463383.2984
       294.2664
  11838110.54849   9215772.10348  22628204.2514   22628200.6104
     -3502.4224
   -926569.76749   -716546.03847  24702416.5324   24702413.6884
      -613.7194
  -1363330.96149  -1422500.11947  24074357.5484   24074351.9854
      -411.2814
   1970733.67849   1533835.88048  22179440.9154   22179437.0014
      -938.7194
  -4351998.42049  -3383131.56747  24371916.8214   24371913.5714
      1653.4384
 04  9  8 22 20 30.0050000  0  7G 3G 8G13G10G19G27G28
   6523632.40849   5083122.57347  24893398.8764   24893396.3844
     -2880.8284
  -5314543.60349  -4133373.66448  22462551.7674   22462547.8644
       290.2814
  11890698.97049   9256750.06348  22638211.2354   22638207.6304
     -3509.7504
   -917293.74349   -709317.98247  24704181.1034   24704178.5364
      -623.5474
  -1357096.64849  -1417642.19648  24075544.3764   24075538.5174
      -420.3124
   1984839.39949   1544827.34748  22182125.0244   22182120.9154
      -942.3594
  -4376769.94949  -3402434.02147  24367202.5404   24367200.1064
      1649.0474
 04  9  8 22 20 45.0050000  0  7G 3G 8G13G10G19G27G28
   6566908.07549   5116843.86647  24901633.8214   24901631.9934
     -2889.8914
  -5318871.36849  -4136745.94648  22461727.9464   22461724.8994
       286.0634
  11943396.06749   9297812.71448  22648239.0244   22648235.5564
     -3517.2504
   -907871.24949   -701975.78247  24705975.0564   24705971.9974
      -633.4534
  -1350728.17049  -1412679.73347  24076756.0094   24076750.5404
      -429.4694
   1998997.67449   1555859.76348  22184819.3064   22184814.8804
      -946.0944
  -4401476.66449  -3421685.96547  24362500.7594   24362498.2354
      1644.4224
 04  9  8 22 21  0.0050000  0  7G 3G 8G13G10G19G27G28
   6610316.09549   5150668.31047  24909893.9934   24909892.0054
     -2898.0164
  -5323140.11649  -4140072.21948  22460915.8294   22460912.8064
       282.7974
  11996201.44049   9338959.72048  22658287.7904   22658283.7084
     -3523.7664
   -898302.41949   -694519.54247  24707795.7514   24707792.3884
      -642.5164
  -1344225.53449  -1407612.70947  24077992.8374   24077987.8494
      -437.7814
   2013208.30549   1566932.98848  22187523.7044   22187519.7704
      -948.9374
  -4426118.56549  -3440887.43047  24357811.7514   24357808.5874
      1640.8284
 04  9  8 22 21 15.0050000  0  7G 3G 8G13G10G19G27G28
   6653848.59349   5184589.75747  24918178.3604   24918176.0634
     -2906.6724
  -5327357.80149  -4143358.73748  22460113.3064   22460110.1774
       279.1724
  12049107.27949   9380185.01148  22668355.5014   22668351.9074
     -3530.7034
   -888595.05849   -686955.37047  24709644.0014   24709640.3644
      -652.1254
  -1337596.25249  -1402447.02947  24079254.3534   24079249.2044
      -446.5314
   2027463.65049   1578041.04948  22190236.1184   22190231.9314
      -952.2344
  -4450703.34649  -3460044.36647  24353133.9314   24353130.3684
      1636.7194
 04  9  8 22 21 30.0050000  0  7G 3G 8G13G10G19G27G28
   6697510.59049   5218612.05547  24926486.4624   24926483.8954
     -2914.7504
  -5331518.82649  -4146601.09448  22459321.5014   22459318.2204
       275.8284
  12102118.48849   9421492.43348  22678443.2674   22678440.0604
     -3537.2194
   -878743.94449   -679279.16447  24711517.1344   24711514.2284
      -661.2034
  -1330834.97849  -1397178.48147  24080541.2674   24080535.5204
      -454.8124
   2041768.86149   1589187.96248  22192958.3844   22192954.3254
      -955.0314
  -4475225.64649  -3479152.63047  24348467.4234   24348464.3174
      1633.0784
 04  9  8 22 21 45.0050000  0  7G 3G 8G13G10G19G27G28
   6741303.67249   5252736.55247  24934819.3764   24934817.4424
     -2923.6254
  -5335621.30249  -4149797.82448  22458540.6884   22458537.3804
       271.7974
  12155236.94249   9462883.43048  22688551.2434   22688547.3764
     -3544.5314
   -868747.09949   -671489.40547  24713419.8844   24713417.3494
      -671.1414
  -1323939.60749  -1391805.44747  24081852.7514   24081847.7784
      -463.8754
   2056125.95349   1600375.30148  22195690.7744   22195686.8534
      -958.6254
  -4499683.37949  -3498210.57247  24343813.4704   24343809.5834
      1628.6254
 04  9  8 22 22  0.0050000  0  7G 3G 8G13G10G19G27G28
   6785227.41549   5286962.81347  24943178.4624   24943176.1184
     -2932.6414
  -5339665.73049  -4152949.31748  22457770.8764   22457767.4814
       267.5474
  12208462.17449   9504357.61448  22698679.9074   22698675.9034
     -3552.0164
   -858604.73649   -663586.27747  24715350.1884   24715346.8494
      -681.1564
  -1316910.38949  -1386328.13747  24083190.8134   24083184.8644
      -473.2344
   2070534.66649   1611602.87048  22198432.7204   22198428.6694
      -962.4374
  -4524076.76349  -3517218.36947  24339171.5484   24339167.6854
      1623.9694
 04  9  8 22 22 15.0050000  0  7G 3G 8G13G10G19G27G28
   6829284.43549   5321292.97447  24951562.4624   24951560.2594
     -2941.5164
  -5343648.99749  -4156053.15248  22457013.0564   22457009.3724
       263.5004
  12261796.75149   9545917.01248  22708829.2594   22708825.1884
     -3559.3124
   -848314.12749   -655567.61847  24717307.8604   24717305.7674
      -690.9224
  -1309744.39249  -1380744.22347  24084554.5484   24084548.9744
      -482.2504
   2084997.77049   1622872.82348  22201184.7744   22201180.8254
      -965.9694
  -4548402.88849  -3536173.74547  24334541.8604   24334538.4114
      1619.5004
 04  9  8 22 22 30.0050000  0  7G 3G 8G13G10G19G27G28
   6873473.96849   5355726.36247  24959971.1344   24959969.1224
     -2950.2344
  -5347571.90149  -4159109.96348  22456266.3294   22456262.3644
       259.7194
  12315239.86849   9587560.96748  22718998.8924   22718995.1264
     -3566.3754
   -837875.70549   -647433.78747  24719294.7594   24719291.7394
      -700.7194
  -1302442.00849  -1375054.04547  24085944.4384   24085938.4814
      -491.2034
   2099514.77649   1634184.77648  22203947.2984   22203943.4974
      -969.4844
  -4572662.20649  -3555077.07947  24329925.6574   24329922.5444
      1615.2194
 04  9  8 22 22 45.0050000  0  7G 3G 8G13G10G19G27G28
   6917791.82449   5390259.77047  24968404.9074   24968402.2864
     -2958.6874
  -5351438.01249  -4162122.51048  22455530.7284   22455527.3644
       256.0164
  12368787.48649   9629286.37748  22729188.6884   22729184.7904
     -3573.2034
   -827293.55249   -639187.96047  24721307.6884   24721305.0994
      -710.0944
  -1295006.99549  -1369260.50147  24087359.2904   24087352.8174
      -500.0314
   2114081.83249   1645535.72948  22206719.1964   22206715.5174
      -972.6724
  -4596858.50849  -3573931.31847  24325321.3534   24325317.3764
      1611.1254
 04  9  8 22 23  0.0050000  0  7G 3G 8G13G10G19G27G28
   6962237.35049   5424892.62447  24976861.8994   24976859.6884
     -2967.5164
  -5355247.86749  -4165091.21748  22454805.5094   22454801.9584
       251.8284
  12422438.97949   9671092.70448  22739398.6034   22739394.0244
     -3580.4844
   -816568.01049   -630830.39047  24723348.7904   24723346.1854
      -720.1564
  -1287439.59249  -1363363.79347  24088799.1104   24088793.2864
      -509.2664
   2128698.44549   1656925.30748  22209500.7284   22209496.7864
      -976.4064
  -4620992.01549  -3592736.62047  24320728.7594   24320725.1424
      1606.5474
 04  9  8 22 23 15.0050000  0  7G 3G 8G13G10G19G27G28
   7006816.49549   5459629.61647  24985345.8924   24985343.2314
     -2976.3124
  -5358995.12849  -4168011.14348  22454092.6734   22454088.7394
       247.8444
  12476200.35149   9712984.68148  22749629.0484   22749625.4354
     -3587.6874
   -805693.08949   -622356.42347  24725418.9384   24725415.2354
      -729.9694
  -1279733.51749  -1357359.05847  24090264.8134   24090259.4934
      -518.2974
   2143370.72349   1668358.24248  22212293.2594   22212288.8104
      -979.9224
  -4645056.48949  -3611488.12447  24316149.7354   24316145.7634
      1602.0634
 04  9  8 22 23 30.0050000  0  7G 3G 8G13G10G19G27G28
   7051526.22449   5494468.31547  24993853.5564   24993851.6264
     -2984.1724
  -5362682.67149  -4170884.55548  22453391.1264   22453387.5444
       244.6094
  12530068.67949   9754959.97048  22759879.8684   22759875.7124
     -3593.9374
   -794671.45249   -613768.14647  24727515.5094   24727512.1104
      -738.8594
  -1271891.51249  -1351248.39447  24091757.6184   24091752.1424
      -526.6254
   2158096.00849   1679832.48348  22215094.8374   22215090.6654
      -982.7034
  -4669054.55749  -3630187.88347  24311582.5714   24311579.3924
      1598.4844
 04  9  8 22 23 45.0050000  0  7G 3G 8G13G10G19G27G28
   7096360.63149   5529404.20447  25002384.9624   25002382.6654
     -2993.1564
  -5366316.07249  -4173715.77448  22452699.7044   22452696.5094
       240.5164
  12584038.23049   9797014.15748  22770149.7204   22770146.1184
     -3601.1874
   -783508.67549   -605069.83847  24729639.3374   24729637.5054
      -748.8124
  -1263919.04549  -1345036.06347  24093274.4154   24093269.3884
      -535.6564
   2172868.72649   1691343.70448  22217906.1734   22217902.0834
      -986.3284
  -4692991.80649  -3648840.25347  24307027.6494   24307024.2354
      1593.8594
 04  9  8 22 24  0.0050000  0  7G 3G 8G13G10G19G27G28
   7141323.95449   5564440.56547  25010941.7354   25010938.6884
     -3001.5624
  -5369890.72349  -4176501.21448  22452019.4544   22452015.4384
       236.5634
  12638113.18849   9839150.48048  22780439.8764   22780435.7434
     -3608.2814
   -772200.39849   -596258.22347  24731791.7124   24731788.2434
      -758.4534
  -1255811.49549  -1338718.48147  24094816.7594   24094811.6574
      -544.7504
   2187693.24949   1702895.27048  22220726.6884   22220723.3294
      -989.7664
  -4716863.48549  -3667441.54647  24302485.2824   24302481.5604
      1589.5474
 04  9  8 22 24 15.0050000  0  7G 3G 8G13G10G19G27G28
   7186409.41149   5599572.04747  25019521.1814   25019518.8604
     -3010.0164
  -5373413.29149  -4179246.07148  22451349.4154   22451345.7204
       232.9064
  12692286.82849   9881363.67848  22790748.9074   22790745.4934
     -3615.0944
   -760753.05949   -587338.21847  24733970.2284   24733967.3294
      -767.9374
  -1247575.29749  -1332300.64448  24096384.7514   24096379.7514
      -553.5784
   2202563.21849   1714482.26048  22223556.3604   22223552.9504
      -993.0624
  -4740676.22649  -3685996.88547  24297953.5634   24297950.3684
      1585.2814
 04  9  8 22 24 30.0050000  0  7G 3G 8G13G10G19G27G28
   7231625.30349   5634805.19747  25028126.0714   25028122.3884
     -3018.7974
  -5376875.13549  -4181943.61148  22450690.2824   22450686.6854
       228.7034
  12746567.40949   9923660.20548  22801077.9704   22801074.2084
     -3622.3284
   -749158.25749   -578303.30547  24736176.3924   24736173.6654
      -777.8754
  -1239201.83249  -1325775.84148  24097978.4704   24097973.4074
      -562.8124
   2217487.04649   1726111.21048  22226396.7824   22226392.6884
      -996.7034
  -4764421.34449  -3704499.55847  24293435.4784   24293431.9384
      1580.6094
 04  9  8 22 24 45.0050000  0  7G 3G 8G13G10G19G27G28
   7276973.55249   5670141.51547  25036754.8134   25036751.9194
     -3026.8914
  -5380274.21249  -4184592.23748  22450043.9784   22450039.7984
       225.2664
  12800956.86149   9966041.56148  22811427.8924   22811424.1224
     -3628.8914
   -737413.79549   -569151.76747  24738411.2434   24738408.5714
      -787.1874
  -1230688.89049  -1319142.36148  24099598.2204   24099592.3414
      -571.4694
   2232466.89949   1737783.81748  22229247.2904   22229243.5364
      -999.8444
  -4788096.49249  -3722947.68747  24288929.9784   24288926.5244
      1576.7664
 04  9  8 22 25  0.0050000  0  7G 3G 8G13G10G19G27G28
   7322447.80449   5705576.00447  25045408.4074   25045405.7864
     -3035.0164
  -5383616.63449  -4187196.71248  22449407.3374   22449403.9034
       221.6564
  12855448.98649  10008502.94248  22821797.5094   22821793.8024
     -3635.5624
   -725525.78449   -559888.38947  24740672.9074   24740670.8454
      -796.6414
  -1222042.36149  -1312404.77848  24101243.1184   24101237.9314
      -580.0784
   2247496.72049   1749495.37048  22232107.2354   22232103.2984
     -1002.9374
  -4811707.73849  -3741346.01247  24284436.5404   24284433.3604
      1572.7504
 04  9  8 22 25 15.0050000  0  7G 3G 8G13G10G19G27G28
   7368050.53849   5741110.59347  25054086.0954   25054083.3924
     -3044.5164
  -5386899.54949  -4189754.83548  22448782.7284   22448779.2044
       216.8284
  12910046.29849  10051046.28248  22832187.0714   22832183.3254
     -3643.3754
   -713491.58349   -550511.10447  24742963.3994   24742961.0134
      -807.1724
  -1213259.40549  -1305560.91148  24102914.3844   24102909.7434
      -590.2344
   2262579.13249   1761247.90448  22234977.1964   22234973.5634
     -1007.3124
  -4835252.25049  -3759692.38147  24279956.2354   24279952.9854
      1567.3284
 04  9  8 22 25 30.0050000  0  7G 3G 8G13G10G19G27G28
   7413778.05049   5776742.40247  25062787.9784   25062786.3644
     -3052.4844
  -5390126.40849  -4192269.24948  22448168.5404   22448165.2784
       213.4064
  12964745.21749  10093668.79048  22842595.3684   22842592.1494
     -3649.7974
   -701314.54849   -541022.50447  24745281.7434   24745278.5094
      -816.5164
  -1204343.43249  -1298613.37248  24104612.0634   24104606.0674
      -598.6874
   2277710.85849   1773038.87048  22237856.8374   22237853.0714
     -1010.3444
  -4858733.34549  -3777989.29447  24275487.4934   24275484.3134
      1563.3754
 04  9  8 22 25 45.0050000  0  7G 3G 8G13G10G19G27G28
   7459633.10449   5812473.57347  25071514.3134   25071511.5794
     -3061.4374
  -5393294.01249  -4194737.50648  22447566.1034   22447562.2124
       208.8754
  13019548.34449  10136372.49748  22853024.5244   22853020.5794
     -3657.3124
   -688991.86549   -531420.42547  24747625.9624   24747623.1384
      -826.7344
  -1195291.36949  -1291559.81347  24106334.4154   24106328.7164
      -608.3594
   2292894.82949   1784870.51548  22240746.4154   22240742.4154
     -1014.3284
  -4882147.89849  -3796234.37047  24271032.1034   24271029.2044
      1558.4844
 04  9  8 22 26  0.0050000  0  7G 3G 8G13G10G19G27G28
   7505612.63649   5848301.79547  25080263.7284   25080261.4074
     -3069.8754
  -5396405.23049  -4197161.84648  22446973.9544   22446970.0604
       205.0944
  13074452.88349  10179155.23148  22863472.5874   22863468.6384
     -3664.0474
   -676526.29949   -521706.98747  24749998.0714   24749994.9504
      -836.2344
  -1186105.92949  -1284402.31548  24108081.5794   24108076.9234
      -617.2504
   2308128.25849   1796740.72748  22243645.1494   22243641.6534
     -1017.6414
  -4905498.55649  -3814429.66047  24266588.5174   24266585.2944
      1554.1564
 04  9  8 22 26 15.0050000  0  7G 3G 8G13G10G19G27G28
   7551720.07249   5884229.67447  25089036.7984   25089035.4854
     -3078.1414
  -5399456.53149  -4199539.47148  22446393.2744   22446389.7124
       201.4224
  13129462.21249  10222019.61648  22873940.8064   22873937.1814
     -3670.7664
   -663914.16149   -511879.35347  24752397.6494   24752395.0134
      -845.6874
  -1176783.18349  -1277137.83947  24109855.6734   24109850.0874
      -626.1094
   2323414.96649   1808652.44548  22246554.1264   22246550.1964
     -1020.9224
  -4928781.64149  -3832572.27347  24262157.8134   24262155.2244
      1549.8754
 04  9  8 22 26 30.0050000  0  7G 3G 8G13G10G19G27G28
   7597955.41049   5920257.18447  25097835.1734   25097833.0634
     -3086.6094
  -5402447.35449  -4201869.97248  22445823.7594   22445820.5324
       197.3754
  13184576.33649  10264965.66248  22884428.6264   22884424.7354
     -3677.7664
   -651155.26149   -501937.34547  24754825.8924   24754823.4384
      -855.5004
  -1167322.80449  -1269766.12547  24111656.4624   24111650.6384
      -635.2194
   2338755.00149   1820605.71548  22249473.2354   22249469.4314
     -1024.3754
  -4951996.73649  -3850661.94447  24257740.1424   24257737.0794
      1545.4064
 04  9  8 22 26 45.0050000  0  7G 3G 8G13G10G19G27G28
   7644319.53049   5956385.09547  25106658.1034   25106655.5874
     -3095.1094
  -5405376.74049  -4204152.60148  22445266.4624   22445263.0284
       193.4064
  13239796.24749  10307994.13948  22894936.6034   22894933.0094
     -3684.7814
   -638248.39249   -491880.04547  24757281.9934   24757279.4074
      -865.2814
  -1157723.49549  -1262286.13647  24113482.6814   24113477.4934
      -644.5164
   2354149.80049   1832601.67048  22252402.6574   22252398.9814
     -1028.0314
  -4975142.63249  -3868697.67647  24253336.2594   24253333.0994
      1540.8284
 04  9  8 22 27  0.0050000  0  7G 3G 8G13G10G19G27G28
   7690805.66249   5992607.99047  25115504.5174   25115501.1104
     -3103.0944
  -5408251.14349  -4206392.41348  22444719.0954   22444715.6264
       189.7974
  13295115.34849  10351099.90348  22905463.0174   22905459.8104
     -3691.1724
   -625200.11549   -481712.57747  24759765.1104   24759761.6814
      -874.5004
  -1147991.67549  -1254702.90347  24115334.5564   24115329.5954
      -653.1874
   2369592.71849   1844635.09748  22255341.6034   22255337.9544
     -1031.0314
  -4998225.74749  -3886684.48147  24248943.4934   24248940.1654
      1536.8594
 04  9  8 22 27 15.0050000  0  7G 3G 8G13G10G19G27G28
   7737418.86949   6028929.96847  25124375.3294   25124371.5404
     -3112.1724
  -5411065.09349  -4208585.08448  22444184.3064   22444180.4544
       185.2344
  13350538.66249  10394286.90548  22916009.9704   22916006.4704
     -3698.6724
   -612005.19249   -471430.86047  24762276.3994   24762273.0834
      -884.8914
  -1138121.95649  -1247012.20047  24117212.8534   24117207.4704
      -662.9064
   2385089.11249   1856710.20448  22258290.4234   22258286.7394
     -1035.2664
  -5021240.44949  -3904617.96547  24244563.0324   24244560.3764
      1531.6414
 04  9  8 22 27 30.0050000  0  7G 3G 8G13G10G19G27G28
   7784158.36649   6065350.32947  25133268.6494   25133266.2004
     -3119.7814
  -5413819.22049  -4210731.14848  22443660.0404   22443656.4384
       181.9694
  13406065.60849  10437554.62448  22926576.3684   22926572.3104
     -3704.8754
   -598664.21649   -461035.27347  24764815.0404   24764811.8334
      -893.8754
  -1128114.75049  -1239214.37047  24119116.8534   24119111.1614
      -671.3594
   2400638.43149   1868826.55748  22261248.9854   22261245.2004
     -1038.0164
  -5044187.26549  -3922498.59547  24240196.1264   24240193.6964
      1527.8444
 04  9  8 22 27 45.0050000  0  7G 3G 8G13G10G19G27G28
   7831022.45949   6101867.80047  25142186.5244   25142184.9814
     -3128.4844
  -5416514.81849  -4212831.61748  22443147.1734   22443143.3954
       177.7034
  13461694.45949  10480901.74948  22937162.1574   22937158.8724
     -3712.0314
   -585178.50549   -450526.95847  24767381.1494   24767377.8494
      -903.9534
  -1117971.42849  -1231310.46947  24121047.2044   24121041.5524
      -680.8284
   2416239.35949   1880983.13248  22264217.9464   22264213.4894
     -1041.7974
  -5067067.59849  -3940327.38347  24235843.0484   24235839.3954
      1523.1094
 04  9  8 22 28  0.0050000  0  7G 3G 8G13G10G19G27G28
   7878013.67149   6138484.31447  25151129.7744   25151127.3254
     -3137.1414
  -5419149.03949  -4214884.24348  22442645.6654   22442642.4234
       173.5164
  13517427.67349  10524330.22348  22947767.8994   22947764.4194
     -3719.1414
   -571545.42649   -439903.79047  24769974.8684   24769972.3884
      -913.9224
  -1107689.11649  -1223298.24447  24123004.7354   24122998.2824
      -690.1874
   2431894.64049   1893182.05148  22267197.0404   22267193.1224
     -1045.5624
  -5089878.56149  -3958102.10247  24231501.7514   24231498.6304
      1518.2504
 04  9  8 22 28 15.0050000  0  7G 3G 8G13G10G19G27G28
   7925130.46749   6175198.68447  25160095.6264   25160093.5014
     -3145.4694
  -5421723.10749  -4216890.00748  22442155.8924   22442152.5954
       169.4694
  13573263.83449  10567838.90048  22958393.1424   22958389.5714
     -3726.0164
   -557766.28149   -429166.78147  24772597.5634   24772594.5834
      -923.5784
  -1097268.95749  -1215178.63447  24124987.0244   24124981.1534
      -699.4534
   2447602.97749   1905422.32148  22270186.0954   22270182.1964
     -1049.1094
  -5112621.21749  -3975823.63147  24227174.1104   24227171.7284
      1513.8134
 04  9  8 22 28 30.0050000  0  7G 3G 8G13G10G19G27G28
   7972376.35249   6212013.64947  25169085.8454   25169084.0444
     -3153.7034
  -5424233.33249  -4218846.01848  22441678.4784   22441674.8954
       165.5634
  13629206.39749  10611430.48348  22969039.1034   22969035.2784
     -3732.7664
   -543837.55649   -418313.24047  24775247.7824   24775244.7434
      -933.2344
  -1086707.23449  -1206948.69247  24126996.5874   24126991.6034
      -708.5474
   2463368.16849   1917706.89048  22273186.2124   22273182.0674
     -1052.5944
  -5135291.90649  -3993489.07147  24222859.5954   24222857.0484
      1509.2974
 04  9  8 22 28 45.0050000  0  7G 3G 8G13G10G19G27G28
   8019746.81949   6248925.66447  25178099.1424   25178097.7044
     -3161.7344
  -5426683.98549  -4220755.61748  22441212.3454   22441208.6034
       161.8444
  13685250.98949  10655101.56848  22979704.3064   22979700.2084
     -3739.2344
   -529763.32249   -407346.30847  24777925.8534   24777922.6694
      -942.7504
  -1076008.00849  -1198611.62747  24129032.2674   24129027.1454
      -717.4224
   2479185.87849   1930032.37948  22276196.2594   22276191.9544
     -1055.7974
  -5157894.71049  -4011101.62047  24218559.3134   24218555.8684
      1505.0004
 04  9  8 22 29  0.0050000  0  7G 3G 8G13G10G19G27G28
   8067237.25949   6285931.19447  25187136.7674   25187134.4584
     -3170.4534
  -5429079.29749  -4222622.07948  22440756.2124   22440752.7784
       157.3914
  13741393.22049  10698848.75748  22990387.9234   22990383.9354
     -3746.5314
   -515547.92749   -396269.37347  24780631.2044   24780627.7984
      -952.9224
  -1065175.38049  -1190170.61147  24131094.0794   24131089.1424
      -727.0624
   2495052.02249   1942395.59848  22279215.3604   22279211.6454
     -1059.8914
  -5180433.76849  -4028664.47647  24214269.2594   24214267.2434
      1499.9694
 04  9  8 22 29 15.0050000  0  7G 3G 8G13G10G19G27G28
   8114854.56749   6323035.63047  25196198.1494   25196194.9544
     -3178.8444
  -5431412.16449  -4224439.88748  22440312.2204   22440308.6344
       153.4534
  13797639.68549  10742677.15448  23001090.8134   23001087.2984
     -3753.2194
   -501184.52449   -385077.12947  24783364.5014   24783361.4234
      -962.4694
  -1054202.37349  -1181620.20547  24133182.2044   24133177.2704
      -736.2034
   2510973.50249   1954801.94448  22282245.2594   22282241.6454
     -1063.2664
  -5202901.90449  -4046172.09847  24209994.2594   24209991.6534
      1495.5004
 04  9  8 22 29 30.0050000  0  7G 3G 8G13G10G19G27G28
   8162594.91649   6360235.89047  25205283.1814   25205279.8604
     -3186.5314
  -5433686.19149  -4226211.85248  22439879.1344   22439876.1654
       150.0164
  13853986.78349  10786583.95448  23011813.2744   23011809.8804
     -3759.4534
   -486676.54849   -373772.20647  24786125.6344   24786121.9234
      -971.7034
  -1043092.35949  -1172963.05247  24135295.9854   24135290.9154
      -744.9224
   2526946.86049   1967248.71048  22285285.0484   22285281.2554
     -1066.2974
  -5225302.56249  -4063627.11847  24205731.1964   24205728.8724
      1491.5314
 04  9  8 22 29 45.0050000  0  7G 3G 8G13G10G19G27G28
   8210458.56349   6397532.22747  25214391.4384   25214387.4974
     -3195.2814
  -5435900.64649  -4227937.39048  22439457.7904   22439454.2674
       145.3134
  13910434.92049  10830569.50048  23022554.8064   23022551.2944
     -3766.8914
   -472023.39449   -362354.16947  24788913.2594   24788910.6814
      -982.0784
  -1031844.73149  -1164198.63947  24137436.3994   24137431.4584
      -754.7344
   2542972.78649   1979736.44348  22288334.5874   22288330.6854
     -1070.4694
  -5247635.02649  -4081029.00247  24201481.5794   24201479.1534
      1486.2344
 04  9  8 22 30  0.0050000  0  7G 3G 8G13G10G19G27G28
   8258450.05649   6434928.17447  25223523.3764   25223520.4704
     -3203.6564
  -5438050.66549  -4229612.73548  22439048.7594   22439045.2674
       141.2974
  13966988.63949  10874637.29248  23033316.8454   23033313.1064
     -3773.6724
   -457220.43249   -350819.39547  24791730.4544   24791727.1264
      -991.7504
  -1020454.54149  -1155323.16747  24139604.4074   24139598.6064
      -764.0004
   2559055.99849   1992268.82048  22291395.0324   22291391.1494
     -1074.0314
  -5269894.49649  -4098374.03147  24197245.9784   24197243.2314
      1481.5784
 04  9  8 22 30 15.0050000  0  7G 3G 8G13G10G19G27G28
   8306560.07049   6472416.49647  25232678.6964   25232676.2514
     -3211.2814
  -5440145.14649  -4231244.78148  22438650.2744   22438646.5444
       137.7504
  14023638.55749  10918780.06548  23044096.7434   23044093.3684
     -3779.8594
   -442276.72949   -339174.94947  24794574.2434   24794571.0564
     -1000.9844
  -1008930.81649  -1146343.62548  24141796.8764   24141791.3064
      -772.7504
   2575187.43649   2004838.77748  22294464.6424   22294460.8104
     -1077.0784
  -5292089.93149  -4115669.13347  24193022.6104   24193019.1184
      1477.5004
 04  9  8 22 30 30.0050000  0  7G 3G 8G13G10G19G27G28
   8354792.88249   6510000.49247  25241857.1884   25241853.7434
     -3219.4844
  -5442179.63849  -4232830.10748  22438262.9464   22438259.5994
       133.7194
  14080389.26249  10963001.37648  23054896.2434   23054892.6614
     -3786.6414
   -427187.72549   -327417.31947  24797445.6034   24797442.2354
     -1010.6094
   -997268.73449  -1137256.29947  24144016.3214   24144010.1854
      -781.9224
   2591371.73949   2017449.92348  22297544.6494   22297540.8764
     -1080.6414
  -5314216.58249  -4132910.63947  24188811.2514   24188808.1034
      1472.9064
 04  9  8 22 30 45.0050000  0  7G 3G 8G13G10G19G27G28
   8403144.84949   6547677.31747  25251057.9154   25251055.0054
     -3227.6724
  -5444157.64249  -4234371.39948  22437886.6884   22437883.5054
       129.7194
  14137236.94849  11007298.27047  23065713.6104   23065710.1964
     -3793.3444
   -411957.02549   -315549.23747  24800344.2434   24800341.2354
     -1020.3914
   -985471.75949  -1128063.84247  24146261.2594   24146255.1854
      -791.1414
   2607605.48249   2030099.58848  22300633.3294   22300629.2434
     -1084.1254
  -5336277.82149  -4150101.18447  24184613.5634   24184610.1884
      1468.3134
 04  9  8 22 31  0.0050000  0  7G 3G 8G13G10G19G27G28
   8451619.99049   6585450.14047  25260283.0874   25260280.0604
     -3235.5474
  -5446075.06349  -4235865.48948  22437521.8214   22437518.9934
       126.0004
  14194185.80149  11051673.97647  23076551.2744   23076547.0634
     -3799.6724
   -396580.40849   -303567.43547  24803269.3924   24803267.0484
     -1029.7344
   -973535.51149  -1118762.85647  24148532.3294   24148526.7704
      -800.2814
   2623893.02449   2042791.18948  22303732.9154   22303729.6304
     -1087.4224
  -5358269.28449  -4167237.35947  24180429.0014   24180425.5444
      1463.9844
 04  9  8 22 31 15.0050000  0  7G 3G 8G13G10G19G27G28
   8500215.16349   6623316.49247  25269530.5094   25269527.4194
     -3243.8124
  -5447934.30349  -4237314.24148  22437167.8764   22437164.6964
       121.8134
  14251232.63349  11096126.02947  23087406.5174   23087403.2984
     -3806.5474
   -381060.76149   -291474.23947  24806223.3064   24806220.4354
     -1039.5314
   -961462.93749  -1109355.63847  24150830.0174   24150824.2824
      -809.5784
   2640231.46749   2055522.44048  22306842.3604   22306838.6814
     -1091.1414
  -5380193.77649  -4184321.33047  24176256.0244   24176253.2824
      1459.1884
 04  9  8 22 31 30.0050000  0  7G 3G 8G13G10G19G27G28
   8548933.33049   6661278.64147  25278801.7124   25278798.7704
     -3252.3594
  -5449732.14249  -4238715.16048  22436826.2354   22436822.5094
       117.3284
  14308380.47849  11140656.77747  23098281.9854   23098277.7124
     -3813.6414
   -365394.88049   -279267.04947  24809205.0634   24809202.3414
     -1049.7194
   -949250.61249  -1099839.52047  24153153.5874   24153147.8644
      -819.2194
   2656624.14149   2068295.94048  22309961.6424   22309957.6534
     -1095.1414
  -5402047.77649  -4201350.39947  24172098.2434   24172095.0444
      1454.1564
 04  9  8 22 31 45.0050000  0  7G 3G 8G13G10G19G27G28
   8597775.73149   6699337.65647  25288095.9234   25288093.6104
     -3260.1254
  -5451466.99949  -4240066.99348  22436495.7284   22436492.6224
       113.7344
  14365630.80549  11185267.40147  23109176.0634   23109172.2164
     -3819.9374
   -349581.21649   -266944.70047  24812213.4544   24812211.2004
     -1058.9694
   -936896.79549  -1090213.16247  24155504.6494   24155498.8414
      -828.1564
   2673072.62749   2081112.94948  22313091.7434   22313087.9784
     -1098.2664
  -5423829.70049  -4218323.31147  24167953.0244   24167950.0404
      1449.8594
 04  9  8 22 32  0.0050000  0  7G 3G 8G13G10G19G27G28
   8646737.56449   6737489.72747  25297412.6884   25297411.0914
     -3268.0474
  -5453143.56449  -4241373.39848  22436176.7744   22436173.0634
       109.8594
  14422978.76449  11229954.10447  23120088.6104   23120085.1884
     -3826.3284
   -333624.42449   -254510.85247  24815250.1184   24815247.7394
     -1068.5474
   -924406.04249  -1080480.10447  24157881.7204   24157875.4814
      -837.1874
   2689572.32249   2093969.83848  22316231.1884   22316227.5714
     -1101.6254
  -5445544.08549  -4235243.55147  24163820.7434   24163817.5714
      1445.3754
 04  9  8 22 32 15.0060000  0  7G 3G 8G13G10G19G27G28
   8695823.04049   6775738.12247  25306753.1074   25306751.6894
     -3276.1094
  -5454760.48149  -4242633.33048  22435869.3264   22435865.5454
       105.8284
  14480429.20349  11274720.66547  23131021.4594   23131017.8424
     -3833.0314
   -317522.22249   -241963.69147  24818315.0294   24818311.8694
     -1078.2504
   -911776.22049  -1070638.67647  24160285.1004   24160278.7874
      -846.5164
   2706125.54349   2106868.45448  22319380.9824   22319377.3614
     -1105.1414
  -5467190.95849  -4252111.22947  24159701.3344   24159698.4164
      1440.7814
 04  9  8 22 32 30.0060000  0  7G 3G 8G13G10G19G27G28
   8745026.61549   6814078.55247  25316115.2014   25316114.2604
     -3284.3284
  -5456316.24149  -4243845.60748  22435573.2254   22435569.5104
       101.6724
  14537975.56449  11319561.97847  23141972.3654   23141968.5064
     -3839.7974
   -301275.50049   -229303.88447  24821406.2014   24821403.1194
     -1088.0314
   -899007.49449  -1060689.01947  24162714.9824   24162709.3344
      -856.0474
   2722731.54549   2119808.19548  22322541.7174   22322537.8734
     -1108.9534
  -5488765.98849  -4268922.91347  24155595.8894   24155592.7284
      1435.9224
 04  9  8 22 32 45.0060000  0  7G 3G 8G13G10G19G27G28
   8794350.35849   6852512.66647  25325502.0214   25325500.7994
     -3292.1094
  -5457811.99549  -4245011.12548  22435288.5144   22435284.5614
        97.7974
  14595620.47149  11364480.06247  23152941.9824   23152938.4204
     -3846.2034
   -284884.21749   -216531.44947  24824525.3504   24824522.4784
     -1097.4374
   -886099.94449  -1050631.19947  24165170.9904   24165165.9904
      -865.0164
   2739390.46949   2132789.16848  22325711.4434   22325707.3734
     -1112.2344
  -5510271.51349  -4285680.42247  24151503.2254   24151500.1004
      1431.4694
 04  9  8 22 33  0.0060000  0  7G 3G 8G13G10G19G27G28
   8843794.69949   6891040.68547  25334910.8814   25334908.1974
     -3300.0624
  -5459247.00649  -4246129.31348  22435015.6704   22435012.2684
        93.9224
  14653364.55949  11409475.44247  23163930.0534   23163926.3184
     -3852.7034
   -268347.79649   -203645.92947  24827672.3734   24827669.1664
     -1106.9534
   -873052.86449  -1040464.63348  24167654.0214   24167648.3654
      -874.2194
   2756103.07049   2145811.96448  22328891.9904   22328887.9634
     -1115.7194
  -5531706.86749  -4302383.24847  24147424.3184   24147421.2094
      1426.9694
 04  9  8 22 33 15.0060000  0  7G 3G 8G13G10G19G27G28
   8893361.94449   6929664.49347  25344343.5214   25344340.3814
     -3308.7194
  -5460618.63149  -4247198.10648  22434754.6154   22434750.5844
        89.1414
  14711210.09649  11454549.85647  23174937.7174   23174934.0574
     -3859.9374
   -251663.70549   -190645.31847  24830846.6234   24830843.5254
     -1117.3284
   -859863.69949  -1030187.34148  24170163.7324   24170159.0574
      -884.2034
   2772871.91349   2158878.59948  22332082.4904   22332079.1624
     -1119.9844
  -5553069.27949  -4319029.25447  24143359.2484   24143356.0024
      1421.5634
 04  9  8 22 33 30.0060000  0  7G 3G 8G13G10G19G27G28
   8943051.90749   6968383.89947  25353799.7954   25353796.2254
     -3316.5784
  -5461926.59349  -4248217.28648  22434505.4904   22434501.8614
        85.3594
  14769156.87849  11499703.17047  23185964.5764   23185960.9714
     -3866.2974
   -234832.00849   -177529.73647  24834049.4044   24834046.4164
     -1126.7504
   -846532.24349  -1019799.18847  24172700.5144   24172695.4324
      -893.3124
   2789696.91949   2171988.99948  22335284.5924   22335280.5884
     -1123.3284
  -5574358.53849  -4335618.24847  24139307.8814   24139304.9944
      1417.0784
 04  9  8 22 33 45.0060000  0  7G 3G 8G13G10G19G27G28
   8992862.91349   7007197.69847  25363278.9754   25363276.3814
     -3324.8754
  -5463172.37549  -4249188.02148  22434268.3964   22434265.0534
        80.8284
  14827203.10449  11544933.97747  23197009.9594   23197006.4124
     -3873.2664
   -217854.10349   -164300.18647  24837281.0294   24837277.0024
     -1136.9374
   -833059.93049  -1009301.25947  24175263.5614   24175259.0574
      -903.0474
   2806576.96849   2185142.28748  22338496.7564   22338492.9004
     -1127.2814
  -5595576.07049  -4352151.35347  24135270.3504   24135267.3144
      1411.9694
 04  9  8 22 34  0.0060000  0  7G 3G 8G13G10G19G27G28
   9042792.22249   7046103.63047  25372779.3814   25372778.1824
     -3332.2504
  -5464358.17049  -4250112.01448  22434042.6154   22434039.1464
        77.3284
  14885346.35849  11590240.36847  23208075.3504   23208071.0844
     -3879.1564
   -200732.53249   -150958.72047  24840538.4514   24840535.3814
     -1145.8594
   -819449.00149   -998695.34648  24177854.1314   24177849.0494
      -911.7664
   2823509.52449   2198336.48148  22341718.7874   22341714.6004
     -1130.3124
  -5616724.15349  -4368630.35947  24131245.1464   24131243.0644
      1407.8134
 04  9  8 22 34 15.0060000  0  7G 3G 8G13G10G19G27G28
   9092839.94349   7085101.83747  25382302.6154   25382301.7604
     -3340.3594
  -5465483.79249  -4250989.11648  22433828.3894   22433824.7874
        73.1254
  14943586.68449  11635622.44047  23219157.3264   23219153.2914
     -3885.7814
   -183467.09649   -137505.11447  24843823.3654   24843821.2794
     -1155.7194
   -805699.04649   -987981.07347  24180470.1154   24180465.7254
      -921.1874
   2840495.02249   2211571.93248  22344951.1864   22344947.1464
     -1134.0004
  -5637802.30649  -4385054.85647  24127234.6234   24127232.0764
      1403.0164
 04  9  8 22 34 30.0060000  0  7G 3G 8G13G10G19G27G28
   9143008.01549   7124193.81147  25391850.2954   25391847.6034
     -3348.5784
  -5466546.98249  -4251817.57548  22433625.9904   22433622.2714
        68.7814
  15001926.12849  11681081.71747  23230259.1704   23230255.8504
     -3892.6724
   -166055.51349   -123937.65547  24847137.0684   24847134.3074
     -1165.7814
   -791807.82549   -977156.73147  24183115.0534   24183108.5214
      -930.8594
   2857535.68049   2224850.36748  22348194.1624   22348189.8934
     -1137.8594
  -5658808.11849  -4401422.98147  24123237.1394   24123234.5534
      1397.9224
 04  9  8 22 34 45.0060000  0  7G 3G 8G13G10G19G27G28
   9193291.12049   7163375.48246  25401417.8964   25401415.6034
     -3355.8594
  -5467552.90649  -4252601.39248  22433434.5294   22433431.1894
        65.3444
  15060359.47349  11726614.17447  23241378.7174   23241374.7994
     -3898.5004
   -148502.87449   -110260.29247  24850477.9824   24850474.7954
     -1174.8124
   -777780.23949   -966226.14948  24185784.0214   24185777.7094
      -939.4844
   2874626.56349   2238167.93148  22351446.2094   22351442.4284
     -1140.9534
  -5679746.66449  -4417738.70647  24119253.1704   24119249.5964
      1393.7974
 04  9  8 22 35  0.0060000  0  7G 3G 8G13G10G19G27G28
   9243693.05249   7202649.71946  25411008.1934   25411007.3224
     -3364.1724
  -5468497.21149  -4253337.22848  22433255.3114   22433251.7214
        60.6564
  15118890.59749  11772222.83247  23252516.9284   23252513.3734
     -3905.5004
   -130805.21749    -96469.91447  24853845.5534   24853843.0294
     -1184.8284
   -763612.08349   -955186.04147  24188479.3034   24188473.9364
      -949.3594
   2891771.74649   2251527.81048  22354709.0764   22354704.7094
     -1144.9534
  -5700613.64949  -4433998.65047  24115281.9824   24115278.6624
      1388.5944
 04  9  8 22 35 15.0060000  0  7G 3G 8G13G10G19G27G28
   9294212.76849   7242015.71547  25420623.5454   25420620.3694
     -3372.4374
  -5469380.71749  -4254025.68348  22433087.1784   22433083.3344
        56.3594
  15177518.50349  11817906.87647  23263673.2404   23263669.5454
     -3912.3914
   -112963.45149    -82567.21947  24857240.8894   24857237.6434
     -1194.8444
   -749304.20849   -944037.03647  24191202.6544   24191196.4164
      -959.0004
   2908970.38949   2264929.35048  22357981.7954   22357977.5724
     -1148.9064
  -5721409.92749  -4450203.49947  24111324.4124   24111321.1504
      1383.4844
 04  9  8 22 35 30.0060000  0  7G 3G 8G13G10G19G27G28
   9344850.44049   7281473.60547  25430260.0374   25430256.4244
     -3379.4694
  -5470202.83349  -4254666.28148  22432930.4754   22432926.8464
        53.0164
  15236243.43849  11863666.55847  23274848.6074   23274844.5064
     -3917.9844
    -94976.95949    -68551.77847  24860663.7094   24860660.6664
     -1203.5474
   -734855.88049   -932778.58847  24193952.1074   24193946.3034
      -967.6254
   2926223.13349   2278373.06248  22361264.6314   22361260.9634
     -1151.7504
  -5742134.81149  -4466352.72747  24107381.2484   24107377.2284
      1379.5164
 04  9  8 22 35 45.0060000  0  7G 3G 8G13G10G19G27G28
   9395604.41449   7321022.12647  25439918.0924   25439914.3894
     -3387.7974
  -5470964.81049  -4255260.03248  22432785.8034   22432781.9284
        48.3914
  15295063.75849  11909500.54448  23286041.8574   23286038.2914
     -3924.8754
    -76847.28549    -54424.77747  24864112.8574   24864110.2444
     -1213.7974
   -720268.55549   -921411.84247  24196727.7564   24196721.9004
      -977.4224
   2943528.64649   2291857.86348  22364557.6314   22364553.8814
     -1155.8594
  -5762789.57949  -4482447.32147  24103450.4284   24103447.1194
      1374.2664
 04  9  8 22 36  0.0060000  0  7G 3G 8G13G10G19G27G28
   9446478.15749   7360664.00547  25449598.0144   25449596.0614
     -3395.5164
  -5471662.82349  -4255803.92448  22432652.7174   22432649.0644
        44.4844
  15353983.03249  11955411.65148  23297253.3654   23297249.8934
     -3931.1094
    -58570.63049    -40183.21947  24867591.1464   24867587.4474
     -1223.2664
   -705538.36649   -909933.76147  24199530.1624   24199525.1504
      -986.5944
   2960890.78149   2305386.80048  22367861.6624   22367857.9904
     -1159.2194
  -5783370.26249  -4498484.16747  24099534.5374   24099530.4434
      1369.6724
 04  9  8 22 36 15.0060000  0  7G 3G 8G13G10G19G27G28
   9497469.75549   7400397.68447  25459301.7324   25459299.9714
     -3402.7344
  -5472298.66149  -4256299.37848  22432531.2174   22432527.8774
        40.8284
  15412999.39049  12001398.40648  23308484.0684   23308480.6434
     -3937.1564
    -40148.93849    -25828.66647  24871096.2484   24871094.2794
     -1232.3444
   -690666.89049   -898345.60147  24202360.2404   24202355.4904
      -995.7034
   2978307.80449   2318958.50448  22371175.7714   22371172.1664
     -1162.5164
  -5803878.63749  -4514464.70447  24095630.6864   24095627.9124
      1365.3284
 04  9  8 22 36 30.0060000  0  7G 3G 8G13G10G19G27G28
   9548577.06249   7440221.53246  25469026.5294   25469024.8344
     -3411.2344
  -5472874.13549  -4256747.80048  22432422.2404   22432418.5534
        36.1094
  15472110.68149  12047459.11847  23319732.1934   23319729.1314
     -3944.2344
    -21584.22149    -11362.66247  24874629.8574   24874626.5574
     -1242.6874
   -675656.09149   -886648.88747  24205217.3114   24205211.7684
     -1005.6564
   2995777.76249   2332571.44448  22374500.2094   22374496.2754
     -1166.7194
  -5824316.45949  -4530390.25647  24091742.2714   24091738.6464
      1359.8914
 04  9  8 22 36 45.0060000  0  7G 3G 8G13G10G19G27G28
   9599804.18849   7480138.78346  25478775.2794   25478773.6194
     -3419.1414
  -5473384.63749  -4257145.58348  22432325.1464   22432321.2254
        31.9694
  15531321.16049  12093597.14648  23330999.9044   23330996.3144
     -3950.5474
     -2871.95349      3218.33647  24878190.4984   24878187.0064
     -1252.2974
   -660501.35749   -874839.99447  24208100.3734   24208095.8344
     -1015.0474
   3013305.31249   2346229.27648  22377835.8184   22377832.0614
     -1170.2974
  -5844679.12449  -4546257.21347  24087867.1784   24087863.9474
      1355.1094
 04  9  8 22 37  0.0060000  0  7G 3G 8G13G10G19G27G28
   9651149.45949   7520148.06347  25488545.7564   25488544.3504
     -3426.6724
  -5473831.43749  -4257493.72648  22432240.0454   22432236.6464
        28.0314
  15590629.22749  12139811.20348  23342285.6544   23342282.0454
     -3956.7504
     15986.36149     17913.10847  24881778.7794   24881775.3734
     -1261.7034
   -645203.91349   -862919.90347  24211011.5614   24211006.7754
     -1024.2034
   3030889.08849   2359930.92248  22381182.0924   22381177.6504
     -1173.7974
  -5864967.81149  -4562066.56047  24084006.7404   24084002.7564
      1350.4384
 04  9  8 22 37 15.0060000  0  7G 3G 8G13G10G19G27G28
   9702610.08649   7560247.21447  25498338.2404   25498337.1034
     -3434.8124
  -5474217.23049  -4257794.33348  22432166.4364   22432162.5494
        23.4064
  15650032.08049  12186099.11347  23353589.8424   23353585.9394
     -3963.6094
     34987.78749     32719.42947  24885395.2484   24885391.7754
     -1271.7814
   -629766.54249   -850890.76647  24213949.6544   24213944.7254
     -1034.1094
   3048526.49549   2373674.35748  22384538.4824   22384534.1744
     -1177.9064
  -5885185.18649  -4577820.32747  24080159.1394   24080155.8074
      1345.1724
 04  9  8 22 37 30.0060000  0  7G 3G 8G13G10G19G27G28
   9754182.48749   7600433.52846  25508151.7254   25508150.2994
     -3442.4534
  -5474545.34849  -4258050.00948  22432104.4044   22432100.6584
        19.4224
  15709526.14749  12232458.10847  23364911.3424   23364907.3034
     -3969.9224
     54129.11349     47634.73747  24889037.5294   24889034.6394
     -1281.2344
   -614192.50049   -838755.16047  24216913.0144   24216907.4904
     -1043.3754
   3066214.20049   2387457.00248  22387904.2644   22387899.8964
     -1181.3284
  -5905334.42649  -4593520.99647  24076324.9824   24076321.6894
      1340.4384
 04  9  8 22 37 45.0060000  0  7G 3G 8G13G10G19G27G28
   9805876.59949   7640714.61546  25517990.1784   25517986.4864
     -3450.1724
  -5474805.42249  -4258252.67948  22432054.2714   22432051.1664
        15.2034
  15769121.46449  12278895.97647  23376252.0294   23376248.5844
     -3976.2814
     73420.59249     62667.02247  24892708.1314   24892705.8934
     -1290.9374
   -598471.40449   -826504.95847  24219904.7714   24219899.5144
     -1052.7974
   3083962.53949   2401286.87148  22391281.8034   22391277.6154
     -1185.0944
  -5925405.18749  -4609160.53147  24072505.4044   24072502.2214
      1335.5314
 04  9  8 22 38  0.0060000  0  7G 3G 8G13G10G19G27G28
   9857686.58849   7681086.00346  25527848.6074   25527846.3034
     -3458.0004
  -5475002.96149  -4258406.59448  22432017.0924   22432013.9594
        11.0474
  15828812.33549  12325408.31047  23387610.7094   23387607.5104
     -3982.5314
     92856.63249     77811.99947  24896406.6074   24896404.9004
     -1300.6414
   -582608.55049   -814144.31447  24222923.4124   24222917.7684
     -1062.2664
   3101766.09649   2415159.76748  22394669.2324   22394665.0574
     -1188.8124
  -5945402.77849  -4624743.04647  24068699.6934   24068696.6824
      1330.6884
 04  9  8 22 38 15.0060000  0  7G 3G 8G13G10G19G27G28
   9909611.25049   7721546.75146  25537729.1004   25537726.8854
     -3465.2974
  -5475138.71249  -4258512.37648  22431991.3504   22431987.4864
         7.1254
  15888597.50449  12371994.12847  23398987.7324   23398983.8814
     -3988.7814
    112436.13949     93068.74047  24900132.7254   24900130.4474
     -1310.0004
   -566604.93849   -801673.97547  24225968.6004   24225963.1744
     -1071.5474
   3119623.94949   2429074.96748  22398067.4824   22398063.1114
     -1192.2344
  -5965328.19649  -4640269.32147  24064908.3264   24064904.8264
      1326.0164
 04  9  8 22 38 30.0060000  0  7G 3G 8G13G10G19G27G28
   9961649.17749   7762095.76346  25547631.7094   25547628.9394
     -3473.0784
  -5475213.65649  -4258570.76948  22431977.2644   22431973.6824
         2.8284
  15948475.76349  12418652.48747  23410382.0844   23410378.0884
     -3995.1254
    132157.82449    108436.25947  24903885.4514   24903882.8344
     -1319.6874
   -550461.76649   -789094.86647  24229040.3734   24229035.4394
     -1081.0004
   3137534.99449   2443031.63248  22401475.8504   22401472.0334
     -1195.9844
  -5985182.38049  -4655740.06247  24061130.2954   24061126.9204
      1321.0944
 04  9  8 22 38 45.0060000  0  7G 3G 8G13G10G19G27G28
  10013803.73849   7802735.70646  25557557.3114   25557553.4004
     -3480.6724
  -5475224.43449  -4258579.15748  22431975.3654   22431971.3264
        -1.2664
  16008450.50349  12465386.04347  23421794.8264   23421791.3534
     -4001.2034
    152025.38449    123917.47847  24907666.1464   24907663.5494
     -1329.0944
   -534175.22749   -776404.05347  24232139.8814   24232134.4864
     -1090.3124
   3155502.85549   2457032.55148  22404894.9124   22404891.3574
     -1199.4844
  -6004961.68149  -4671152.48447  24057366.5844   24057362.6504
      1316.2814
 04  9  8 22 39  0.0060000  0  7G 3G 8G13G10G19G27G28
  10066072.84949   7843464.84846  25567503.0764   25567500.1894
     -3488.9694
  -5475172.68849  -4258538.83748  22431984.8264   22431981.7524
        -6.0624
  16068519.67949  12512193.17847  23433226.2174   23433222.1114
     -4008.2034
    172036.93049    139510.88647  24911474.2094   24911471.4864
     -1339.4064
   -517747.08149   -763602.88647  24235266.0764   24235261.0294
     -1100.3914
   3173525.89849   2471076.48048  22408324.7094   22408320.9204
     -1203.8444
  -6024667.64249  -4686507.74547  24053616.3574   24053612.4474
      1310.7194
 04  9  8 22 39 15.0060000  0  7G 3G 8G13G10G19G27G28
  10118456.50049   7884283.28047  25577471.8344   25577469.0184
     -3496.1254
  -5475057.94949  -4258449.42148  22432006.3654   22432002.5374
        -9.7814
  16128683.34749  12559073.93347  23444674.5064   23444670.4784
     -4014.1874
    192192.63149    155216.60847  24915309.6234   24915306.9784
     -1348.6254
   -501176.95949   -750691.08948  24238419.2254   24238414.8114
     -1109.5624
   3191604.47149   2485163.67748  22411764.9904   22411761.2834
     -1207.1254
  -6044299.87449  -4701805.55447  24049880.7484   24049876.6584
      1306.3284
 04  9  8 22 39 30.0060000  0  7G 3G 8G13G10G19G27G28
  10170948.27049   7925185.93746  25587461.2174   25587458.6784
     -3503.9694
  -5474886.18249  -4258315.57548  22432039.3654   22432035.3964
       -14.2814
  16188935.15849  12606023.38847  23456140.0214   23456136.3614
     -4020.6094
    212486.22949    171029.80747  24919171.7484   24919168.6394
     -1358.3914
   -484470.92449   -737673.39348  24241598.1544   24241593.4204
     -1119.1564
   3209732.54649   2499289.45948  22415214.3344   22415211.1194
     -1211.0784
  -6063864.41449  -4717050.62047  24046157.0294   24046153.4944
      1301.0634
 04  9  8 22 39 45.0060000  0  7G 3G 8G13G10G19G27G28
  10223552.68949   7966176.41546  25597471.5064   25597469.6744
     -3510.9844
  -5474652.62549  -4258133.57548  22432083.7954   22432079.2794
       -17.8914
  16249279.70349  12653045.09347  23467623.5214   23467619.8574
     -4026.2504
    232922.47449    186954.14047  24923060.6464   24923057.2714
     -1367.3914
   -467624.14249   -724546.03048  24244804.3894   24244798.5214
     -1128.0784
   3227914.82749   2513457.46348  22418674.2644   22418671.0024
     -1214.1724
  -6083356.41249  -4732239.16547  24042448.7484   24042444.0454
      1296.8444
 04  9  8 22 40  0.0060000  0  7G 3G 8G13G10G19G27G28
  10276273.36949   8007257.46246  25607503.9754   25607502.1314
     -3518.6094
  -5474353.19549  -4257900.25548  22432140.7874   22432136.9714
       -22.4224
  16309720.66549  12700141.93847  23479124.9824   23479121.2684
     -4032.8124
    253505.08349    202992.51447  24926976.8504   24926974.5064
     -1377.3284
   -450632.71949   -711305.95147  24248037.5924   24248031.9244
     -1137.8124
   3246155.24849   2527670.77748  22422145.9124   22422141.7324
     -1218.2194
  -6102771.85949  -4747368.06247  24038753.6464   24038749.5534
      1291.5474
 04  9  8 22 40 15.0060000  0  7G 3G 8G13G10G19G27G28
  10329107.08249   8048426.59346  25617556.8184   25617556.2054
     -3526.0784
  -5473991.10849  -4257618.08548  22432209.2404   22432205.9364
       -26.3754
  16370254.90649  12747311.45547  23490643.9364   23490639.7324
     -4038.9374
    274230.98349    219142.56147  24930921.0764   24930918.6434
     -1386.7034
   -433499.56649   -697955.45747  24251298.1934   24251292.1784
     -1147.1094
   3264450.89949   2541927.11948  22425627.3184   22425623.2214
     -1221.6564
  -6122113.74149  -4762439.61147  24035072.6314   24035068.8424
      1286.7664
 04  9  8 22 40 30.0060000  0  7G 3G 8G13G10G19G27G28
  10382056.83049   8089686.07946  25627634.2644   25627631.7644
     -3533.4224
  -5473562.84349  -4257284.36248  22432291.1934   22432287.9244
       -30.4534
  16430885.43249  12794555.99947  23502180.8964   23502178.0494
     -4045.0164
    295103.58449    235406.93947  24934893.1394   24934890.6894
     -1396.1254
   -416221.26549   -684491.82147  24254586.0294   24254580.1664
     -1156.4224
   3282805.35349   2556229.30448  22429120.3114   22429115.3034
     -1225.3124
  -6141378.37049  -4777450.99547  24031407.3734   24031403.6074
      1282.0944
 04  9  8 22 40 45.0060000  0  7G 3G 8G13G10G19G27G28
  10435114.45949   8131029.66846  25637730.1234   25637728.1394
     -3540.5944
  -5473076.36349  -4256905.28948  22432384.1314   22432379.9394
       -34.2344
  16491604.10749  12841869.26647  23513735.9124   23513732.4164
     -4050.6564
    316114.68149    251779.19447  24938891.7644   24938888.7014
     -1405.2194
   -398805.76549   -670921.29247  24257899.6004   24257894.3224
     -1165.4534
   3301210.50649   2570570.97848  22432622.3814   22432618.3894
     -1228.5164
  -6160573.80449  -4792408.42847  24027754.4124   24027750.3654
      1277.5634
 04  9  8 22 41  0.0060000  0  7G 3G 8G13G10G19G27G28
  10488284.52249   8172460.89946  25647847.1704   25647846.0454
     -3548.1724
  -5472526.53849  -4256476.85348  22432488.2254   22432484.6934
       -38.6564
  16552415.72349  12889254.89747  23525308.0614   23525304.5414
     -4056.9844
    337269.29749    268263.30847  24942917.0684   24942914.7954
     -1414.9694
   -381248.02649   -657239.94247  24261240.8424   24261234.9674
     -1175.1414
   3319671.44449   2584956.12748  22436135.3894   22436131.5184
     -1232.5474
  -6179694.94149  -4807307.99647  24024115.3424   24024111.4904
      1272.2974
 04  9  8 22 41 15.0060000  0  7G 3G 8G13G10G19G27G28
  10541564.41049   8213977.70546  25657986.0454   25657984.7054
     -3555.6254
  -5471915.55049  -4256000.74548  22432604.2324   22432600.7564
       -42.8124
  16613317.61549  12936710.87447  23536898.0534   23536894.5334
     -4063.1094
    358564.94849    284857.29047  24946969.4984   24946966.7564
     -1424.4844
   -363550.37749   -643449.56247  24264608.0144   24264603.0254
     -1184.5004
   3338185.94449   2599383.00048  22439658.2254   22439655.1434
     -1236.1094
  -6198744.10349  -4822151.46847  24020491.0214   24020486.7174
      1267.5474
 04  9  8 22 41 30.0060000  0  7G 3G 8G13G10G19G27G28
  10594956.54449   8255581.86346  25668146.9204   25668144.6974
     -3563.6564
  -5471240.71149  -4255474.90648  22432733.1394   22432729.5804
       -47.4534
  16674312.21749  12984239.10447  23548504.5294   23548500.9044
     -4069.7664
    380003.98849    301563.03447  24951049.2254   24951046.7174
     -1434.4534
   -345710.22249   -629548.12447  24268003.0534   24267998.1894
     -1194.4694
   3356756.45449   2613853.52848  22443192.4984   22443188.3964
     -1240.2344
  -6217718.52349  -4836936.70847  24016880.1544   24016876.1314
      1262.1564
 04  9  8 22 41 45.0060000  0  7G 3G 8G13G10G19G27G28
  10648462.20649   8297274.56246  25678328.8184   25678326.5574
     -3570.5004
  -5470500.55249  -4254898.15748  22432873.8034   22432870.1824
       -51.1724
  16735400.89749  13031840.64847  23560128.6394   23560125.4674
     -4075.3284
    401587.92249    318381.68547  24955156.6314   24955153.8114
     -1443.4064
   -327725.87849   -615534.36747  24271426.0374   24271420.7524
     -1203.4534
   3375384.72949   2628369.06748  22446737.2564   22446733.5494
     -1243.4224
  -6236616.54549  -4851662.40847  24013283.8184   24013279.8114
      1257.6724
 04  9  8 22 42  0.0060000  0  7G 3G 8G13G10G19G27G28
  10702080.74549   8339055.15346  25688532.7324   25688530.0454
     -3578.3914
  -5469695.30449  -4254270.68048  22433026.8184   22433022.9324
       -56.0004
  16796583.08549  13079515.06847  23571771.8734   23571768.4434
     -4081.9694
    423316.43149    335312.98447  24959292.1784   24959288.7794
     -1453.4694
   -309597.62849   -601408.44447  24274875.5924   24274870.3304
     -1213.5314
   3394070.56449   2642929.45948  22450293.2404   22450289.3504
     -1247.8284
  -6255438.33449  -4866328.70347  24009701.9434   24009698.3894
      1252.1564
 04  9  8 22 42 15.0060000  0  7G 3G 8G13G10G19G27G28
  10755810.23849   8380922.33446  25698755.1004   25698754.3534
     -3585.4064
  -5468826.52649  -4253593.70148  22433192.1074   22433188.5644
       -59.9534
  16857856.99649  13127260.94347  23583431.8734   23583428.4784
     -4087.7814
    445187.85549    352355.62447  24963453.9514   24963450.9324
     -1462.7034
   -291327.02749   -587171.61747  24278352.2324   24278346.2214
     -1222.6564
   3412812.34649   2657533.43548  22453859.9674   22453855.7524
     -1251.1874
  -6274185.40949  -4880936.78347  24006134.6074   24006130.8184
      1247.4534
 04  9  8 22 42 30.0060000  0  7G 3G 8G13G10G19G27G28
  10809647.53949   8422873.42446  25709001.3114   25709000.0964
     -3593.0784
  -5467897.08349  -4252869.46248  22433369.0294   22433365.3504
       -64.3284
  16919219.28549  13175075.68847  23595108.6394   23595104.9754
     -4094.0624
    467198.97849    369507.15047  24967641.7644   24967639.1004
     -1472.3444
   -272917.09949   -572826.21447  24281855.5214   24281849.9944
     -1232.3914
   3431607.18549   2672178.75748  22457436.4674   22457431.6274
     -1255.1254
  -6292860.59849  -4895488.85547  24002580.4124   24002576.3114
      1242.3134
 04  9  8 22 42 45.0060000  0  7G 3G 8G13G10G19G27G28
  10863596.18449   8464911.40546  25719267.1314   25719265.7834
     -3599.9534
  -5466902.93449  -4252094.79748  22433558.5374   22433554.6824
       -68.1874
  16980673.77649  13222962.28947  23606803.1074   23606798.8934
     -4099.8594
    489353.54349    386770.43747  24971858.6074   24971854.8144
     -1481.5164
   -254363.96349   -558369.19047  24285386.2174   24285380.6034
     -1241.3594
   3450458.94949   2686868.44048  22461023.4044   22461019.1894
     -1258.3914
  -6311460.01249  -4909981.88947  23999041.0764   23999036.9364
      1237.7034
 04  9  8 22 43  0.0060000  0  7G 3G 8G13G10G19G27G28
  10917657.64249   8507037.18446  25729554.6934   25729553.5374
     -3608.0944
  -5465842.26049  -4251268.28948  22433760.1154   22433756.3384
       -73.0624
  17042221.89749  13270921.82947  23618515.4044   23618511.7054
     -4106.3914
    511653.25749    404146.83447  24976101.6004   24976098.6074
     -1491.5314
   -235665.75249   -543799.16747  24288944.2954   24288939.2014
     -1251.4374
   3469369.39949   2701603.85248  22464622.0454   22464618.4004
     -1262.7504
  -6329981.78949  -4924414.40947  23995516.7404   23995512.6664
      1232.0944
 04  9  8 22 43 15.0060000  0  7G 3G 8G13G10G19G27G28
  10971828.58849   8549248.25846  25739862.5534   25739862.7054
     -3614.9374
  -5464718.09649  -4250392.31848  22433974.2564   22433970.4434
       -77.1564
  17103860.56649  13318951.94047  23630244.6234   23630241.2874
     -4112.3284
    534095.05849    421633.96947  24980372.0764   24980368.3814
     -1500.9374
   -216825.34649   -529118.32348  24292529.8734   24292524.5644
     -1260.8444
   3488335.77849   2716382.85548  22468230.9984   22468227.3224
     -1266.3444
  -6348428.69549  -4938788.58147  23992006.8184   23992002.9164
      1227.2504
 04  9  8 22 43 30.0060000  0  7G 3G 8G13G10G19G27G28
  11026109.06549   8591544.71146  25750192.4674   25750192.1584
     -3622.3754
  -5463530.15849  -4249466.65548  22434200.5924   22434196.3814
       -81.3444
  17165589.60149  13367052.47047  23641990.5144   23641988.0104
     -4118.2974
    556678.99649    439231.82947  24984669.4124   24984666.1354
     -1510.3284
   -197842.56549   -514326.54548  24296141.9044   24296136.6354
     -1270.3124
   3507358.25149   2731205.56448  22471851.1074   22471847.0214
     -1270.1254
  -6366800.50749  -4953104.26847  23988510.1234   23988506.2174
      1222.2504
 04  9  8 22 43 45.0060000  0  7G 3G 8G13G10G19G27G28
  11080497.35349   8633925.26646  25760541.5374   25760542.3854
     -3629.5624
  -5462279.65649  -4248492.23648  22434438.5454   22434434.5184
       -85.5004
  17227407.75749  13415222.41847  23653755.5454   23653751.4164
     -4124.1724
    579403.78249    456939.45347  24988994.1934   24988990.4004
     -1519.7664
   -178718.57049   -499424.71547  24299780.2794   24299775.2644
     -1279.7194
   3526435.66749   2746071.07548  22475481.3964   22475477.1974
     -1273.7034
  -6385098.40949  -4967362.34847  23985028.8574   23985024.5024
      1217.3754
 04  9  8 22 44  0.0060000  0  7G 3G 8G13G10G19G27G28
  11134991.95849   8676388.57846  25770912.3264   25770911.6934
     -3636.2814
  -5460967.92049  -4247470.09148  22434688.0454   22434683.8114
       -89.4064
  17289313.24449  13463460.45747  23665535.3734   23665532.3344
     -4129.8754
    602267.93049    474755.64647  24993344.7564   24993341.6434
     -1528.8444
   -159454.69749   -484413.90747  24303447.1154   24303440.8734
     -1288.8444
   3545566.77049   2760978.44448  22479121.6624   22479117.9714
     -1277.1094
  -6403323.59049  -4981563.74647  23981559.7644   23981555.9324
      1212.6254
 04  9  8 22 44 15.0060000  0  7G 3G 8G13G10G19G27G28
  11189597.81149   8718938.59046  25781304.5924   25781302.4714
     -3644.1094
  -5459589.37249  -4246395.89948  22434950.0374   22434946.5374
       -94.2504
  17351311.42149  13511770.69247  23677333.6074   23677329.9124
     -4136.3594
    625276.68449    492684.55747  24997723.0064   24997719.7284
     -1538.7814
   -140045.57849   -469289.91847  24307139.9124   24307133.7014
     -1298.9064
   3564756.93649   2775931.81348  22482773.7014   22482769.4864
     -1281.4224
  -6421470.68249  -4995704.32047  23978106.9284   23978102.9084
      1207.1094
 04  9  8 22 44 30.0060000  0  7G 3G 8G13G10G19G27G28
  11244315.78949   8761575.94346  25791716.7484   25791715.1314
     -3651.3754
  -5458142.80049  -4245268.70048  22435225.4044   22435221.7364
       -98.4534
  17413403.09849  13560153.80147  23689148.2794   23689145.4474
     -4142.4064
    648431.11649    510726.96547  25002128.8034   25002125.7644
     -1548.2504
   -120490.18849   -454051.93047  24310861.3504   24310855.4284
     -1308.2344
   3584007.31349   2790932.11348  22486436.6704   22486433.1154
     -1285.1094
  -6439538.39449  -5009783.03147  23974668.5214   23974664.4904
      1202.1564
 04  9  8 22 44 45.0060000  0  7G 3G 8G13G10G19G27G28
  11299138.80049   8804295.12946  25802149.6394   25802146.6464
     -3658.9374
  -5456634.89849  -4244093.71348  22435512.1074   22435508.4164
      -103.0474
  17475581.04749  13608604.10247  23700980.3814   23700977.9474
     -4148.4694
    671724.29449    528877.48447  25006561.9124   25006558.5764
     -1558.0784
   -100795.20549   -438705.19347  24314609.7174   24314604.1624
     -1318.1094
   3603311.16249   2805974.06748  22490110.2564   22490105.8074
     -1289.1564
  -6457533.54849  -5023805.20847  23971244.3344   23971240.2754
      1196.7974
 04  9  8 22 45  0.0060000  0  7G 3G 8G13G10G19G27G28
  11354071.39048   8847099.76646  25812600.6624   25812599.8464
     -3665.6414
  -5455060.97349  -4242867.27248  22435811.8264   22435807.9394
      -107.0944
  17537850.03749  13657125.35247  23712830.2174   23712826.8424
     -4154.1874
    695160.88849    547139.74747  25011021.4364   25011018.4784
     -1567.1414
    -80955.73049   -423245.86648  24318385.1004   24318379.6314
     -1327.3754
   3622673.41749   2821061.53548  22493795.4364   22493790.8264
     -1292.7194
  -6475451.09149  -5037766.90647  23967834.9984   23967831.1934
      1191.9534
 04  9  8 22 45 15.0060000  0  7G 3G 8G13G10G19G27G28
  11409112.44848   8889988.77345  25823076.2324   25823073.8384
     -3672.1094
  -5453421.76949  -4241589.96148  22436123.8114   22436119.9394
      -110.6874
  17600208.99249  13705716.71747  23724696.8894   23724693.8894
     -4159.3594
    718739.87849    565513.01047  25015508.5534   25015506.0254
     -1575.8754
    -60972.73249   -407674.68848  24322187.9044   24322182.4164
     -1336.1564
   3642093.23449   2836193.84848  22497490.5844   22497486.5924
     -1295.7974
  -6493291.86949  -5051668.77747  23964440.0294   23964435.7444
      1187.6724
 04  9  8 22 45 30.0060000  0  7G 3G 8G13G10G19G27G28
  11464261.52748   8932962.08245  25833569.7564   25833568.4434
     -3680.3444
  -5451717.34949  -4240261.84148  22436447.8264   22436444.0924
      -115.9374
  17662657.40449  13754377.79847  23736579.8574   23736577.4594
     -4166.3124
    742461.02049    583996.98547  25020022.1154   25020019.7644
     -1586.2034
    -40846.26749   -391991.73248  24326017.6784   24326012.2134
     -1346.7344
   3661570.51149   2851370.95648  22501196.8654   22501192.6194
     -1300.5784
  -6511056.02449  -5065510.96547  23961059.2954   23961055.7604
      1181.6094
 04  9  8 22 45 45.0060000  0  7G 3G 8G13G10G19G27G28
  11519521.66149   8976021.95345  25844086.2484   25844084.8344
     -3687.8124
  -5449944.28849  -4238880.23448  22436785.5924   22436781.7564
      -120.4844
  17725198.37549  13803111.00747  23748481.2874   23748478.3464
     -4172.4694
    766327.60049    602594.32447  25024564.0764   25024561.1314
     -1595.9374
    -20573.00549   -376194.37447  24329875.5294   24329869.7254
     -1356.4374
   3681108.65749   2866595.47648  22504914.3894   22504910.7254
     -1304.5944
  -6528739.99249  -5079290.64947  23957694.3114   23957690.1664
      1176.2664
 04  9  8 22 46  0.0060000  0  7G 3G 8G13G10G19G27G28
  11574888.96648   9019165.35545  25854621.4284   25854621.1664
     -3694.6564
  -5448105.82449  -4237447.64748  22437135.3964   22437131.8424
      -124.6414
  17787828.29249  13851913.52147  23760399.3734   23760396.6034
     -4178.2344
    790335.85749    621302.04947  25029133.2324   25029130.6824
     -1605.2664
      -156.39249   -360285.31747  24333759.5614   24333754.7874
     -1365.7974
   3700704.24849   2881864.76948  22508643.5064   22508640.1004
     -1308.1564
  -6546347.20149  -5093010.52147  23954344.0684   23954339.7834
      1171.2664
 04  9  8 22 46 15.0060000  0  7G 3G 8G13G10G19G27G28
  11630362.00049   9062391.04745  25865179.8424   25865177.4514
     -3701.8284
  -5446203.38649  -4235965.23548  22437497.0534   22437493.7094
      -128.9534
  17850545.67549  13900784.18747  23772334.4204   23772330.8224
     -4184.1414
    814484.49149    640119.15347  25033728.7174   25033725.7524
     -1614.5314
     20402.27249   -344265.58047  24337671.7254   24337666.8894
     -1375.2344
   3720356.20449   2897177.98748  22512382.6154   22512379.7254
     -1311.9844
  -6563878.82549  -5106671.50347  23951007.6934   23951003.9514
      1166.3444
 04  9  8 22 46 30.0060000  0  7G 3G 8G13G10G19G27G28
  11685939.78749   9105698.41845  25875756.4674   25875754.0684
     -3708.9064
  -5444237.40749  -4234433.31148  22437871.9514   22437867.7834
      -133.4224
  17913349.64149  13949722.30247  23784285.9594   23784282.4984
     -4190.0944
    838772.71949    659045.02347  25038350.0454   25038348.2324
     -1624.0784
     41102.41049   -328135.59347  24341611.6154   24341604.9754
     -1384.9374
   3740063.70249   2912534.46648  22516132.9044   22516129.6234
     -1315.9534
  -6581335.34849  -5120273.97947  23947685.4824   23947682.5804
      1161.0314
 04  9  8 22 46 45.0060000  0  7G 3G 8G13G10G19G27G28
  11741626.73348   9149090.83646  25886352.5144   25886351.1974
     -3716.1414
  -5442203.23449  -4232848.22448  22438258.7094   22438254.5684
      -137.8754
  17976244.67649  13998731.41847  23796254.3264   23796250.7254
     -4195.8754
    863205.24349    678083.33647  25042999.9514   25042997.1664
     -1633.5624
     61948.85849   -311891.60947  24345578.6934   24345573.3894
     -1394.5944
   3759831.77849   2927938.15748  22519895.0684   22519891.3384
     -1319.8594
  -6598711.86049  -5133814.07547  23944378.8894   23944375.3384
      1155.7974
 04  9  8 22 47  0.0060000  0  7G 3G 8G13G10G19G27G28
  11797420.27248   9192566.30146  25896969.9204   25896967.7604
     -3722.7504
  -5440102.92849  -4231211.62448  22438658.3964   22438654.3264
      -141.8594
  18039228.27049  14047809.50447  23808238.6074   23808236.1974
     -4201.4534
    887779.59649    697232.19747  25047676.4124   25047673.4904
     -1642.6094
     82939.28049   -295535.42848  24349572.8894   24349567.4164
     -1403.8124
   3779658.16849   2943387.29548  22523667.8894   22523664.6234
     -1323.3124
  -6616010.58649  -5147293.59347  23941086.6394   23941083.2914
      1151.0474
 04  9  8 22 47 15.0060000  0  7G 3G 8G13G10G19G27G28
  11853315.32148   9236120.85245  25907604.3734   25907604.0924
     -3730.5784
  -5437941.29649  -4229527.21948  22439069.6154   22439065.6974
      -146.7664
  18102295.24849  14096952.57247  23820240.2174   23820237.3304
     -4207.7504
    912490.80449    716487.65647  25052378.1624   25052376.0804
     -1652.5784
    104068.84949   -279070.83448  24353594.1394   24353588.8654
     -1413.8754
   3799538.07249   2958878.12248  22527450.9044   22527447.0574
     -1327.6414
  -6633236.43949  -5160716.29947  23937808.6704   23937805.6704
      1145.4384
 04  9  8 22 47 30.0060000  0  7G 3G 8G13G10G19G27G28
  11909317.44248   9279758.78946  25918261.5684   25918261.2684
     -3736.7194
  -5435712.41049  -4227790.42748  22439494.0534   22439489.5804
      -150.6874
  18165451.24649  14146165.01247  23832259.2094   23832255.3814
     -4213.1094
    937344.45049    735854.12347  25057107.2644   25057105.4984
     -1661.4064
    125343.36249   -262493.28547  24357642.6394   24357636.5964
     -1423.0164
   3819477.25049   2974415.15148  22531245.5614   22531241.7094
     -1331.1254
  -6650383.58249  -5174077.67747  23934546.1074   23934542.7874
      1140.6884
 04  9  8 22 47 45.0060000  0  7G 3G 8G13G10G19G27G28
  11965427.90848   9323481.24246  25928939.4824   25928938.6114
     -3744.3124
  -5433414.52749  -4225999.86248  22439930.6934   22439926.7094
      -155.3754
  18228697.92249  14195448.10947  23844294.3344   23844290.6624
     -4219.3284
    962342.23449    755332.88547  25061865.3894   25061862.3654
     -1671.1414
    146764.58649   -245801.39947  24361718.5454   24361712.8534
     -1432.7664
   3839477.58349   2989999.82348  22535051.3344   22535047.3694
     -1335.2034
  -6667450.01949  -5187376.18847  23931298.2714   23931294.0844
      1135.2664
 04  9  8 22 48  0.0060000  0  7G 3G 8G13G10G19G27G28
  12021643.73248   9367285.70745  25939634.7644   25939636.0144
     -3751.0164
  -5431050.25149  -4224157.56248  22440380.5764   22440376.7094
      -159.9694
  18292032.20749  14244799.46647  23856346.3894   23856342.8304
     -4225.3754
    987481.30849    774921.76747  25066649.1934   25066645.5414
     -1680.8284
    168329.76249   -228997.38347  24365821.7324   24365816.5644
     -1442.5624
   3859536.39049   3005630.05848  22538868.4674   22538864.2604
     -1339.3124
  -6684438.44049  -5200613.91047  23928065.3574   23928062.0144
      1129.8134
 04  9  8 22 48 15.0060000  0  7G 3G 8G13G10G19G27G28
  12077962.471 8                  25950353.100
     -3757.484
  -5428621.98049  -4222265.40648  22440842.6004   22440838.8144
      -163.7504
  18355451.47949  14294217.05147  23868414.6074   23868411.7484
     -4230.5314
   1012759.09949    794618.74647  25071459.2954   25071455.8614
     -1689.6564
    190036.50149   -212083.04947  24369952.3894   24369946.8304
     -1451.6414
   3879651.37449   3021304.06148  22542696.0064   22542691.5844
     -1342.6874
  -6701351.05749  -5213792.54747  23924847.2254   23924842.7994
      1125.2344
 04  9  8 22 48 30.0060000  0  7G 3G 8G13G10G19G27G28
  12134387.814 9                  25961092.061
     -3765.203
  -5426125.32449  -4220319.94348  22441317.8734   22441313.7954
      -168.6564
  18418959.72749  14343703.97847  23880500.1074   23880497.0454
     -4236.7194
   1038179.77449    814427.06647  25076295.9824   25076293.4674
     -1699.3284
    211888.91949   -195055.16947  24374111.2324   24374105.9364
     -1461.5944
   3899826.75249   3037025.14448  22546535.6154   22546531.5184
     -1347.0004
  -6718183.59349  -5226908.77347  23921644.1234   23921640.1114
      1119.5474
 04  9  8 22 48 45.0060000  0  7G 3G 8G13G10G19G27G28
  12190913.074 8                  25971847.850
     -3771.844
  -5423566.72149  -4218326.21948  22441804.7174   22441800.9394
      -172.6564
  18482550.23549  14393255.00047  23892601.0684   23892597.3694
     -4242.1094
   1063736.67449    834341.49947  25081159.9514   25081156.5144
     -1708.4374
    233880.81149   -177918.63647  24378295.9284   24378290.8964
     -1470.7974
   3920056.24949   3052788.38848  22550384.8504   22550381.0214
     -1350.4374
  -6734942.40549  -5239967.56747  23918454.5294   23918450.8424
      1114.7974
 04  9  8 22 49  0.0060000  0  7G 3G 8G13G10G19G27G28
  12247545.238 8                  25982629.459
     -3779.141
  -5420938.90449  -4216278.57548  22442304.7644   22442301.0924
      -177.5784
  18546230.14149  14442875.66847  23904718.5924   23904715.7994
     -4248.4064
   1089436.87749    854367.64647  25086050.4594   25086047.6034
     -1718.1564
    256019.33049   -160667.83548  24382508.7094   24382503.6584
     -1480.9064
   3940347.07149   3068599.40948  22554246.2094   22554242.4474
     -1354.8594
  -6751620.20549  -5252963.22647  23915281.2644   23915277.1974
      1109.1254
 04  9  8 22 49 15.0060000  0  6G 8G13G10G19G27G28
  -5418243.14149  -4214177.97748  22442818.2254   22442814.2604
      -181.9844
  18609997.68149  14492564.64147  23916854.0684   23916850.1394
     -4254.1724
   1115278.91449    874504.27547  25090967.9434   25090964.5764
     -1727.5164
    278302.97849   -143303.95947  24386749.5684   24386743.9364
     -1490.4694
   3960697.95249   3084457.25448  22558118.7954   22558114.8224
     -1358.7974
  -6768218.27549  -5265896.77247  23912123.4124   23912119.0764
      1103.7664
 04  9  8 22 49 30.0060000  0  6G 8G13G10G19G27G28
  -5415480.19349  -4212025.03448  22443343.8814   22443339.6394
      -186.4844
  18673851.67549  14542320.98047  23929004.3504   23929001.4394
     -4259.9064
   1141261.66049    894750.56047  25095912.1704   25095909.3464
     -1736.9844
    300730.97849   -125827.60647  24391017.3424   24391011.3114
     -1500.1094
   3981108.09749   3100361.25148  22562002.9204   22561998.7014
     -1362.7194
  -6784737.45349  -5278768.83347  23908979.4904   23908975.6934
      1098.5784
 04  9  8 22 49 45.0060000  0  6G 8G13G10G19G27G28
  -5412652.70049  -4209821.79148  22443882.2714   22443878.5644
      -190.6564
  18737789.22749  14592142.43747  23941171.1154   23941168.3934
     -4265.3284
   1167382.18349    915104.20647  25100882.9434   25100879.4004
     -1746.0314
    323300.42949   -108241.01147  24395312.3814   24395305.9434
     -1509.4374
   4001574.73249   3116309.27848  22565897.3114   22565893.4204
     -1366.4374
  -6801180.48249  -5291581.55547  23905850.5214   23905846.5684
      1093.6254
 04  9  8 22 50  0.0060000  0  6G 8G13G10G19G27G28
  -5409755.29749  -4207564.07848  22444433.3424   22444429.8694
      -195.6874
  18801815.49749  14642033.01147  23953355.4284   23953351.9864
     -4271.6094
   1193645.84249    935569.38447  25105880.0064   25105876.8264
     -1755.8284
    346016.92049    -90539.84247  24399634.6464   24399629.3574
     -1519.5624
   4022103.33649   3132305.58648  22569803.8734   22569800.0144
     -1370.7504
  -6817541.77449  -5304330.60047  23902737.0064   23902732.6154
      1087.7974
 04  9  8 22 50 15.0060000  0  6G 8G13G10G19G27G28
  -5406788.00649  -4205251.90148  22444997.7484   22444994.4864
      -200.5004
  18865929.99449  14691992.32947  23965556.1934   23965552.4864
     -4277.5314
   1220052.20449    956145.74747  25110904.8344   25110902.0574
     -1765.4694
    368880.11349    -72724.37147  24403985.5144   24403979.2134
     -1529.4064
   4042693.72849   3148350.04448  22573722.1004   22573718.1314
     -1375.0944
  -6833821.50149  -5317016.07047  23899639.0684   23899634.6194
      1082.2814
 04  9  8 22 50 30.0060000  0  6G 8G13G10G19G27G28
  -5403753.19749  -4202887.11748  22445575.3264   22445571.7714
      -204.3754
  18930130.06449  14742018.32647  23977773.0534   23977769.2324
     -4282.7504
   1246598.88949    976831.48447  25115957.0144   25115953.7994
     -1774.3444
    391887.68749    -54796.40147  24408363.3814   24408358.0844
     -1538.4534
   4063343.65849   3164440.89348  22577651.6864   22577647.5964
     -1378.4694
  -6850021.93449  -5329639.75948  23896555.9984   23896551.6934
      1077.4844
 04  9  8 22 50 45.0060000  0  6G 8G13G10G19G27G28
  -5400648.29349  -4200467.70048  22446166.4674   22446162.5254
      -209.3914
  18994418.00649  14792112.80247  23990006.5214   23990003.2794
     -4288.8284
   1273288.20249    997628.32247  25121036.1154   25121033.0294
     -1784.0624
    415042.17549    -36753.92047  24412769.7324   24412764.7324
     -1548.4844
   4084055.68749   3180580.13548  22581592.6624   22581588.5614
     -1382.8754
  -6866140.46149  -5342199.63847  23893488.7714   23893483.9864
      1071.7814
 04  9  8 22 51  0.0060000  0  6G 8G13G10G19G27G28
  -5397477.50649  -4197996.95748  22446769.7254   22446765.8534
      -213.4844
  19058789.31449  14842272.22447  24002255.7794   24002252.4824
     -4294.0784
   1300115.68749   1018532.86347  25126141.0764   25126137.9864
     -1792.9694
    438339.20549    -18600.41747  24417202.9904   24417197.8264
     -1557.8284
   4104825.63749   3196764.50948  22585545.1314   22585541.3504
     -1386.5164
  -6882181.27249  -5354698.95447  23890436.0454   23890431.6664
      1066.8754
 04  9  8 22 51 15.0060000  0  6G 8G13G10G19G27G28
  -5394239.24549  -4195473.62548  22447385.7254   22447381.7094
      -217.9374
  19123245.31249  14892497.67547  24014521.4674   24014518.1744
     -4299.7034
   1327082.89649   1039546.24447  25131272.9594   25131270.0764
     -1802.2194
    461780.34149      -334.58047  24421663.2174   24421659.1434
     -1567.3754
   4125655.12449   3212995.29148  22589508.7644   22589504.7834
     -1390.4064
  -6898142.65949  -5367136.37647  23887398.3264   23887394.2134
      1061.7344
 04  9  8 22 51 30.0060000  0  6G 8G13G10G19G27G28
  -5390936.33849  -4192899.92348  22448014.1074   22448010.4244
      -222.5944
  19187782.77149  14942786.54647  24026802.8344   24026799.2404
     -4305.4694
   1354186.42049   1060665.86147  25136430.6004   25136427.4754
     -1811.6254
    485362.46649     18041.10747  24426151.7404   24426146.0184
     -1577.0474
   4146541.14049   3229270.10248  22593483.7714   22593479.9594
     -1394.5944
  -6914027.63149  -5379514.26847  23884376.1314   23884371.8424
      1056.1884
 04  9  8 22 51 45.0060000  0  6G 8G13G10G19G27G28
  -5387561.90249  -4190270.49648  22448656.4284   22448652.2684
      -227.5164
  19252408.16049  14993143.98147  24039100.4204   24039097.0414
     -4311.4844
   1381432.95249   1081896.92747  25141614.9754   25141612.4674
     -1821.3754
    509092.45049     36532.02048  24430667.3114   24430662.1544
     -1587.1254
   4167490.67449   3245594.40548  22597470.4204   22597466.1864
     -1398.9374
  -6929829.34649  -5391827.26547  23881368.6934   23881364.6784
      1050.5004
 04  9  8 22 52  0.0060000  0  6G 8G13G10G19G27G28
  -5384121.86049  -4187589.92648  22449310.9754   22449307.1744
      -231.4064
  19317115.54749  15043565.28947  24051414.1154   24051411.0024
     -4316.3594
   1408816.54649   1103234.79247  25146825.6704   25146824.2684
     -1829.9224
    532964.40949     55133.55647  24435210.2404   24435204.3694
     -1596.0314
   4188497.75049   3261963.56248  22601467.2794   22601463.4904
     -1402.2194
  -6945553.65449  -5404079.95047  23878376.6154   23878372.2834
      1045.7814
 04  9  8 22 52 15.0060000  0  6G 8G13G10G19G27G28
  -5380614.11649  -4184856.61948  22449978.8034   22449974.5414
      -236.5314
  19381906.59849  15094051.78547  24063743.2324   24063739.7874
     -4322.4694
   1436339.00749   1124680.85247  25152064.1624   25152061.4244
     -1839.8124
    556980.30849     73847.24347  24439779.3964   24439773.7214
     -1606.2344
   4209564.56649   3278379.27648  22605476.4984   22605472.3774
     -1406.8284
  -6961198.37449  -5416270.62448  23875399.7714   23875395.5184
      1039.9384
 04  9  8 22 52 30.0060000  0  6G 8G13G10G19G27G28
  -5377036.46049  -4182068.82348  22450659.4364   22450655.7644
      -240.8124
  19446782.83149  15144604.68047  24076088.7324   24076084.6274
     -4327.8444
   1464001.96749   1146236.39347  25157327.9594   25157325.1584
     -1848.8124
    581141.89949     92674.46947  24444377.4284   24444370.6744
     -1615.5944
   4230692.82049   3294842.83648  22609497.2644   22609493.7444
     -1410.5164
  -6976761.67049  -5428397.83447  23872438.0214   23872433.5024
      1034.8754
 04  9  8 22 52 45.0070000  0  6G 8G13G10G19G27G28
  -5373388.21549  -4179226.03948  22451353.5344   22451349.7724
      -245.3444
  19511748.82549  15195227.52447  24088451.4174   24088447.9524
     -4333.4374
   1491807.78149   1167903.24647  25162619.2454   25162616.2764
     -1858.0944
    605451.31049    111616.87247  24449003.3004   24448997.6594
     -1625.2344
   4251884.77849   3311356.04148  22613529.5264   22613525.9684
     -1414.6724
  -6992243.88349  -5440461.87948  23869492.2534   23869487.5154
      1029.5944
 04  9  8 22 53  0.0070000  0  6G 8G13G10G19G27G28
  -5369672.50349  -4176330.66448  22452060.6364   22452056.8784
      -249.3914
  19576793.23549  15245911.45647  24100829.1984   24100825.2104
     -4338.4844
   1519749.89149   1189676.30847  25167936.2614   25167934.1864
     -1866.8914
    629902.70949    130669.90747  24453656.2534   24453650.7334
     -1634.3124
   4273135.01549   3327914.67548  22617573.7454   22617569.9444
     -1418.1094
  -7007645.41949  -5452463.03148  23866561.0114   23866556.6674
      1024.6724
 04  9  8 22 53 15.0070000  0  6G 8G13G10G19G27G28
  -5365886.28449  -4173380.36848  22452780.7764   22452777.0344
      -254.9694
  19641922.77149  15296661.68447  24113222.7064   24113219.0814
     -4345.0314
   1547832.67549   1211558.97547  25173280.3704   25173277.6944
     -1877.0944
    654500.52449    149837.02548  24458337.4874   24458332.4564
     -1644.9534
   4294447.61649   3344521.89448  22621629.3704   22621625.2184
     -1423.1254
  -7022964.54249  -5464400.00347  23863645.4794   23863640.6594
      1018.3444
 04  9  8 22 53 30.0070000  0  6G 8G13G10G19G27G28
  -5362032.96549  -4170377.77548  22453514.3864   22453510.2144
      -259.0164
  19707133.53449  15347475.25447  24125631.8474   24125628.5894
     -4349.9844
   1576052.34549   1233548.31047  25178649.7764   25178648.0854
     -1885.7194
    679241.05349    169115.37848  24463045.3084   24463040.9564
     -1654.0164
   4315819.22349   3361175.09348  22625696.5734   22625692.2654
     -1426.5944
  -7038204.82249  -5476275.52047  23860745.2454   23860741.0224
      1013.5164
 04  9  8 22 53 45.0070000  0  6G 8G13G10G19G27G28
  -5358108.51749  -4167319.76748  22454261.7694   22454257.4054
      -263.4534
  19772429.33449  15398355.05547  24138057.5194   24138054.2454
     -4355.2664
   1604412.78449   1255647.33647  25184047.3944   25184044.8434
     -1894.8914
    704128.23549    188507.97047  24467780.8864   24467776.8314
     -1663.5474
   4337253.81749   3377877.36348  22629774.7374   22629771.0344
     -1430.5164
  -7053362.17049  -5488086.42247  23857861.3864   23857856.6084
      1008.2974
 04  9  8 22 54  0.0070000  0  6G 8G13G10G19G27G28
  -5354121.87049  -4164213.29848  22455019.9404   22455015.4724
      -267.9224
  19837800.96049  15449293.96747  24150497.4094   24150493.8234
     -4360.6724
   1632904.72249   1277848.83847  25189469.2224   25189466.9254
     -1903.8754
    729152.91849    208007.73047  24472542.6904   24472538.5894
     -1672.9064
   4358742.31849   3394621.64348  22633864.0194   22633860.0654
     -1434.4064
  -7068445.58249  -5499839.69347  23854990.8864   23854986.3974
      1003.0634
 04  9  8 22 54 15.0070000  0  6G 8G13G10G19G27G28
  -5350065.33749  -4161052.35148  22455791.8314   22455787.6904
      -273.0944
  19903255.90249  15500297.78647  24162952.2294   24162949.8084
     -4366.7344
   1661535.96449   1300158.88847  25194917.1284   25194915.0154
     -1913.6564
    754323.04749    227620.83347  24477332.2534   24477327.8314
     -1683.1254
   4380292.71949   3411414.17448  22637964.8084   22637961.0694
     -1439.0944
  -7083447.11849  -5511529.17548  23852136.4334   23852132.0774
       997.0784
 04  9  8 22 54 30.0070000  0  6G 8G13G10G19G27G28
  -5345940.13349  -4157837.90548  22456577.2064   22456573.1244
      -277.5004
  19968792.58449  15551365.30447  24175424.1754   24175420.5584
     -4372.0164
   1690305.00749   1322576.30747  25200392.0654   25200389.9294
     -1922.7194
    779637.16749    247346.11647  24482149.8314   24482145.1164
     -1692.6564
   4401903.80149   3428253.96948  22642077.8004   22642073.5464
     -1443.0314
  -7098367.98649  -5523155.80648  23849297.2294   23849292.4644
       991.7814
 04  9  8 22 54 45.0070000  0  6G 8G13G10G19G27G28
  -5341743.38349  -4154567.70348  22457375.2764   22457371.2534
      -282.1874
  20034413.33349  15602498.33147  24187911.3864   24187908.1244
     -4377.5164
   1719214.22449   1345102.97147  25205893.2144   25205890.8784
     -1931.9844
    805097.83949    267185.61647  24486994.8944   24486989.7654
     -1702.2974
   4423578.18549   3445143.10048  22646201.8544   22646198.0114
     -1447.0944
  -7113205.70749  -5534717.63948  23846473.5974   23846469.3354
       986.3284
